<?xml version="1.0" encoding="UTF-8" standalone="no" ?>
<gpx xmlns="http://www.topografix.com/GPX/1/1" xmlns:xsi="http://www.w3.org/2001/XMLSchema-instance" xsi:schemaLocation="http://www.topografix.com/GPX/1/1 http://www.topografix.com/GPX/1/1/gpx.xsd" version="1.1" creator="VisuGPX - https://www.visugpx.com">
  <metadata>
    <name>Grande balade</name>
    <desc><![CDATA[Pas vraiment le chemin prévu et des imprévus comme chemin fermé par une grille...]]></desc>
  </metadata>
  <trk>
    <name><![CDATA[Untitled]]></name>
    <trkseg>
      <trkpt lat="48.70699" lon="1.75493">
        <ele>172.19999694824</ele>
        <time>2012-03-15T10:07:58.000Z</time>
      </trkpt>
      <trkpt lat="48.70699" lon="1.75493">
        <ele>172.19999694824</ele>
        <time>2012-03-15T10:07:59.000Z</time>
      </trkpt>
      <trkpt lat="48.70693" lon="1.7551">
        <ele>172.60000610352</ele>
        <time>2012-03-15T10:08:28.000Z</time>
      </trkpt>
      <trkpt lat="48.70689" lon="1.7552">
        <ele>172.80000305176</ele>
        <time>2012-03-15T10:08:35.000Z</time>
      </trkpt>
      <trkpt lat="48.70685" lon="1.75529">
        <ele>173.19999694824</ele>
        <time>2012-03-15T10:08:41.000Z</time>
      </trkpt>
      <trkpt lat="48.7068" lon="1.7554">
        <ele>173.60000610352</ele>
        <time>2012-03-15T10:08:49.000Z</time>
      </trkpt>
      <trkpt lat="48.70676" lon="1.7555">
        <ele>173.80000305176</ele>
        <time>2012-03-15T10:08:57.000Z</time>
      </trkpt>
      <trkpt lat="48.7065" lon="1.75605">
        <ele>176.60000610352</ele>
        <time>2012-03-15T10:10:03.000Z</time>
      </trkpt>
      <trkpt lat="48.70647" lon="1.75614">
        <ele>177</ele>
        <time>2012-03-15T10:10:08.000Z</time>
      </trkpt>
      <trkpt lat="48.70644" lon="1.75619">
        <ele>177.39999389648</ele>
        <time>2012-03-15T10:10:12.000Z</time>
      </trkpt>
      <trkpt lat="48.70642" lon="1.75624">
        <ele>177.80000305176</ele>
        <time>2012-03-15T10:10:16.000Z</time>
      </trkpt>
      <trkpt lat="48.70639" lon="1.75632">
        <ele>178</ele>
        <time>2012-03-15T10:10:22.000Z</time>
      </trkpt>
      <trkpt lat="48.70637" lon="1.75638">
        <ele>178.19999694824</ele>
        <time>2012-03-15T10:10:26.000Z</time>
      </trkpt>
      <trkpt lat="48.70635" lon="1.75649">
        <ele>178.60000610352</ele>
        <time>2012-03-15T10:10:32.000Z</time>
      </trkpt>
      <trkpt lat="48.70634" lon="1.75652">
        <ele>178.80000305176</ele>
        <time>2012-03-15T10:10:34.000Z</time>
      </trkpt>
      <trkpt lat="48.70627" lon="1.75654">
        <ele>179.60000610352</ele>
        <time>2012-03-15T10:10:39.000Z</time>
      </trkpt>
      <trkpt lat="48.70623" lon="1.75651">
        <ele>180</ele>
        <time>2012-03-15T10:10:43.000Z</time>
      </trkpt>
      <trkpt lat="48.70621" lon="1.75647">
        <ele>180.19999694824</ele>
        <time>2012-03-15T10:10:48.000Z</time>
      </trkpt>
      <trkpt lat="48.70616" lon="1.7564">
        <ele>180.80000305176</ele>
        <time>2012-03-15T10:10:55.000Z</time>
      </trkpt>
      <trkpt lat="48.70609" lon="1.7563">
        <ele>181.19999694824</ele>
        <time>2012-03-15T10:11:03.000Z</time>
      </trkpt>
      <trkpt lat="48.70602" lon="1.7562">
        <ele>182</ele>
        <time>2012-03-15T10:11:11.000Z</time>
      </trkpt>
      <trkpt lat="48.70594" lon="1.75613">
        <ele>182.60000610352</ele>
        <time>2012-03-15T10:11:20.000Z</time>
      </trkpt>
      <trkpt lat="48.7059" lon="1.7561">
        <ele>183</ele>
        <time>2012-03-15T10:11:24.000Z</time>
      </trkpt>
      <trkpt lat="48.70585" lon="1.75605">
        <ele>183.39999389648</ele>
        <time>2012-03-15T10:11:29.000Z</time>
      </trkpt>
      <trkpt lat="48.7058" lon="1.75599">
        <ele>183.39999389648</ele>
        <time>2012-03-15T10:11:35.000Z</time>
      </trkpt>
      <trkpt lat="48.70574" lon="1.75591">
        <ele>183.39999389648</ele>
        <time>2012-03-15T10:11:42.000Z</time>
      </trkpt>
      <trkpt lat="48.70571" lon="1.7559">
        <ele>183.39999389648</ele>
        <time>2012-03-15T10:11:44.000Z</time>
      </trkpt>
      <trkpt lat="48.70568" lon="1.75586">
        <ele>183.39999389648</ele>
        <time>2012-03-15T10:11:48.000Z</time>
      </trkpt>
      <trkpt lat="48.70566" lon="1.75582">
        <ele>183.39999389648</ele>
        <time>2012-03-15T10:11:53.000Z</time>
      </trkpt>
      <trkpt lat="48.70562" lon="1.75579">
        <ele>183</ele>
        <time>2012-03-15T10:11:57.000Z</time>
      </trkpt>
      <trkpt lat="48.70558" lon="1.75575">
        <ele>182.80000305176</ele>
        <time>2012-03-15T10:12:00.000Z</time>
      </trkpt>
      <trkpt lat="48.70553" lon="1.75571">
        <ele>182.60000610352</ele>
        <time>2012-03-15T10:12:05.000Z</time>
      </trkpt>
      <trkpt lat="48.70545" lon="1.75563">
        <ele>182.39999389648</ele>
        <time>2012-03-15T10:12:12.000Z</time>
      </trkpt>
      <trkpt lat="48.70545" lon="1.75562">
        <ele>182.19999694824</ele>
        <time>2012-03-15T10:12:13.000Z</time>
      </trkpt>
      <trkpt lat="48.70538" lon="1.75555">
        <ele>182</ele>
        <time>2012-03-15T10:12:18.000Z</time>
      </trkpt>
      <trkpt lat="48.70537" lon="1.75554">
        <ele>181.80000305176</ele>
        <time>2012-03-15T10:12:19.000Z</time>
      </trkpt>
      <trkpt lat="48.7053" lon="1.75547">
        <ele>181.80000305176</ele>
        <time>2012-03-15T10:12:27.000Z</time>
      </trkpt>
      <trkpt lat="48.70522" lon="1.75541">
        <ele>181.80000305176</ele>
        <time>2012-03-15T10:12:33.000Z</time>
      </trkpt>
      <trkpt lat="48.70521" lon="1.7554">
        <ele>181.80000305176</ele>
        <time>2012-03-15T10:12:34.000Z</time>
      </trkpt>
      <trkpt lat="48.70515" lon="1.7553">
        <ele>181.39999389648</ele>
        <time>2012-03-15T10:12:42.000Z</time>
      </trkpt>
      <trkpt lat="48.70509" lon="1.75523">
        <ele>181.60000610352</ele>
        <time>2012-03-15T10:12:48.000Z</time>
      </trkpt>
      <trkpt lat="48.70504" lon="1.75514">
        <ele>181.39999389648</ele>
        <time>2012-03-15T10:12:55.000Z</time>
      </trkpt>
      <trkpt lat="48.70499" lon="1.7551">
        <ele>181.60000610352</ele>
        <time>2012-03-15T10:13:00.000Z</time>
      </trkpt>
      <trkpt lat="48.70494" lon="1.75505">
        <ele>181.39999389648</ele>
        <time>2012-03-15T10:13:07.000Z</time>
      </trkpt>
      <trkpt lat="48.70489" lon="1.75497">
        <ele>181.19999694824</ele>
        <time>2012-03-15T10:13:14.000Z</time>
      </trkpt>
      <trkpt lat="48.70483" lon="1.75488">
        <ele>181</ele>
        <time>2012-03-15T10:13:20.000Z</time>
      </trkpt>
      <trkpt lat="48.70478" lon="1.75482">
        <ele>180.80000305176</ele>
        <time>2012-03-15T10:13:26.000Z</time>
      </trkpt>
      <trkpt lat="48.70471" lon="1.75476">
        <ele>181</ele>
        <time>2012-03-15T10:13:32.000Z</time>
      </trkpt>
      <trkpt lat="48.70469" lon="1.75475">
        <ele>181</ele>
        <time>2012-03-15T10:13:33.000Z</time>
      </trkpt>
      <trkpt lat="48.70461" lon="1.7547">
        <ele>181</ele>
        <time>2012-03-15T10:13:39.000Z</time>
      </trkpt>
      <trkpt lat="48.70455" lon="1.75465">
        <ele>181.19999694824</ele>
        <time>2012-03-15T10:13:45.000Z</time>
      </trkpt>
      <trkpt lat="48.7045" lon="1.75461">
        <ele>181.19999694824</ele>
        <time>2012-03-15T10:13:50.000Z</time>
      </trkpt>
      <trkpt lat="48.70446" lon="1.75458">
        <ele>181.39999389648</ele>
        <time>2012-03-15T10:13:54.000Z</time>
      </trkpt>
      <trkpt lat="48.70441" lon="1.75453">
        <ele>181.39999389648</ele>
        <time>2012-03-15T10:13:59.000Z</time>
      </trkpt>
      <trkpt lat="48.70436" lon="1.75449">
        <ele>181.60000610352</ele>
        <time>2012-03-15T10:14:04.000Z</time>
      </trkpt>
      <trkpt lat="48.70435" lon="1.75448">
        <ele>181.60000610352</ele>
        <time>2012-03-15T10:14:06.000Z</time>
      </trkpt>
      <trkpt lat="48.7043" lon="1.75444">
        <ele>181.80000305176</ele>
        <time>2012-03-15T10:14:11.000Z</time>
      </trkpt>
      <trkpt lat="48.70421" lon="1.75441">
        <ele>182.39999389648</ele>
        <time>2012-03-15T10:14:17.000Z</time>
      </trkpt>
      <trkpt lat="48.70416" lon="1.75437">
        <ele>182.39999389648</ele>
        <time>2012-03-15T10:14:21.000Z</time>
      </trkpt>
      <trkpt lat="48.7041" lon="1.75432">
        <ele>182.19999694824</ele>
        <time>2012-03-15T10:14:26.000Z</time>
      </trkpt>
      <trkpt lat="48.70407" lon="1.75429">
        <ele>182.19999694824</ele>
        <time>2012-03-15T10:14:29.000Z</time>
      </trkpt>
      <trkpt lat="48.70399" lon="1.75426">
        <ele>182</ele>
        <time>2012-03-15T10:14:35.000Z</time>
      </trkpt>
      <trkpt lat="48.70396" lon="1.75424">
        <ele>181.80000305176</ele>
        <time>2012-03-15T10:14:38.000Z</time>
      </trkpt>
      <trkpt lat="48.70393" lon="1.7542">
        <ele>181.80000305176</ele>
        <time>2012-03-15T10:14:41.000Z</time>
      </trkpt>
      <trkpt lat="48.7039" lon="1.75409">
        <ele>181.39999389648</ele>
        <time>2012-03-15T10:14:47.000Z</time>
      </trkpt>
      <trkpt lat="48.7039" lon="1.75406">
        <ele>181.39999389648</ele>
        <time>2012-03-15T10:14:49.000Z</time>
      </trkpt>
      <trkpt lat="48.70388" lon="1.75402">
        <ele>181.19999694824</ele>
        <time>2012-03-15T10:14:52.000Z</time>
      </trkpt>
      <trkpt lat="48.70391" lon="1.75392">
        <ele>180.80000305176</ele>
        <time>2012-03-15T10:15:01.000Z</time>
      </trkpt>
      <trkpt lat="48.70392" lon="1.75388">
        <ele>180.80000305176</ele>
        <time>2012-03-15T10:15:03.000Z</time>
      </trkpt>
      <trkpt lat="48.70397" lon="1.75373">
        <ele>180.19999694824</ele>
        <time>2012-03-15T10:15:11.000Z</time>
      </trkpt>
      <trkpt lat="48.704" lon="1.75361">
        <ele>179.60000610352</ele>
        <time>2012-03-15T10:15:17.000Z</time>
      </trkpt>
      <trkpt lat="48.70402" lon="1.75353">
        <ele>179.19999694824</ele>
        <time>2012-03-15T10:15:21.000Z</time>
      </trkpt>
      <trkpt lat="48.70404" lon="1.75338">
        <ele>178.60000610352</ele>
        <time>2012-03-15T10:15:27.000Z</time>
      </trkpt>
      <trkpt lat="48.70407" lon="1.75327">
        <ele>178.39999389648</ele>
        <time>2012-03-15T10:15:34.000Z</time>
      </trkpt>
      <trkpt lat="48.70409" lon="1.75323">
        <ele>178.39999389648</ele>
        <time>2012-03-15T10:15:36.000Z</time>
      </trkpt>
      <trkpt lat="48.70413" lon="1.7531">
        <ele>178.39999389648</ele>
        <time>2012-03-15T10:15:44.000Z</time>
      </trkpt>
      <trkpt lat="48.70416" lon="1.75302">
        <ele>178.39999389648</ele>
        <time>2012-03-15T10:15:49.000Z</time>
      </trkpt>
      <trkpt lat="48.7042" lon="1.75291">
        <ele>178.19999694824</ele>
        <time>2012-03-15T10:15:56.000Z</time>
      </trkpt>
      <trkpt lat="48.70424" lon="1.75277">
        <ele>178.19999694824</ele>
        <time>2012-03-15T10:16:03.000Z</time>
      </trkpt>
      <trkpt lat="48.70426" lon="1.75269">
        <ele>178</ele>
        <time>2012-03-15T10:16:08.000Z</time>
      </trkpt>
      <trkpt lat="48.70427" lon="1.75263">
        <ele>178</ele>
        <time>2012-03-15T10:16:12.000Z</time>
      </trkpt>
      <trkpt lat="48.70428" lon="1.75261">
        <ele>178</ele>
        <time>2012-03-15T10:16:14.000Z</time>
      </trkpt>
      <trkpt lat="48.70431" lon="1.7525">
        <ele>177.80000305176</ele>
        <time>2012-03-15T10:16:20.000Z</time>
      </trkpt>
      <trkpt lat="48.70433" lon="1.75246">
        <ele>177.80000305176</ele>
        <time>2012-03-15T10:16:25.000Z</time>
      </trkpt>
      <trkpt lat="48.70435" lon="1.7524">
        <ele>177.80000305176</ele>
        <time>2012-03-15T10:16:31.000Z</time>
      </trkpt>
      <trkpt lat="48.70439" lon="1.75224">
        <ele>178.19999694824</ele>
        <time>2012-03-15T10:16:38.000Z</time>
      </trkpt>
      <trkpt lat="48.70445" lon="1.75209">
        <ele>178</ele>
        <time>2012-03-15T10:16:48.000Z</time>
      </trkpt>
      <trkpt lat="48.70445" lon="1.75208">
        <ele>178</ele>
        <time>2012-03-15T10:16:49.000Z</time>
      </trkpt>
      <trkpt lat="48.70448" lon="1.75196">
        <ele>178.19999694824</ele>
        <time>2012-03-15T10:16:56.000Z</time>
      </trkpt>
      <trkpt lat="48.70449" lon="1.75195">
        <ele>178.19999694824</ele>
        <time>2012-03-15T10:16:57.000Z</time>
      </trkpt>
      <trkpt lat="48.70453" lon="1.75186">
        <ele>178</ele>
        <time>2012-03-15T10:17:05.000Z</time>
      </trkpt>
      <trkpt lat="48.69016" lon="1.73445">
        <ele>172</ele>
        <time>2012-03-15T10:53:49.000Z</time>
      </trkpt>
      <trkpt lat="48.69015" lon="1.73434">
        <ele>171.80000305176</ele>
        <time>2012-03-15T10:53:54.000Z</time>
      </trkpt>
      <trkpt lat="48.69013" lon="1.73422">
        <ele>171.39999389648</ele>
        <time>2012-03-15T10:54:00.000Z</time>
      </trkpt>
      <trkpt lat="48.69011" lon="1.7341">
        <ele>171.19999694824</ele>
        <time>2012-03-15T10:54:06.000Z</time>
      </trkpt>
      <trkpt lat="48.69007" lon="1.73393">
        <ele>170.80000305176</ele>
        <time>2012-03-15T10:54:14.000Z</time>
      </trkpt>
      <trkpt lat="48.69004" lon="1.73378">
        <ele>170.39999389648</ele>
        <time>2012-03-15T10:54:23.000Z</time>
      </trkpt>
      <trkpt lat="48.69001" lon="1.73371">
        <ele>170</ele>
        <time>2012-03-15T10:54:29.000Z</time>
      </trkpt>
      <trkpt lat="48.68996" lon="1.73356">
        <ele>170</ele>
        <time>2012-03-15T10:54:37.000Z</time>
      </trkpt>
      <trkpt lat="48.68993" lon="1.73338">
        <ele>170</ele>
        <time>2012-03-15T10:54:47.000Z</time>
      </trkpt>
      <trkpt lat="48.6899" lon="1.73323">
        <ele>170</ele>
        <time>2012-03-15T10:54:55.000Z</time>
      </trkpt>
      <trkpt lat="48.68986" lon="1.73305">
        <ele>170.19999694824</ele>
        <time>2012-03-15T10:55:05.000Z</time>
      </trkpt>
      <trkpt lat="48.6898" lon="1.73289">
        <ele>170.19999694824</ele>
        <time>2012-03-15T10:55:15.000Z</time>
      </trkpt>
      <trkpt lat="48.68977" lon="1.73278">
        <ele>170.39999389648</ele>
        <time>2012-03-15T10:55:22.000Z</time>
      </trkpt>
      <trkpt lat="48.68974" lon="1.73266">
        <ele>170.39999389648</ele>
        <time>2012-03-15T10:55:29.000Z</time>
      </trkpt>
      <trkpt lat="48.68969" lon="1.73247">
        <ele>170.60000610352</ele>
        <time>2012-03-15T10:55:40.000Z</time>
      </trkpt>
      <trkpt lat="48.68967" lon="1.73231">
        <ele>170.19999694824</ele>
        <time>2012-03-15T10:55:48.000Z</time>
      </trkpt>
      <trkpt lat="48.68964" lon="1.73221">
        <ele>170</ele>
        <time>2012-03-15T10:55:54.000Z</time>
      </trkpt>
      <trkpt lat="48.68961" lon="1.73209">
        <ele>169.80000305176</ele>
        <time>2012-03-15T10:56:01.000Z</time>
      </trkpt>
      <trkpt lat="48.68956" lon="1.7319">
        <ele>169.39999389648</ele>
        <time>2012-03-15T10:56:11.000Z</time>
      </trkpt>
      <trkpt lat="48.68953" lon="1.73179">
        <ele>169.19999694824</ele>
        <time>2012-03-15T10:56:18.000Z</time>
      </trkpt>
      <trkpt lat="48.6895" lon="1.73168">
        <ele>168.80000305176</ele>
        <time>2012-03-15T10:56:25.000Z</time>
      </trkpt>
      <trkpt lat="48.68949" lon="1.73165">
        <ele>168.80000305176</ele>
        <time>2012-03-15T10:56:27.000Z</time>
      </trkpt>
      <trkpt lat="48.68946" lon="1.73158">
        <ele>168.80000305176</ele>
        <time>2012-03-15T10:56:31.000Z</time>
      </trkpt>
      <trkpt lat="48.68941" lon="1.73138">
        <ele>169</ele>
        <time>2012-03-15T10:56:42.000Z</time>
      </trkpt>
      <trkpt lat="48.68937" lon="1.73122">
        <ele>169.19999694824</ele>
        <time>2012-03-15T10:56:51.000Z</time>
      </trkpt>
      <trkpt lat="48.68936" lon="1.73109">
        <ele>169.39999389648</ele>
        <time>2012-03-15T10:56:58.000Z</time>
      </trkpt>
      <trkpt lat="48.6893" lon="1.73091">
        <ele>169.39999389648</ele>
        <time>2012-03-15T10:57:08.000Z</time>
      </trkpt>
      <trkpt lat="48.68924" lon="1.73078">
        <ele>169.19999694824</ele>
        <time>2012-03-15T10:57:15.000Z</time>
      </trkpt>
      <trkpt lat="48.68919" lon="1.73057">
        <ele>168.80000305176</ele>
        <time>2012-03-15T10:57:26.000Z</time>
      </trkpt>
      <trkpt lat="48.68915" lon="1.73041">
        <ele>168.39999389648</ele>
        <time>2012-03-15T10:57:35.000Z</time>
      </trkpt>
      <trkpt lat="48.68909" lon="1.73022">
        <ele>168</ele>
        <time>2012-03-15T10:57:46.000Z</time>
      </trkpt>
      <trkpt lat="48.68904" lon="1.73015">
        <ele>167.80000305176</ele>
        <time>2012-03-15T10:57:52.000Z</time>
      </trkpt>
      <trkpt lat="48.68903" lon="1.73013">
        <ele>167.80000305176</ele>
        <time>2012-03-15T10:57:54.000Z</time>
      </trkpt>
      <trkpt lat="48.68898" lon="1.73011">
        <ele>167.60000610352</ele>
        <time>2012-03-15T10:58:01.000Z</time>
      </trkpt>
      <trkpt lat="48.6889" lon="1.73014">
        <ele>167.39999389648</ele>
        <time>2012-03-15T10:58:08.000Z</time>
      </trkpt>
      <trkpt lat="48.68877" lon="1.73017">
        <ele>167</ele>
        <time>2012-03-15T10:58:17.000Z</time>
      </trkpt>
      <trkpt lat="48.6887" lon="1.7302">
        <ele>166.80000305176</ele>
        <time>2012-03-15T10:58:23.000Z</time>
      </trkpt>
      <trkpt lat="48.68866" lon="1.73023">
        <ele>166.80000305176</ele>
        <time>2012-03-15T10:58:27.000Z</time>
      </trkpt>
      <trkpt lat="48.68855" lon="1.73026">
        <ele>166.60000610352</ele>
        <time>2012-03-15T10:58:34.000Z</time>
      </trkpt>
      <trkpt lat="48.68851" lon="1.73028">
        <ele>166.60000610352</ele>
        <time>2012-03-15T10:58:36.000Z</time>
      </trkpt>
      <trkpt lat="48.68841" lon="1.73032">
        <ele>166.39999389648</ele>
        <time>2012-03-15T10:58:44.000Z</time>
      </trkpt>
      <trkpt lat="48.68837" lon="1.73034">
        <ele>166.39999389648</ele>
        <time>2012-03-15T10:58:46.000Z</time>
      </trkpt>
      <trkpt lat="48.68832" lon="1.73035">
        <ele>166.19999694824</ele>
        <time>2012-03-15T10:58:51.000Z</time>
      </trkpt>
      <trkpt lat="48.68823" lon="1.73037">
        <ele>166.39999389648</ele>
        <time>2012-03-15T10:58:59.000Z</time>
      </trkpt>
      <trkpt lat="48.68816" lon="1.73043">
        <ele>166.39999389648</ele>
        <time>2012-03-15T10:59:05.000Z</time>
      </trkpt>
      <trkpt lat="48.68807" lon="1.73048">
        <ele>166.39999389648</ele>
        <time>2012-03-15T10:59:13.000Z</time>
      </trkpt>
      <trkpt lat="48.68796" lon="1.73054">
        <ele>166.39999389648</ele>
        <time>2012-03-15T10:59:22.000Z</time>
      </trkpt>
      <trkpt lat="48.6878" lon="1.73065">
        <ele>166.19999694824</ele>
        <time>2012-03-15T10:59:32.000Z</time>
      </trkpt>
      <trkpt lat="48.68771" lon="1.7307">
        <ele>165.80000305176</ele>
        <time>2012-03-15T10:59:39.000Z</time>
      </trkpt>
      <trkpt lat="48.68768" lon="1.73071">
        <ele>165.80000305176</ele>
        <time>2012-03-15T10:59:41.000Z</time>
      </trkpt>
      <trkpt lat="48.68761" lon="1.73074">
        <ele>165.60000610352</ele>
        <time>2012-03-15T10:59:47.000Z</time>
      </trkpt>
      <trkpt lat="48.68754" lon="1.73079">
        <ele>165.19999694824</ele>
        <time>2012-03-15T10:59:53.000Z</time>
      </trkpt>
      <trkpt lat="48.68752" lon="1.7308">
        <ele>165.19999694824</ele>
        <time>2012-03-15T10:59:55.000Z</time>
      </trkpt>
      <trkpt lat="48.68743" lon="1.73083">
        <ele>165.60000610352</ele>
        <time>2012-03-15T11:00:02.000Z</time>
      </trkpt>
      <trkpt lat="48.6874" lon="1.73085">
        <ele>165.80000305176</ele>
        <time>2012-03-15T11:00:04.000Z</time>
      </trkpt>
      <trkpt lat="48.68726" lon="1.73089">
        <ele>167</ele>
        <time>2012-03-15T11:00:14.000Z</time>
      </trkpt>
      <trkpt lat="48.68722" lon="1.7309">
        <ele>167.19999694824</ele>
        <time>2012-03-15T11:00:17.000Z</time>
      </trkpt>
      <trkpt lat="48.68714" lon="1.73093">
        <ele>167.80000305176</ele>
        <time>2012-03-15T11:00:24.000Z</time>
      </trkpt>
      <trkpt lat="48.68712" lon="1.73094">
        <ele>168</ele>
        <time>2012-03-15T11:00:26.000Z</time>
      </trkpt>
      <trkpt lat="48.68709" lon="1.73096">
        <ele>168.19999694824</ele>
        <time>2012-03-15T11:00:28.000Z</time>
      </trkpt>
      <trkpt lat="48.68701" lon="1.73102">
        <ele>168.80000305176</ele>
        <time>2012-03-15T11:00:34.000Z</time>
      </trkpt>
      <trkpt lat="48.68693" lon="1.73107">
        <ele>169.19999694824</ele>
        <time>2012-03-15T11:00:40.000Z</time>
      </trkpt>
      <trkpt lat="48.68687" lon="1.73111">
        <ele>169.60000610352</ele>
        <time>2012-03-15T11:00:46.000Z</time>
      </trkpt>
      <trkpt lat="48.68684" lon="1.73113">
        <ele>169.60000610352</ele>
        <time>2012-03-15T11:00:49.000Z</time>
      </trkpt>
      <trkpt lat="48.68677" lon="1.73115">
        <ele>170.19999694824</ele>
        <time>2012-03-15T11:00:54.000Z</time>
      </trkpt>
      <trkpt lat="48.68669" lon="1.73117">
        <ele>170.60000610352</ele>
        <time>2012-03-15T11:01:00.000Z</time>
      </trkpt>
      <trkpt lat="48.68661" lon="1.73121">
        <ele>170.60000610352</ele>
        <time>2012-03-15T11:01:07.000Z</time>
      </trkpt>
      <trkpt lat="48.68654" lon="1.73124">
        <ele>170.39999389648</ele>
        <time>2012-03-15T11:01:13.000Z</time>
      </trkpt>
      <trkpt lat="48.68645" lon="1.7313">
        <ele>170.19999694824</ele>
        <time>2012-03-15T11:01:22.000Z</time>
      </trkpt>
      <trkpt lat="48.68635" lon="1.73134">
        <ele>170</ele>
        <time>2012-03-15T11:01:31.000Z</time>
      </trkpt>
      <trkpt lat="48.68622" lon="1.73138">
        <ele>169.80000305176</ele>
        <time>2012-03-15T11:01:40.000Z</time>
      </trkpt>
      <trkpt lat="48.68611" lon="1.73144">
        <ele>169.80000305176</ele>
        <time>2012-03-15T11:01:48.000Z</time>
      </trkpt>
      <trkpt lat="48.68603" lon="1.73147">
        <ele>169.80000305176</ele>
        <time>2012-03-15T11:01:54.000Z</time>
      </trkpt>
      <trkpt lat="48.68596" lon="1.73151">
        <ele>169.80000305176</ele>
        <time>2012-03-15T11:02:00.000Z</time>
      </trkpt>
      <trkpt lat="48.68584" lon="1.73157">
        <ele>169.80000305176</ele>
        <time>2012-03-15T11:02:09.000Z</time>
      </trkpt>
      <trkpt lat="48.68574" lon="1.73165">
        <ele>169.60000610352</ele>
        <time>2012-03-15T11:02:17.000Z</time>
      </trkpt>
      <trkpt lat="48.68564" lon="1.7317">
        <ele>169</ele>
        <time>2012-03-15T11:02:24.000Z</time>
      </trkpt>
      <trkpt lat="48.68553" lon="1.73173">
        <ele>168.39999389648</ele>
        <time>2012-03-15T11:02:31.000Z</time>
      </trkpt>
      <trkpt lat="48.68552" lon="1.73173">
        <ele>168.39999389648</ele>
        <time>2012-03-15T11:02:32.000Z</time>
      </trkpt>
      <trkpt lat="48.68548" lon="1.73169">
        <ele>168.19999694824</ele>
        <time>2012-03-15T11:02:38.000Z</time>
      </trkpt>
      <trkpt lat="48.68544" lon="1.73159">
        <ele>168.19999694824</ele>
        <time>2012-03-15T11:02:45.000Z</time>
      </trkpt>
      <trkpt lat="48.68542" lon="1.73145">
        <ele>168</ele>
        <time>2012-03-15T11:02:52.000Z</time>
      </trkpt>
      <trkpt lat="48.6854" lon="1.73131">
        <ele>168</ele>
        <time>2012-03-15T11:02:59.000Z</time>
      </trkpt>
      <trkpt lat="48.68537" lon="1.73113">
        <ele>167.80000305176</ele>
        <time>2012-03-15T11:03:08.000Z</time>
      </trkpt>
      <trkpt lat="48.68535" lon="1.73099">
        <ele>167.80000305176</ele>
        <time>2012-03-15T11:03:15.000Z</time>
      </trkpt>
      <trkpt lat="48.68533" lon="1.73081">
        <ele>167.80000305176</ele>
        <time>2012-03-15T11:03:24.000Z</time>
      </trkpt>
      <trkpt lat="48.68532" lon="1.7308">
        <ele>167.80000305176</ele>
        <time>2012-03-15T11:03:25.000Z</time>
      </trkpt>
      <trkpt lat="48.68532" lon="1.73066">
        <ele>168.19999694824</ele>
        <time>2012-03-15T11:03:31.000Z</time>
      </trkpt>
      <trkpt lat="48.68532" lon="1.73063">
        <ele>168.19999694824</ele>
        <time>2012-03-15T11:03:32.000Z</time>
      </trkpt>
      <trkpt lat="48.68526" lon="1.73028">
        <ele>169</ele>
        <time>2012-03-15T11:03:41.000Z</time>
      </trkpt>
      <trkpt lat="48.68522" lon="1.73004">
        <ele>169.39999389648</ele>
        <time>2012-03-15T11:03:47.000Z</time>
      </trkpt>
      <trkpt lat="48.68518" lon="1.72962">
        <ele>170.19999694824</ele>
        <time>2012-03-15T11:03:56.000Z</time>
      </trkpt>
      <trkpt lat="48.68516" lon="1.72932">
        <ele>170.80000305176</ele>
        <time>2012-03-15T11:04:02.000Z</time>
      </trkpt>
      <trkpt lat="48.68514" lon="1.72887">
        <ele>172</ele>
        <time>2012-03-15T11:04:11.000Z</time>
      </trkpt>
      <trkpt lat="48.68512" lon="1.72857">
        <ele>173</ele>
        <time>2012-03-15T11:04:17.000Z</time>
      </trkpt>
      <trkpt lat="48.68514" lon="1.7284">
        <ele>173.39999389648</ele>
        <time>2012-03-15T11:04:21.000Z</time>
      </trkpt>
      <trkpt lat="48.68514" lon="1.72828">
        <ele>173.60000610352</ele>
        <time>2012-03-15T11:04:26.000Z</time>
      </trkpt>
      <trkpt lat="48.68513" lon="1.72823">
        <ele>173.80000305176</ele>
        <time>2012-03-15T11:04:28.000Z</time>
      </trkpt>
      <trkpt lat="48.68512" lon="1.72813">
        <ele>173.80000305176</ele>
        <time>2012-03-15T11:04:33.000Z</time>
      </trkpt>
      <trkpt lat="48.6851" lon="1.72804">
        <ele>173.80000305176</ele>
        <time>2012-03-15T11:04:40.000Z</time>
      </trkpt>
      <trkpt lat="48.68498" lon="1.72806">
        <ele>174</ele>
        <time>2012-03-15T11:05:09.000Z</time>
      </trkpt>
      <trkpt lat="48.6849" lon="1.72811">
        <ele>174</ele>
        <time>2012-03-15T11:05:15.000Z</time>
      </trkpt>
      <trkpt lat="48.68484" lon="1.72819">
        <ele>174</ele>
        <time>2012-03-15T11:05:22.000Z</time>
      </trkpt>
      <trkpt lat="48.68472" lon="1.72824">
        <ele>174</ele>
        <time>2012-03-15T11:05:30.000Z</time>
      </trkpt>
      <trkpt lat="48.68462" lon="1.72828">
        <ele>174</ele>
        <time>2012-03-15T11:05:38.000Z</time>
      </trkpt>
      <trkpt lat="48.68457" lon="1.7283">
        <ele>174</ele>
        <time>2012-03-15T11:05:44.000Z</time>
      </trkpt>
      <trkpt lat="48.6845" lon="1.72836">
        <ele>174</ele>
        <time>2012-03-15T11:05:49.000Z</time>
      </trkpt>
      <trkpt lat="48.68449" lon="1.72838">
        <ele>174</ele>
        <time>2012-03-15T11:05:50.000Z</time>
      </trkpt>
      <trkpt lat="48.68442" lon="1.72851">
        <ele>173.80000305176</ele>
        <time>2012-03-15T11:06:00.000Z</time>
      </trkpt>
      <trkpt lat="48.6844" lon="1.72852">
        <ele>173.80000305176</ele>
        <time>2012-03-15T11:06:01.000Z</time>
      </trkpt>
      <trkpt lat="48.68432" lon="1.72858">
        <ele>173.80000305176</ele>
        <time>2012-03-15T11:06:07.000Z</time>
      </trkpt>
      <trkpt lat="48.68423" lon="1.72869">
        <ele>174</ele>
        <time>2012-03-15T11:06:14.000Z</time>
      </trkpt>
      <trkpt lat="48.68412" lon="1.72878">
        <ele>174</ele>
        <time>2012-03-15T11:06:21.000Z</time>
      </trkpt>
      <trkpt lat="48.68402" lon="1.72884">
        <ele>174.19999694824</ele>
        <time>2012-03-15T11:06:28.000Z</time>
      </trkpt>
      <trkpt lat="48.68395" lon="1.72888">
        <ele>174.39999389648</ele>
        <time>2012-03-15T11:06:34.000Z</time>
      </trkpt>
      <trkpt lat="48.68386" lon="1.72896">
        <ele>174.60000610352</ele>
        <time>2012-03-15T11:06:42.000Z</time>
      </trkpt>
      <trkpt lat="48.68378" lon="1.72905">
        <ele>174.80000305176</ele>
        <time>2012-03-15T11:06:50.000Z</time>
      </trkpt>
      <trkpt lat="48.6837" lon="1.72912">
        <ele>175</ele>
        <time>2012-03-15T11:06:57.000Z</time>
      </trkpt>
      <trkpt lat="48.68361" lon="1.72917">
        <ele>175.39999389648</ele>
        <time>2012-03-15T11:07:03.000Z</time>
      </trkpt>
      <trkpt lat="48.68356" lon="1.72919">
        <ele>175.39999389648</ele>
        <time>2012-03-15T11:07:07.000Z</time>
      </trkpt>
      <trkpt lat="48.68347" lon="1.72925">
        <ele>175.39999389648</ele>
        <time>2012-03-15T11:07:13.000Z</time>
      </trkpt>
      <trkpt lat="48.68334" lon="1.72936">
        <ele>175.60000610352</ele>
        <time>2012-03-15T11:07:22.000Z</time>
      </trkpt>
      <trkpt lat="48.68323" lon="1.72946">
        <ele>175.19999694824</ele>
        <time>2012-03-15T11:07:31.000Z</time>
      </trkpt>
      <trkpt lat="48.68323" lon="1.72946">
        <ele>175.19999694824</ele>
        <time>2012-03-15T11:07:33.000Z</time>
      </trkpt>
      <trkpt lat="48.6832" lon="1.7295">
        <ele>175</ele>
        <time>2012-03-15T11:07:37.000Z</time>
      </trkpt>
      <trkpt lat="48.68312" lon="1.72956">
        <ele>174.80000305176</ele>
        <time>2012-03-15T11:07:42.000Z</time>
      </trkpt>
      <trkpt lat="48.68306" lon="1.72961">
        <ele>174.60000610352</ele>
        <time>2012-03-15T11:07:47.000Z</time>
      </trkpt>
      <trkpt lat="48.68297" lon="1.72968">
        <ele>174.39999389648</ele>
        <time>2012-03-15T11:07:54.000Z</time>
      </trkpt>
      <trkpt lat="48.68289" lon="1.72973">
        <ele>174.19999694824</ele>
        <time>2012-03-15T11:08:01.000Z</time>
      </trkpt>
      <trkpt lat="48.68285" lon="1.7297">
        <ele>174.19999694824</ele>
        <time>2012-03-15T11:08:04.000Z</time>
      </trkpt>
      <trkpt lat="48.68283" lon="1.72963">
        <ele>174.19999694824</ele>
        <time>2012-03-15T11:08:08.000Z</time>
      </trkpt>
      <trkpt lat="48.68276" lon="1.72937">
        <ele>174.80000305176</ele>
        <time>2012-03-15T11:08:21.000Z</time>
      </trkpt>
      <trkpt lat="48.68272" lon="1.72921">
        <ele>175.19999694824</ele>
        <time>2012-03-15T11:08:25.000Z</time>
      </trkpt>
      <trkpt lat="48.68264" lon="1.72886">
        <ele>175</ele>
        <time>2012-03-15T11:08:32.000Z</time>
      </trkpt>
      <trkpt lat="48.68258" lon="1.72861">
        <ele>175</ele>
        <time>2012-03-15T11:08:37.000Z</time>
      </trkpt>
      <trkpt lat="48.68252" lon="1.7283">
        <ele>175</ele>
        <time>2012-03-15T11:08:43.000Z</time>
      </trkpt>
      <trkpt lat="48.68247" lon="1.72807">
        <ele>175.19999694824</ele>
        <time>2012-03-15T11:08:48.000Z</time>
      </trkpt>
      <trkpt lat="48.68245" lon="1.72804">
        <ele>175.39999389648</ele>
        <time>2012-03-15T11:08:49.000Z</time>
      </trkpt>
      <trkpt lat="48.68238" lon="1.72777">
        <ele>176.19999694824</ele>
        <time>2012-03-15T11:08:55.000Z</time>
      </trkpt>
      <trkpt lat="48.68234" lon="1.72756">
        <ele>176.60000610352</ele>
        <time>2012-03-15T11:08:59.000Z</time>
      </trkpt>
      <trkpt lat="48.68225" lon="1.7272">
        <ele>178</ele>
        <time>2012-03-15T11:09:07.000Z</time>
      </trkpt>
      <trkpt lat="48.68224" lon="1.72718">
        <ele>178</ele>
        <time>2012-03-15T11:09:08.000Z</time>
      </trkpt>
      <trkpt lat="48.68221" lon="1.72708">
        <ele>178.39999389648</ele>
        <time>2012-03-15T11:09:13.000Z</time>
      </trkpt>
      <trkpt lat="48.6822" lon="1.72704">
        <ele>178.60000610352</ele>
        <time>2012-03-15T11:09:15.000Z</time>
      </trkpt>
      <trkpt lat="48.68216" lon="1.7269">
        <ele>179.19999694824</ele>
        <time>2012-03-15T11:09:22.000Z</time>
      </trkpt>
      <trkpt lat="48.68212" lon="1.72684">
        <ele>179.60000610352</ele>
        <time>2012-03-15T11:09:27.000Z</time>
      </trkpt>
      <trkpt lat="48.68209" lon="1.72672">
        <ele>180</ele>
        <time>2012-03-15T11:09:33.000Z</time>
      </trkpt>
      <trkpt lat="48.68206" lon="1.72656">
        <ele>180.19999694824</ele>
        <time>2012-03-15T11:09:41.000Z</time>
      </trkpt>
      <trkpt lat="48.68203" lon="1.72642">
        <ele>180.60000610352</ele>
        <time>2012-03-15T11:09:47.000Z</time>
      </trkpt>
      <trkpt lat="48.68201" lon="1.72633">
        <ele>180.80000305176</ele>
        <time>2012-03-15T11:09:51.000Z</time>
      </trkpt>
      <trkpt lat="48.68197" lon="1.72617">
        <ele>181</ele>
        <time>2012-03-15T11:09:59.000Z</time>
      </trkpt>
      <trkpt lat="48.68194" lon="1.72605">
        <ele>181.39999389648</ele>
        <time>2012-03-15T11:10:06.000Z</time>
      </trkpt>
      <trkpt lat="48.68194" lon="1.72603">
        <ele>181.39999389648</ele>
        <time>2012-03-15T11:10:07.000Z</time>
      </trkpt>
      <trkpt lat="48.68188" lon="1.7259">
        <ele>182</ele>
        <time>2012-03-15T11:10:15.000Z</time>
      </trkpt>
      <trkpt lat="48.68184" lon="1.72575">
        <ele>182.19999694824</ele>
        <time>2012-03-15T11:10:23.000Z</time>
      </trkpt>
      <trkpt lat="48.68182" lon="1.72573">
        <ele>182.19999694824</ele>
        <time>2012-03-15T11:10:24.000Z</time>
      </trkpt>
      <trkpt lat="48.68179" lon="1.72561">
        <ele>182.19999694824</ele>
        <time>2012-03-15T11:10:30.000Z</time>
      </trkpt>
      <trkpt lat="48.68178" lon="1.72555">
        <ele>182</ele>
        <time>2012-03-15T11:10:32.000Z</time>
      </trkpt>
      <trkpt lat="48.68176" lon="1.7254">
        <ele>181.60000610352</ele>
        <time>2012-03-15T11:10:39.000Z</time>
      </trkpt>
      <trkpt lat="48.68174" lon="1.72525">
        <ele>181.39999389648</ele>
        <time>2012-03-15T11:10:46.000Z</time>
      </trkpt>
      <trkpt lat="48.68171" lon="1.72511">
        <ele>181.19999694824</ele>
        <time>2012-03-15T11:10:53.000Z</time>
      </trkpt>
      <trkpt lat="48.68167" lon="1.725">
        <ele>181</ele>
        <time>2012-03-15T11:10:59.000Z</time>
      </trkpt>
      <trkpt lat="48.68167" lon="1.72497">
        <ele>180.80000305176</ele>
        <time>2012-03-15T11:11:01.000Z</time>
      </trkpt>
      <trkpt lat="48.68165" lon="1.72488">
        <ele>180.60000610352</ele>
        <time>2012-03-15T11:11:06.000Z</time>
      </trkpt>
      <trkpt lat="48.6816" lon="1.72474">
        <ele>180.60000610352</ele>
        <time>2012-03-15T11:11:14.000Z</time>
      </trkpt>
      <trkpt lat="48.68155" lon="1.72461">
        <ele>180.39999389648</ele>
        <time>2012-03-15T11:11:21.000Z</time>
      </trkpt>
      <trkpt lat="48.68152" lon="1.72447">
        <ele>180</ele>
        <time>2012-03-15T11:11:27.000Z</time>
      </trkpt>
      <trkpt lat="48.6815" lon="1.7244">
        <ele>180</ele>
        <time>2012-03-15T11:11:31.000Z</time>
      </trkpt>
      <trkpt lat="48.68146" lon="1.72423">
        <ele>179.39999389648</ele>
        <time>2012-03-15T11:11:39.000Z</time>
      </trkpt>
      <trkpt lat="48.68143" lon="1.7241">
        <ele>179.39999389648</ele>
        <time>2012-03-15T11:11:46.000Z</time>
      </trkpt>
      <trkpt lat="48.68139" lon="1.72398">
        <ele>179.60000610352</ele>
        <time>2012-03-15T11:11:53.000Z</time>
      </trkpt>
      <trkpt lat="48.68133" lon="1.72383">
        <ele>179.60000610352</ele>
        <time>2012-03-15T11:12:01.000Z</time>
      </trkpt>
      <trkpt lat="48.68129" lon="1.72369">
        <ele>179.60000610352</ele>
        <time>2012-03-15T11:12:08.000Z</time>
      </trkpt>
      <trkpt lat="48.68132" lon="1.72359">
        <ele>179.39999389648</ele>
        <time>2012-03-15T11:12:16.000Z</time>
      </trkpt>
      <trkpt lat="48.68132" lon="1.72358">
        <ele>179.39999389648</ele>
        <time>2012-03-15T11:12:18.000Z</time>
      </trkpt>
      <trkpt lat="48.68119" lon="1.72342">
        <ele>179.19999694824</ele>
        <time>2012-03-15T11:13:24.000Z</time>
      </trkpt>
      <trkpt lat="48.68105" lon="1.72336">
        <ele>179</ele>
        <time>2012-03-15T11:13:33.000Z</time>
      </trkpt>
      <trkpt lat="48.68096" lon="1.72331">
        <ele>179</ele>
        <time>2012-03-15T11:13:41.000Z</time>
      </trkpt>
      <trkpt lat="48.68085" lon="1.72325">
        <ele>178.80000305176</ele>
        <time>2012-03-15T11:13:50.000Z</time>
      </trkpt>
      <trkpt lat="48.68072" lon="1.7232">
        <ele>178</ele>
        <time>2012-03-15T11:14:00.000Z</time>
      </trkpt>
      <trkpt lat="48.68064" lon="1.72315">
        <ele>177.60000610352</ele>
        <time>2012-03-15T11:14:07.000Z</time>
      </trkpt>
      <trkpt lat="48.68059" lon="1.72313">
        <ele>177.39999389648</ele>
        <time>2012-03-15T11:14:10.000Z</time>
      </trkpt>
      <trkpt lat="48.68048" lon="1.72307">
        <ele>176.80000305176</ele>
        <time>2012-03-15T11:14:16.000Z</time>
      </trkpt>
      <trkpt lat="48.68036" lon="1.723">
        <ele>176.19999694824</ele>
        <time>2012-03-15T11:14:22.000Z</time>
      </trkpt>
      <trkpt lat="48.6802" lon="1.72293">
        <ele>175.60000610352</ele>
        <time>2012-03-15T11:14:28.000Z</time>
      </trkpt>
      <trkpt lat="48.67993" lon="1.72278">
        <ele>175</ele>
        <time>2012-03-15T11:14:37.000Z</time>
      </trkpt>
      <trkpt lat="48.67968" lon="1.72266">
        <ele>175.19999694824</ele>
        <time>2012-03-15T11:14:45.000Z</time>
      </trkpt>
      <trkpt lat="48.67939" lon="1.72249">
        <ele>175.80000305176</ele>
        <time>2012-03-15T11:14:54.000Z</time>
      </trkpt>
      <trkpt lat="48.67913" lon="1.72236">
        <ele>176.39999389648</ele>
        <time>2012-03-15T11:15:02.000Z</time>
      </trkpt>
      <trkpt lat="48.67896" lon="1.72224">
        <ele>176.80000305176</ele>
        <time>2012-03-15T11:15:08.000Z</time>
      </trkpt>
      <trkpt lat="48.6788" lon="1.72213">
        <ele>176.80000305176</ele>
        <time>2012-03-15T11:15:14.000Z</time>
      </trkpt>
      <trkpt lat="48.67866" lon="1.72206">
        <ele>177</ele>
        <time>2012-03-15T11:15:19.000Z</time>
      </trkpt>
      <trkpt lat="48.67847" lon="1.72197">
        <ele>177</ele>
        <time>2012-03-15T11:15:26.000Z</time>
      </trkpt>
      <trkpt lat="48.67828" lon="1.72186">
        <ele>177.19999694824</ele>
        <time>2012-03-15T11:15:33.000Z</time>
      </trkpt>
      <trkpt lat="48.67815" lon="1.72175">
        <ele>176.80000305176</ele>
        <time>2012-03-15T11:15:38.000Z</time>
      </trkpt>
      <trkpt lat="48.67796" lon="1.72165">
        <ele>176.19999694824</ele>
        <time>2012-03-15T11:15:44.000Z</time>
      </trkpt>
      <trkpt lat="48.67779" lon="1.72156">
        <ele>175.60000610352</ele>
        <time>2012-03-15T11:15:50.000Z</time>
      </trkpt>
      <trkpt lat="48.67765" lon="1.72152">
        <ele>175</ele>
        <time>2012-03-15T11:15:55.000Z</time>
      </trkpt>
      <trkpt lat="48.67739" lon="1.72139">
        <ele>173.80000305176</ele>
        <time>2012-03-15T11:16:04.000Z</time>
      </trkpt>
      <trkpt lat="48.67717" lon="1.72126">
        <ele>172.60000610352</ele>
        <time>2012-03-15T11:16:12.000Z</time>
      </trkpt>
      <trkpt lat="48.67707" lon="1.72108">
        <ele>172.19999694824</ele>
        <time>2012-03-15T11:16:17.000Z</time>
      </trkpt>
      <trkpt lat="48.67688" lon="1.72079">
        <ele>171.60000610352</ele>
        <time>2012-03-15T11:16:25.000Z</time>
      </trkpt>
      <trkpt lat="48.67676" lon="1.72061">
        <ele>170.60000610352</ele>
        <time>2012-03-15T11:16:30.000Z</time>
      </trkpt>
      <trkpt lat="48.67663" lon="1.72042">
        <ele>169.80000305176</ele>
        <time>2012-03-15T11:16:36.000Z</time>
      </trkpt>
      <trkpt lat="48.67653" lon="1.72027">
        <ele>169</ele>
        <time>2012-03-15T11:16:42.000Z</time>
      </trkpt>
      <trkpt lat="48.67636" lon="1.72004">
        <ele>167.39999389648</ele>
        <time>2012-03-15T11:16:49.000Z</time>
      </trkpt>
      <trkpt lat="48.67626" lon="1.71995">
        <ele>166.60000610352</ele>
        <time>2012-03-15T11:16:53.000Z</time>
      </trkpt>
      <trkpt lat="48.67608" lon="1.71977">
        <ele>164.60000610352</ele>
        <time>2012-03-15T11:17:00.000Z</time>
      </trkpt>
      <trkpt lat="48.67593" lon="1.71965">
        <ele>163</ele>
        <time>2012-03-15T11:17:06.000Z</time>
      </trkpt>
      <trkpt lat="48.67578" lon="1.71952">
        <ele>161.60000610352</ele>
        <time>2012-03-15T11:17:12.000Z</time>
      </trkpt>
      <trkpt lat="48.67561" lon="1.71937">
        <ele>160.60000610352</ele>
        <time>2012-03-15T11:17:18.000Z</time>
      </trkpt>
      <trkpt lat="48.67547" lon="1.71922">
        <ele>159.80000305176</ele>
        <time>2012-03-15T11:17:24.000Z</time>
      </trkpt>
      <trkpt lat="48.6754" lon="1.71916">
        <ele>159.39999389648</ele>
        <time>2012-03-15T11:17:28.000Z</time>
      </trkpt>
      <trkpt lat="48.67531" lon="1.71912">
        <ele>159.19999694824</ele>
        <time>2012-03-15T11:17:35.000Z</time>
      </trkpt>
      <trkpt lat="48.67529" lon="1.71911">
        <ele>159</ele>
        <time>2012-03-15T11:17:37.000Z</time>
      </trkpt>
      <trkpt lat="48.67521" lon="1.71909">
        <ele>158.80000305176</ele>
        <time>2012-03-15T11:17:43.000Z</time>
      </trkpt>
      <trkpt lat="48.67516" lon="1.71911">
        <ele>158.60000610352</ele>
        <time>2012-03-15T11:17:50.000Z</time>
      </trkpt>
      <trkpt lat="48.6751" lon="1.71923">
        <ele>158.60000610352</ele>
        <time>2012-03-15T11:18:01.000Z</time>
      </trkpt>
      <trkpt lat="48.67505" lon="1.71929">
        <ele>158.39999389648</ele>
        <time>2012-03-15T11:18:04.000Z</time>
      </trkpt>
      <trkpt lat="48.67504" lon="1.71935">
        <ele>158.60000610352</ele>
        <time>2012-03-15T11:18:08.000Z</time>
      </trkpt>
      <trkpt lat="48.675" lon="1.71946">
        <ele>158.80000305176</ele>
        <time>2012-03-15T11:18:15.000Z</time>
      </trkpt>
      <trkpt lat="48.67497" lon="1.71955">
        <ele>158.80000305176</ele>
        <time>2012-03-15T11:18:20.000Z</time>
      </trkpt>
      <trkpt lat="48.67494" lon="1.71965">
        <ele>159</ele>
        <time>2012-03-15T11:18:26.000Z</time>
      </trkpt>
      <trkpt lat="48.67489" lon="1.71976">
        <ele>159.19999694824</ele>
        <time>2012-03-15T11:18:31.000Z</time>
      </trkpt>
      <trkpt lat="48.67484" lon="1.7199">
        <ele>159.39999389648</ele>
        <time>2012-03-15T11:18:39.000Z</time>
      </trkpt>
      <trkpt lat="48.67479" lon="1.72001">
        <ele>159.39999389648</ele>
        <time>2012-03-15T11:18:46.000Z</time>
      </trkpt>
      <trkpt lat="48.67472" lon="1.72012">
        <ele>159.19999694824</ele>
        <time>2012-03-15T11:18:52.000Z</time>
      </trkpt>
      <trkpt lat="48.67471" lon="1.72014">
        <ele>159.19999694824</ele>
        <time>2012-03-15T11:18:53.000Z</time>
      </trkpt>
      <trkpt lat="48.67468" lon="1.72027">
        <ele>159.19999694824</ele>
        <time>2012-03-15T11:19:00.000Z</time>
      </trkpt>
      <trkpt lat="48.67467" lon="1.7203">
        <ele>159.19999694824</ele>
        <time>2012-03-15T11:19:02.000Z</time>
      </trkpt>
      <trkpt lat="48.67461" lon="1.72049">
        <ele>159</ele>
        <time>2012-03-15T11:19:12.000Z</time>
      </trkpt>
      <trkpt lat="48.67456" lon="1.7206">
        <ele>159</ele>
        <time>2012-03-15T11:19:18.000Z</time>
      </trkpt>
      <trkpt lat="48.67455" lon="1.72069">
        <ele>159</ele>
        <time>2012-03-15T11:19:23.000Z</time>
      </trkpt>
      <trkpt lat="48.67452" lon="1.72081">
        <ele>159</ele>
        <time>2012-03-15T11:19:31.000Z</time>
      </trkpt>
      <trkpt lat="48.67447" lon="1.72093">
        <ele>158.80000305176</ele>
        <time>2012-03-15T11:19:38.000Z</time>
      </trkpt>
      <trkpt lat="48.67439" lon="1.72104">
        <ele>158.60000610352</ele>
        <time>2012-03-15T11:19:45.000Z</time>
      </trkpt>
      <trkpt lat="48.67433" lon="1.72115">
        <ele>158.19999694824</ele>
        <time>2012-03-15T11:19:52.000Z</time>
      </trkpt>
      <trkpt lat="48.6743" lon="1.72121">
        <ele>158</ele>
        <time>2012-03-15T11:19:56.000Z</time>
      </trkpt>
      <trkpt lat="48.67423" lon="1.72132">
        <ele>157.39999389648</ele>
        <time>2012-03-15T11:20:04.000Z</time>
      </trkpt>
      <trkpt lat="48.67419" lon="1.72141">
        <ele>157</ele>
        <time>2012-03-15T11:20:10.000Z</time>
      </trkpt>
      <trkpt lat="48.67417" lon="1.72146">
        <ele>156.80000305176</ele>
        <time>2012-03-15T11:20:13.000Z</time>
      </trkpt>
      <trkpt lat="48.67416" lon="1.72153">
        <ele>156.60000610352</ele>
        <time>2012-03-15T11:20:17.000Z</time>
      </trkpt>
      <trkpt lat="48.67415" lon="1.72162">
        <ele>156.19999694824</ele>
        <time>2012-03-15T11:20:22.000Z</time>
      </trkpt>
      <trkpt lat="48.67414" lon="1.72174">
        <ele>155.80000305176</ele>
        <time>2012-03-15T11:20:29.000Z</time>
      </trkpt>
      <trkpt lat="48.67409" lon="1.72193">
        <ele>155.39999389648</ele>
        <time>2012-03-15T11:20:38.000Z</time>
      </trkpt>
      <trkpt lat="48.67403" lon="1.72208">
        <ele>155.19999694824</ele>
        <time>2012-03-15T11:20:46.000Z</time>
      </trkpt>
      <trkpt lat="48.674" lon="1.72212">
        <ele>155.19999694824</ele>
        <time>2012-03-15T11:20:51.000Z</time>
      </trkpt>
      <trkpt lat="48.67397" lon="1.7222">
        <ele>155</ele>
        <time>2012-03-15T11:21:13.000Z</time>
      </trkpt>
      <trkpt lat="48.67393" lon="1.7223">
        <ele>154.80000305176</ele>
        <time>2012-03-15T11:21:18.000Z</time>
      </trkpt>
      <trkpt lat="48.67387" lon="1.72239">
        <ele>154.60000610352</ele>
        <time>2012-03-15T11:21:24.000Z</time>
      </trkpt>
      <trkpt lat="48.67385" lon="1.72241">
        <ele>154.60000610352</ele>
        <time>2012-03-15T11:21:26.000Z</time>
      </trkpt>
      <trkpt lat="48.67384" lon="1.72245">
        <ele>154.60000610352</ele>
        <time>2012-03-15T11:21:30.000Z</time>
      </trkpt>
      <trkpt lat="48.67384" lon="1.72255">
        <ele>154.19999694824</ele>
        <time>2012-03-15T11:21:44.000Z</time>
      </trkpt>
      <trkpt lat="48.67386" lon="1.72261">
        <ele>154</ele>
        <time>2012-03-15T11:21:46.000Z</time>
      </trkpt>
      <trkpt lat="48.67389" lon="1.72275">
        <ele>153.80000305176</ele>
        <time>2012-03-15T11:21:52.000Z</time>
      </trkpt>
      <trkpt lat="48.67388" lon="1.7228">
        <ele>153.60000610352</ele>
        <time>2012-03-15T11:21:54.000Z</time>
      </trkpt>
      <trkpt lat="48.67386" lon="1.72293">
        <ele>153.19999694824</ele>
        <time>2012-03-15T11:22:01.000Z</time>
      </trkpt>
      <trkpt lat="48.67385" lon="1.72298">
        <ele>153.19999694824</ele>
        <time>2012-03-15T11:22:04.000Z</time>
      </trkpt>
      <trkpt lat="48.67386" lon="1.72302">
        <ele>153</ele>
        <time>2012-03-15T11:22:11.000Z</time>
      </trkpt>
      <trkpt lat="48.67378" lon="1.72323">
        <ele>152.39999389648</ele>
        <time>2012-03-15T11:22:41.000Z</time>
      </trkpt>
      <trkpt lat="48.67377" lon="1.72327">
        <ele>152.19999694824</ele>
        <time>2012-03-15T11:22:45.000Z</time>
      </trkpt>
      <trkpt lat="48.6737" lon="1.72331">
        <ele>152</ele>
        <time>2012-03-15T11:23:13.000Z</time>
      </trkpt>
      <trkpt lat="48.67359" lon="1.72334">
        <ele>151.60000610352</ele>
        <time>2012-03-15T11:23:18.000Z</time>
      </trkpt>
      <trkpt lat="48.67349" lon="1.72338">
        <ele>151.39999389648</ele>
        <time>2012-03-15T11:23:26.000Z</time>
      </trkpt>
      <trkpt lat="48.67344" lon="1.72341">
        <ele>151.39999389648</ele>
        <time>2012-03-15T11:23:29.000Z</time>
      </trkpt>
      <trkpt lat="48.67335" lon="1.72341">
        <ele>151.19999694824</ele>
        <time>2012-03-15T11:23:36.000Z</time>
      </trkpt>
      <trkpt lat="48.67329" lon="1.72343">
        <ele>151.19999694824</ele>
        <time>2012-03-15T11:23:42.000Z</time>
      </trkpt>
      <trkpt lat="48.67326" lon="1.72341">
        <ele>151.19999694824</ele>
        <time>2012-03-15T11:23:45.000Z</time>
      </trkpt>
      <trkpt lat="48.6732" lon="1.72343">
        <ele>151.19999694824</ele>
        <time>2012-03-15T11:23:52.000Z</time>
      </trkpt>
      <trkpt lat="48.67316" lon="1.72345">
        <ele>151.39999389648</ele>
        <time>2012-03-15T11:24:00.000Z</time>
      </trkpt>
      <trkpt lat="48.67312" lon="1.72339">
        <ele>151.39999389648</ele>
        <time>2012-03-15T11:24:06.000Z</time>
      </trkpt>
      <trkpt lat="48.67306" lon="1.7234">
        <ele>151.39999389648</ele>
        <time>2012-03-15T11:24:11.000Z</time>
      </trkpt>
      <trkpt lat="48.67305" lon="1.72344">
        <ele>151.39999389648</ele>
        <time>2012-03-15T11:24:18.000Z</time>
      </trkpt>
      <trkpt lat="48.67305" lon="1.72344">
        <ele>151.39999389648</ele>
        <time>2012-03-15T11:24:19.000Z</time>
      </trkpt>
      <trkpt lat="48.67281" lon="1.72344">
        <ele>151.60000610352</ele>
        <time>2012-03-15T11:28:24.000Z</time>
      </trkpt>
      <trkpt lat="48.67279" lon="1.7234">
        <ele>151.60000610352</ele>
        <time>2012-03-15T11:28:27.000Z</time>
      </trkpt>
      <trkpt lat="48.67274" lon="1.72336">
        <ele>151.80000305176</ele>
        <time>2012-03-15T11:28:34.000Z</time>
      </trkpt>
      <trkpt lat="48.67274" lon="1.72336">
        <ele>151.80000305176</ele>
        <time>2012-03-15T11:28:36.000Z</time>
      </trkpt>
      <trkpt lat="48.67246" lon="1.72339">
        <ele>152</ele>
        <time>2012-03-15T11:29:35.000Z</time>
      </trkpt>
      <trkpt lat="48.67238" lon="1.7234">
        <ele>151.80000305176</ele>
        <time>2012-03-15T11:29:40.000Z</time>
      </trkpt>
      <trkpt lat="48.67236" lon="1.7234">
        <ele>151.80000305176</ele>
        <time>2012-03-15T11:29:42.000Z</time>
      </trkpt>
      <trkpt lat="48.67234" lon="1.72339">
        <ele>151.80000305176</ele>
        <time>2012-03-15T11:29:45.000Z</time>
      </trkpt>
      <trkpt lat="48.67223" lon="1.72342">
        <ele>151.60000610352</ele>
        <time>2012-03-15T11:29:53.000Z</time>
      </trkpt>
      <trkpt lat="48.67215" lon="1.72344">
        <ele>151.39999389648</ele>
        <time>2012-03-15T11:29:59.000Z</time>
      </trkpt>
      <trkpt lat="48.67209" lon="1.72343">
        <ele>151.39999389648</ele>
        <time>2012-03-15T11:30:04.000Z</time>
      </trkpt>
      <trkpt lat="48.67202" lon="1.72339">
        <ele>151.39999389648</ele>
        <time>2012-03-15T11:30:10.000Z</time>
      </trkpt>
      <trkpt lat="48.67192" lon="1.72334">
        <ele>151.19999694824</ele>
        <time>2012-03-15T11:30:16.000Z</time>
      </trkpt>
      <trkpt lat="48.67189" lon="1.72331">
        <ele>151.19999694824</ele>
        <time>2012-03-15T11:30:19.000Z</time>
      </trkpt>
      <trkpt lat="48.67183" lon="1.72326">
        <ele>151.19999694824</ele>
        <time>2012-03-15T11:30:24.000Z</time>
      </trkpt>
      <trkpt lat="48.67174" lon="1.7232">
        <ele>151.19999694824</ele>
        <time>2012-03-15T11:30:32.000Z</time>
      </trkpt>
      <trkpt lat="48.67172" lon="1.72319">
        <ele>151.19999694824</ele>
        <time>2012-03-15T11:30:33.000Z</time>
      </trkpt>
      <trkpt lat="48.67164" lon="1.72312">
        <ele>151</ele>
        <time>2012-03-15T11:30:41.000Z</time>
      </trkpt>
      <trkpt lat="48.67157" lon="1.72306">
        <ele>150.60000610352</ele>
        <time>2012-03-15T11:30:47.000Z</time>
      </trkpt>
      <trkpt lat="48.67151" lon="1.72297">
        <ele>150.39999389648</ele>
        <time>2012-03-15T11:30:55.000Z</time>
      </trkpt>
      <trkpt lat="48.6715" lon="1.72296">
        <ele>150.39999389648</ele>
        <time>2012-03-15T11:30:57.000Z</time>
      </trkpt>
      <trkpt lat="48.67144" lon="1.72278">
        <ele>150.19999694824</ele>
        <time>2012-03-15T11:32:12.000Z</time>
      </trkpt>
      <trkpt lat="48.67143" lon="1.72273">
        <ele>150.19999694824</ele>
        <time>2012-03-15T11:32:14.000Z</time>
      </trkpt>
      <trkpt lat="48.67141" lon="1.7226">
        <ele>150</ele>
        <time>2012-03-15T11:32:21.000Z</time>
      </trkpt>
      <trkpt lat="48.67137" lon="1.72244">
        <ele>150</ele>
        <time>2012-03-15T11:32:29.000Z</time>
      </trkpt>
      <trkpt lat="48.67135" lon="1.72227">
        <ele>150</ele>
        <time>2012-03-15T11:32:37.000Z</time>
      </trkpt>
      <trkpt lat="48.67133" lon="1.72214">
        <ele>150</ele>
        <time>2012-03-15T11:32:44.000Z</time>
      </trkpt>
      <trkpt lat="48.67131" lon="1.72199">
        <ele>149.80000305176</ele>
        <time>2012-03-15T11:32:51.000Z</time>
      </trkpt>
      <trkpt lat="48.67128" lon="1.72181">
        <ele>149.80000305176</ele>
        <time>2012-03-15T11:32:59.000Z</time>
      </trkpt>
      <trkpt lat="48.67125" lon="1.72166">
        <ele>149.60000610352</ele>
        <time>2012-03-15T11:33:06.000Z</time>
      </trkpt>
      <trkpt lat="48.67121" lon="1.72146">
        <ele>149.19999694824</ele>
        <time>2012-03-15T11:33:15.000Z</time>
      </trkpt>
      <trkpt lat="48.67118" lon="1.72129">
        <ele>149</ele>
        <time>2012-03-15T11:33:23.000Z</time>
      </trkpt>
      <trkpt lat="48.67118" lon="1.72122">
        <ele>149</ele>
        <time>2012-03-15T11:33:26.000Z</time>
      </trkpt>
      <trkpt lat="48.67115" lon="1.72108">
        <ele>148.80000305176</ele>
        <time>2012-03-15T11:33:33.000Z</time>
      </trkpt>
      <trkpt lat="48.67113" lon="1.72094">
        <ele>148.80000305176</ele>
        <time>2012-03-15T11:33:40.000Z</time>
      </trkpt>
      <trkpt lat="48.67108" lon="1.72074">
        <ele>148.39999389648</ele>
        <time>2012-03-15T11:33:50.000Z</time>
      </trkpt>
      <trkpt lat="48.67105" lon="1.72055">
        <ele>148.39999389648</ele>
        <time>2012-03-15T11:34:01.000Z</time>
      </trkpt>
      <trkpt lat="48.67104" lon="1.72044">
        <ele>148.39999389648</ele>
        <time>2012-03-15T11:34:07.000Z</time>
      </trkpt>
      <trkpt lat="48.67101" lon="1.72022">
        <ele>148.39999389648</ele>
        <time>2012-03-15T11:34:17.000Z</time>
      </trkpt>
      <trkpt lat="48.67097" lon="1.71999">
        <ele>148.39999389648</ele>
        <time>2012-03-15T11:34:27.000Z</time>
      </trkpt>
      <trkpt lat="48.67092" lon="1.71976">
        <ele>148</ele>
        <time>2012-03-15T11:34:38.000Z</time>
      </trkpt>
      <trkpt lat="48.67089" lon="1.71956">
        <ele>148</ele>
        <time>2012-03-15T11:34:47.000Z</time>
      </trkpt>
      <trkpt lat="48.67086" lon="1.71935">
        <ele>148</ele>
        <time>2012-03-15T11:34:57.000Z</time>
      </trkpt>
      <trkpt lat="48.67081" lon="1.71911">
        <ele>148</ele>
        <time>2012-03-15T11:35:09.000Z</time>
      </trkpt>
      <trkpt lat="48.67078" lon="1.7189">
        <ele>148.19999694824</ele>
        <time>2012-03-15T11:35:19.000Z</time>
      </trkpt>
      <trkpt lat="48.67077" lon="1.71888">
        <ele>148.19999694824</ele>
        <time>2012-03-15T11:35:20.000Z</time>
      </trkpt>
      <trkpt lat="48.67078" lon="1.71874">
        <ele>148.39999389648</ele>
        <time>2012-03-15T11:35:26.000Z</time>
      </trkpt>
      <trkpt lat="48.67077" lon="1.71869">
        <ele>148.39999389648</ele>
        <time>2012-03-15T11:35:28.000Z</time>
      </trkpt>
      <trkpt lat="48.67073" lon="1.71848">
        <ele>148.39999389648</ele>
        <time>2012-03-15T11:35:37.000Z</time>
      </trkpt>
      <trkpt lat="48.67071" lon="1.71828">
        <ele>148.60000610352</ele>
        <time>2012-03-15T11:35:46.000Z</time>
      </trkpt>
      <trkpt lat="48.6707" lon="1.71824">
        <ele>148.60000610352</ele>
        <time>2012-03-15T11:35:48.000Z</time>
      </trkpt>
      <trkpt lat="48.67064" lon="1.7182">
        <ele>148.19999694824</ele>
        <time>2012-03-15T11:35:53.000Z</time>
      </trkpt>
      <trkpt lat="48.67048" lon="1.71826">
        <ele>147.80000305176</ele>
        <time>2012-03-15T11:36:05.000Z</time>
      </trkpt>
      <trkpt lat="48.67036" lon="1.71831">
        <ele>147.39999389648</ele>
        <time>2012-03-15T11:36:14.000Z</time>
      </trkpt>
      <trkpt lat="48.67024" lon="1.71836">
        <ele>146.80000305176</ele>
        <time>2012-03-15T11:36:23.000Z</time>
      </trkpt>
      <trkpt lat="48.67011" lon="1.71841">
        <ele>146.39999389648</ele>
        <time>2012-03-15T11:36:33.000Z</time>
      </trkpt>
      <trkpt lat="48.67001" lon="1.71844">
        <ele>146</ele>
        <time>2012-03-15T11:36:41.000Z</time>
      </trkpt>
      <trkpt lat="48.66993" lon="1.71847">
        <ele>146.19999694824</ele>
        <time>2012-03-15T11:36:47.000Z</time>
      </trkpt>
      <trkpt lat="48.6698" lon="1.71853">
        <ele>146.60000610352</ele>
        <time>2012-03-15T11:36:57.000Z</time>
      </trkpt>
      <trkpt lat="48.66972" lon="1.71856">
        <ele>147</ele>
        <time>2012-03-15T11:37:03.000Z</time>
      </trkpt>
      <trkpt lat="48.6697" lon="1.71856">
        <ele>147</ele>
        <time>2012-03-15T11:37:04.000Z</time>
      </trkpt>
      <trkpt lat="48.66963" lon="1.71859">
        <ele>147.19999694824</ele>
        <time>2012-03-15T11:37:10.000Z</time>
      </trkpt>
      <trkpt lat="48.66955" lon="1.71861">
        <ele>147.39999389648</ele>
        <time>2012-03-15T11:37:15.000Z</time>
      </trkpt>
      <trkpt lat="48.66947" lon="1.71863">
        <ele>147.80000305176</ele>
        <time>2012-03-15T11:37:21.000Z</time>
      </trkpt>
      <trkpt lat="48.66943" lon="1.71865">
        <ele>147.80000305176</ele>
        <time>2012-03-15T11:37:24.000Z</time>
      </trkpt>
      <trkpt lat="48.6693" lon="1.71873">
        <ele>148</ele>
        <time>2012-03-15T11:37:34.000Z</time>
      </trkpt>
      <trkpt lat="48.66922" lon="1.71877">
        <ele>148.19999694824</ele>
        <time>2012-03-15T11:37:41.000Z</time>
      </trkpt>
      <trkpt lat="48.66914" lon="1.71889">
        <ele>148.19999694824</ele>
        <time>2012-03-15T11:37:48.000Z</time>
      </trkpt>
      <trkpt lat="48.66909" lon="1.71901">
        <ele>148.19999694824</ele>
        <time>2012-03-15T11:37:55.000Z</time>
      </trkpt>
      <trkpt lat="48.669" lon="1.7192">
        <ele>148</ele>
        <time>2012-03-15T11:38:05.000Z</time>
      </trkpt>
      <trkpt lat="48.66893" lon="1.71933">
        <ele>148</ele>
        <time>2012-03-15T11:38:13.000Z</time>
      </trkpt>
      <trkpt lat="48.66883" lon="1.71954">
        <ele>147.60000610352</ele>
        <time>2012-03-15T11:38:25.000Z</time>
      </trkpt>
      <trkpt lat="48.66873" lon="1.71975">
        <ele>147</ele>
        <time>2012-03-15T11:38:37.000Z</time>
      </trkpt>
      <trkpt lat="48.66866" lon="1.71988">
        <ele>146.60000610352</ele>
        <time>2012-03-15T11:38:45.000Z</time>
      </trkpt>
      <trkpt lat="48.66861" lon="1.72001">
        <ele>146</ele>
        <time>2012-03-15T11:38:54.000Z</time>
      </trkpt>
      <trkpt lat="48.66854" lon="1.72015">
        <ele>145.80000305176</ele>
        <time>2012-03-15T11:39:02.000Z</time>
      </trkpt>
      <trkpt lat="48.66847" lon="1.72028">
        <ele>145.60000610352</ele>
        <time>2012-03-15T11:39:09.000Z</time>
      </trkpt>
      <trkpt lat="48.66839" lon="1.72045">
        <ele>145.19999694824</ele>
        <time>2012-03-15T11:39:18.000Z</time>
      </trkpt>
      <trkpt lat="48.66832" lon="1.72058">
        <ele>145</ele>
        <time>2012-03-15T11:39:25.000Z</time>
      </trkpt>
      <trkpt lat="48.66825" lon="1.72071">
        <ele>144.80000305176</ele>
        <time>2012-03-15T11:39:32.000Z</time>
      </trkpt>
      <trkpt lat="48.66816" lon="1.72088">
        <ele>144.39999389648</ele>
        <time>2012-03-15T11:39:41.000Z</time>
      </trkpt>
      <trkpt lat="48.66807" lon="1.72107">
        <ele>144</ele>
        <time>2012-03-15T11:39:51.000Z</time>
      </trkpt>
      <trkpt lat="48.66806" lon="1.7211">
        <ele>144</ele>
        <time>2012-03-15T11:39:55.000Z</time>
      </trkpt>
      <trkpt lat="48.66806" lon="1.72112">
        <ele>143.80000305176</ele>
        <time>2012-03-15T11:39:59.000Z</time>
      </trkpt>
      <trkpt lat="48.66798" lon="1.7213">
        <ele>143.39999389648</ele>
        <time>2012-03-15T11:40:07.000Z</time>
      </trkpt>
      <trkpt lat="48.66792" lon="1.72146">
        <ele>142.80000305176</ele>
        <time>2012-03-15T11:40:16.000Z</time>
      </trkpt>
      <trkpt lat="48.66792" lon="1.72148">
        <ele>142.80000305176</ele>
        <time>2012-03-15T11:40:17.000Z</time>
      </trkpt>
      <trkpt lat="48.66787" lon="1.72155">
        <ele>142.60000610352</ele>
        <time>2012-03-15T11:40:23.000Z</time>
      </trkpt>
      <trkpt lat="48.66781" lon="1.72164">
        <ele>142.39999389648</ele>
        <time>2012-03-15T11:40:30.000Z</time>
      </trkpt>
      <trkpt lat="48.6678" lon="1.72165">
        <ele>142.39999389648</ele>
        <time>2012-03-15T11:40:31.000Z</time>
      </trkpt>
      <trkpt lat="48.66776" lon="1.72172">
        <ele>142.39999389648</ele>
        <time>2012-03-15T11:40:38.000Z</time>
      </trkpt>
      <trkpt lat="48.66772" lon="1.72183">
        <ele>142.19999694824</ele>
        <time>2012-03-15T11:40:45.000Z</time>
      </trkpt>
      <trkpt lat="48.66766" lon="1.72194">
        <ele>142.19999694824</ele>
        <time>2012-03-15T11:40:52.000Z</time>
      </trkpt>
      <trkpt lat="48.66765" lon="1.72195">
        <ele>142.19999694824</ele>
        <time>2012-03-15T11:40:55.000Z</time>
      </trkpt>
      <trkpt lat="48.66761" lon="1.72208">
        <ele>142.19999694824</ele>
        <time>2012-03-15T11:41:10.000Z</time>
      </trkpt>
      <trkpt lat="48.66765" lon="1.72222">
        <ele>142</ele>
        <time>2012-03-15T11:41:16.000Z</time>
      </trkpt>
      <trkpt lat="48.6677" lon="1.72238">
        <ele>141.60000610352</ele>
        <time>2012-03-15T11:41:24.000Z</time>
      </trkpt>
      <trkpt lat="48.66776" lon="1.72252">
        <ele>141.39999389648</ele>
        <time>2012-03-15T11:41:31.000Z</time>
      </trkpt>
      <trkpt lat="48.66781" lon="1.72265">
        <ele>141.19999694824</ele>
        <time>2012-03-15T11:41:38.000Z</time>
      </trkpt>
      <trkpt lat="48.66784" lon="1.72273">
        <ele>141</ele>
        <time>2012-03-15T11:41:42.000Z</time>
      </trkpt>
      <trkpt lat="48.66792" lon="1.72293">
        <ele>140.80000305176</ele>
        <time>2012-03-15T11:41:52.000Z</time>
      </trkpt>
      <trkpt lat="48.66798" lon="1.72305">
        <ele>140.39999389648</ele>
        <time>2012-03-15T11:41:59.000Z</time>
      </trkpt>
      <trkpt lat="48.668" lon="1.72315">
        <ele>140.39999389648</ele>
        <time>2012-03-15T11:42:04.000Z</time>
      </trkpt>
      <trkpt lat="48.66801" lon="1.72321">
        <ele>140.19999694824</ele>
        <time>2012-03-15T11:42:07.000Z</time>
      </trkpt>
      <trkpt lat="48.66801" lon="1.72321">
        <ele>140.19999694824</ele>
        <time>2012-03-15T11:42:10.000Z</time>
      </trkpt>
      <trkpt lat="48.66797" lon="1.72328">
        <ele>140.39999389648</ele>
        <time>2012-03-15T11:42:17.000Z</time>
      </trkpt>
      <trkpt lat="48.66793" lon="1.72336">
        <ele>140.39999389648</ele>
        <time>2012-03-15T11:42:21.000Z</time>
      </trkpt>
      <trkpt lat="48.66794" lon="1.72345">
        <ele>140.39999389648</ele>
        <time>2012-03-15T11:42:25.000Z</time>
      </trkpt>
      <trkpt lat="48.66798" lon="1.72358">
        <ele>140.19999694824</ele>
        <time>2012-03-15T11:42:31.000Z</time>
      </trkpt>
      <trkpt lat="48.668" lon="1.72367">
        <ele>140.19999694824</ele>
        <time>2012-03-15T11:42:35.000Z</time>
      </trkpt>
      <trkpt lat="48.66804" lon="1.72387">
        <ele>140</ele>
        <time>2012-03-15T11:42:44.000Z</time>
      </trkpt>
      <trkpt lat="48.66804" lon="1.72411">
        <ele>140</ele>
        <time>2012-03-15T11:42:54.000Z</time>
      </trkpt>
      <trkpt lat="48.66806" lon="1.72416">
        <ele>140</ele>
        <time>2012-03-15T11:42:57.000Z</time>
      </trkpt>
      <trkpt lat="48.66806" lon="1.72418">
        <ele>140</ele>
        <time>2012-03-15T11:43:00.000Z</time>
      </trkpt>
      <trkpt lat="48.66807" lon="1.72426">
        <ele>140</ele>
        <time>2012-03-15T11:43:06.000Z</time>
      </trkpt>
      <trkpt lat="48.66809" lon="1.72452">
        <ele>140</ele>
        <time>2012-03-15T11:43:16.000Z</time>
      </trkpt>
      <trkpt lat="48.66805" lon="1.72463">
        <ele>140.19999694824</ele>
        <time>2012-03-15T11:43:22.000Z</time>
      </trkpt>
      <trkpt lat="48.66801" lon="1.72474">
        <ele>140.39999389648</ele>
        <time>2012-03-15T11:43:28.000Z</time>
      </trkpt>
      <trkpt lat="48.66806" lon="1.72476">
        <ele>140.19999694824</ele>
        <time>2012-03-15T11:43:33.000Z</time>
      </trkpt>
      <trkpt lat="48.66811" lon="1.72476">
        <ele>140.19999694824</ele>
        <time>2012-03-15T11:43:37.000Z</time>
      </trkpt>
      <trkpt lat="48.66812" lon="1.72475">
        <ele>140.19999694824</ele>
        <time>2012-03-15T11:43:38.000Z</time>
      </trkpt>
      <trkpt lat="48.66821" lon="1.72465">
        <ele>139.80000305176</ele>
        <time>2012-03-15T11:43:47.000Z</time>
      </trkpt>
      <trkpt lat="48.6683" lon="1.72457">
        <ele>139.60000610352</ele>
        <time>2012-03-15T11:43:54.000Z</time>
      </trkpt>
      <trkpt lat="48.6683" lon="1.72456">
        <ele>139.60000610352</ele>
        <time>2012-03-15T11:43:56.000Z</time>
      </trkpt>
      <trkpt lat="48.66834" lon="1.7245">
        <ele>139.39999389648</ele>
        <time>2012-03-15T11:44:02.000Z</time>
      </trkpt>
      <trkpt lat="48.66835" lon="1.72448">
        <ele>139.39999389648</ele>
        <time>2012-03-15T11:44:03.000Z</time>
      </trkpt>
      <trkpt lat="48.66839" lon="1.72442">
        <ele>139.60000610352</ele>
        <time>2012-03-15T11:44:06.000Z</time>
      </trkpt>
      <trkpt lat="48.66847" lon="1.72437">
        <ele>139.80000305176</ele>
        <time>2012-03-15T11:44:12.000Z</time>
      </trkpt>
      <trkpt lat="48.66851" lon="1.72442">
        <ele>140</ele>
        <time>2012-03-15T11:44:16.000Z</time>
      </trkpt>
      <trkpt lat="48.66858" lon="1.72457">
        <ele>140.39999389648</ele>
        <time>2012-03-15T11:44:24.000Z</time>
      </trkpt>
      <trkpt lat="48.66863" lon="1.7247">
        <ele>140.80000305176</ele>
        <time>2012-03-15T11:44:31.000Z</time>
      </trkpt>
      <trkpt lat="48.66865" lon="1.72475">
        <ele>140.80000305176</ele>
        <time>2012-03-15T11:44:36.000Z</time>
      </trkpt>
      <trkpt lat="48.66868" lon="1.72483">
        <ele>141</ele>
        <time>2012-03-15T11:44:43.000Z</time>
      </trkpt>
      <trkpt lat="48.66871" lon="1.7249">
        <ele>141.19999694824</ele>
        <time>2012-03-15T11:44:48.000Z</time>
      </trkpt>
      <trkpt lat="48.66875" lon="1.72497">
        <ele>141.39999389648</ele>
        <time>2012-03-15T11:44:54.000Z</time>
      </trkpt>
      <trkpt lat="48.66877" lon="1.72502">
        <ele>141.60000610352</ele>
        <time>2012-03-15T11:44:58.000Z</time>
      </trkpt>
      <trkpt lat="48.66881" lon="1.72509">
        <ele>141.60000610352</ele>
        <time>2012-03-15T11:45:02.000Z</time>
      </trkpt>
      <trkpt lat="48.66882" lon="1.72514">
        <ele>141.80000305176</ele>
        <time>2012-03-15T11:45:07.000Z</time>
      </trkpt>
      <trkpt lat="48.66886" lon="1.72523">
        <ele>141.80000305176</ele>
        <time>2012-03-15T11:45:12.000Z</time>
      </trkpt>
      <trkpt lat="48.66888" lon="1.72531">
        <ele>141.80000305176</ele>
        <time>2012-03-15T11:45:18.000Z</time>
      </trkpt>
      <trkpt lat="48.66894" lon="1.72541">
        <ele>142</ele>
        <time>2012-03-15T11:46:17.000Z</time>
      </trkpt>
      <trkpt lat="48.66897" lon="1.72545">
        <ele>142</ele>
        <time>2012-03-15T11:46:19.000Z</time>
      </trkpt>
      <trkpt lat="48.66898" lon="1.72547">
        <ele>142</ele>
        <time>2012-03-15T11:46:21.000Z</time>
      </trkpt>
      <trkpt lat="48.66903" lon="1.7256">
        <ele>142</ele>
        <time>2012-03-15T11:46:28.000Z</time>
      </trkpt>
      <trkpt lat="48.66904" lon="1.72564">
        <ele>142</ele>
        <time>2012-03-15T11:46:33.000Z</time>
      </trkpt>
      <trkpt lat="48.66907" lon="1.72569">
        <ele>142</ele>
        <time>2012-03-15T11:46:39.000Z</time>
      </trkpt>
      <trkpt lat="48.66909" lon="1.72564">
        <ele>142</ele>
        <time>2012-03-15T11:46:44.000Z</time>
      </trkpt>
      <trkpt lat="48.66911" lon="1.72554">
        <ele>142.19999694824</ele>
        <time>2012-03-15T11:46:49.000Z</time>
      </trkpt>
      <trkpt lat="48.66914" lon="1.72549">
        <ele>142.39999389648</ele>
        <time>2012-03-15T11:46:53.000Z</time>
      </trkpt>
      <trkpt lat="48.66924" lon="1.72551">
        <ele>142.60000610352</ele>
        <time>2012-03-15T11:47:02.000Z</time>
      </trkpt>
      <trkpt lat="48.66928" lon="1.72556">
        <ele>142.60000610352</ele>
        <time>2012-03-15T11:47:07.000Z</time>
      </trkpt>
      <trkpt lat="48.66928" lon="1.72557">
        <ele>142.60000610352</ele>
        <time>2012-03-15T11:47:08.000Z</time>
      </trkpt>
      <trkpt lat="48.66929" lon="1.72561">
        <ele>142.60000610352</ele>
        <time>2012-03-15T11:50:37.000Z</time>
      </trkpt>
      <trkpt lat="48.66925" lon="1.72557">
        <ele>142.39999389648</ele>
        <time>2012-03-15T11:50:41.000Z</time>
      </trkpt>
      <trkpt lat="48.66924" lon="1.72553">
        <ele>142.39999389648</ele>
        <time>2012-03-15T11:50:46.000Z</time>
      </trkpt>
      <trkpt lat="48.6692" lon="1.72548">
        <ele>142.39999389648</ele>
        <time>2012-03-15T11:50:52.000Z</time>
      </trkpt>
      <trkpt lat="48.66915" lon="1.72549">
        <ele>142.39999389648</ele>
        <time>2012-03-15T11:50:57.000Z</time>
      </trkpt>
      <trkpt lat="48.6691" lon="1.72551">
        <ele>142.19999694824</ele>
        <time>2012-03-15T11:51:02.000Z</time>
      </trkpt>
      <trkpt lat="48.66906" lon="1.72561">
        <ele>142</ele>
        <time>2012-03-15T11:51:10.000Z</time>
      </trkpt>
      <trkpt lat="48.66907" lon="1.72571">
        <ele>142</ele>
        <time>2012-03-15T11:51:16.000Z</time>
      </trkpt>
      <trkpt lat="48.66915" lon="1.72588">
        <ele>142</ele>
        <time>2012-03-15T11:51:25.000Z</time>
      </trkpt>
      <trkpt lat="48.66923" lon="1.72607">
        <ele>141.80000305176</ele>
        <time>2012-03-15T11:51:35.000Z</time>
      </trkpt>
      <trkpt lat="48.66927" lon="1.7262">
        <ele>141.80000305176</ele>
        <time>2012-03-15T11:51:42.000Z</time>
      </trkpt>
      <trkpt lat="48.66933" lon="1.72635">
        <ele>141.60000610352</ele>
        <time>2012-03-15T11:51:51.000Z</time>
      </trkpt>
      <trkpt lat="48.6694" lon="1.72648">
        <ele>141.60000610352</ele>
        <time>2012-03-15T11:51:59.000Z</time>
      </trkpt>
      <trkpt lat="48.66946" lon="1.72669">
        <ele>141.39999389648</ele>
        <time>2012-03-15T11:52:09.000Z</time>
      </trkpt>
      <trkpt lat="48.66951" lon="1.72685">
        <ele>141.60000610352</ele>
        <time>2012-03-15T11:52:17.000Z</time>
      </trkpt>
      <trkpt lat="48.66955" lon="1.72704">
        <ele>142</ele>
        <time>2012-03-15T11:52:26.000Z</time>
      </trkpt>
      <trkpt lat="48.66956" lon="1.72721">
        <ele>142.19999694824</ele>
        <time>2012-03-15T11:52:34.000Z</time>
      </trkpt>
      <trkpt lat="48.66956" lon="1.72727">
        <ele>142.19999694824</ele>
        <time>2012-03-15T11:52:38.000Z</time>
      </trkpt>
      <trkpt lat="48.66956" lon="1.72743">
        <ele>142.39999389648</ele>
        <time>2012-03-15T11:52:46.000Z</time>
      </trkpt>
      <trkpt lat="48.66953" lon="1.72752">
        <ele>142.60000610352</ele>
        <time>2012-03-15T11:52:52.000Z</time>
      </trkpt>
      <trkpt lat="48.66953" lon="1.72752">
        <ele>142.60000610352</ele>
        <time>2012-03-15T11:52:54.000Z</time>
      </trkpt>
      <trkpt lat="48.66947" lon="1.72759">
        <ele>142.60000610352</ele>
        <time>2012-03-15T11:53:02.000Z</time>
      </trkpt>
      <trkpt lat="48.6694" lon="1.72765">
        <ele>142.80000305176</ele>
        <time>2012-03-15T11:53:05.000Z</time>
      </trkpt>
      <trkpt lat="48.66931" lon="1.72772">
        <ele>142.80000305176</ele>
        <time>2012-03-15T11:53:12.000Z</time>
      </trkpt>
      <trkpt lat="48.6692" lon="1.7278">
        <ele>142.80000305176</ele>
        <time>2012-03-15T11:53:20.000Z</time>
      </trkpt>
      <trkpt lat="48.6691" lon="1.7279">
        <ele>142.80000305176</ele>
        <time>2012-03-15T11:53:28.000Z</time>
      </trkpt>
      <trkpt lat="48.66901" lon="1.72795">
        <ele>142.80000305176</ele>
        <time>2012-03-15T11:53:35.000Z</time>
      </trkpt>
      <trkpt lat="48.66892" lon="1.72807">
        <ele>142.80000305176</ele>
        <time>2012-03-15T11:53:43.000Z</time>
      </trkpt>
      <trkpt lat="48.66886" lon="1.72811">
        <ele>142.80000305176</ele>
        <time>2012-03-15T11:53:48.000Z</time>
      </trkpt>
      <trkpt lat="48.66881" lon="1.72817">
        <ele>142.80000305176</ele>
        <time>2012-03-15T11:53:53.000Z</time>
      </trkpt>
      <trkpt lat="48.66877" lon="1.72825">
        <ele>142.80000305176</ele>
        <time>2012-03-15T11:54:01.000Z</time>
      </trkpt>
      <trkpt lat="48.66891" lon="1.72804">
        <ele>142.80000305176</ele>
        <time>2012-03-15T11:55:36.000Z</time>
      </trkpt>
      <trkpt lat="48.66899" lon="1.72795">
        <ele>142.80000305176</ele>
        <time>2012-03-15T11:55:42.000Z</time>
      </trkpt>
      <trkpt lat="48.66903" lon="1.72791">
        <ele>142.80000305176</ele>
        <time>2012-03-15T11:55:46.000Z</time>
      </trkpt>
      <trkpt lat="48.66915" lon="1.72782">
        <ele>142.80000305176</ele>
        <time>2012-03-15T11:55:55.000Z</time>
      </trkpt>
      <trkpt lat="48.6693" lon="1.72771">
        <ele>142.80000305176</ele>
        <time>2012-03-15T11:56:06.000Z</time>
      </trkpt>
      <trkpt lat="48.66938" lon="1.72763">
        <ele>142.60000610352</ele>
        <time>2012-03-15T11:56:13.000Z</time>
      </trkpt>
      <trkpt lat="48.66945" lon="1.7276">
        <ele>142.60000610352</ele>
        <time>2012-03-15T11:56:17.000Z</time>
      </trkpt>
      <trkpt lat="48.66951" lon="1.72766">
        <ele>143</ele>
        <time>2012-03-15T11:56:22.000Z</time>
      </trkpt>
      <trkpt lat="48.66952" lon="1.72773">
        <ele>143.19999694824</ele>
        <time>2012-03-15T11:56:25.000Z</time>
      </trkpt>
      <trkpt lat="48.66958" lon="1.72797">
        <ele>144.19999694824</ele>
        <time>2012-03-15T11:56:36.000Z</time>
      </trkpt>
      <trkpt lat="48.6696" lon="1.72809">
        <ele>144.60000610352</ele>
        <time>2012-03-15T11:56:42.000Z</time>
      </trkpt>
      <trkpt lat="48.66961" lon="1.72814">
        <ele>144.80000305176</ele>
        <time>2012-03-15T11:56:45.000Z</time>
      </trkpt>
      <trkpt lat="48.66961" lon="1.72819">
        <ele>145</ele>
        <time>2012-03-15T11:56:49.000Z</time>
      </trkpt>
      <trkpt lat="48.66962" lon="1.72827">
        <ele>145.39999389648</ele>
        <time>2012-03-15T11:56:53.000Z</time>
      </trkpt>
      <trkpt lat="48.66964" lon="1.7284">
        <ele>145.80000305176</ele>
        <time>2012-03-15T11:56:59.000Z</time>
      </trkpt>
      <trkpt lat="48.66967" lon="1.72862">
        <ele>146.19999694824</ele>
        <time>2012-03-15T11:57:09.000Z</time>
      </trkpt>
      <trkpt lat="48.66968" lon="1.72875">
        <ele>146.39999389648</ele>
        <time>2012-03-15T11:57:15.000Z</time>
      </trkpt>
      <trkpt lat="48.6697" lon="1.72893">
        <ele>146.60000610352</ele>
        <time>2012-03-15T11:57:23.000Z</time>
      </trkpt>
      <trkpt lat="48.66972" lon="1.72905">
        <ele>146.80000305176</ele>
        <time>2012-03-15T11:57:29.000Z</time>
      </trkpt>
      <trkpt lat="48.66974" lon="1.7292">
        <ele>147</ele>
        <time>2012-03-15T11:57:36.000Z</time>
      </trkpt>
      <trkpt lat="48.66977" lon="1.72933">
        <ele>147.19999694824</ele>
        <time>2012-03-15T11:57:42.000Z</time>
      </trkpt>
      <trkpt lat="48.66981" lon="1.72955">
        <ele>147.60000610352</ele>
        <time>2012-03-15T11:57:52.000Z</time>
      </trkpt>
      <trkpt lat="48.66984" lon="1.72965">
        <ele>147.80000305176</ele>
        <time>2012-03-15T11:57:57.000Z</time>
      </trkpt>
      <trkpt lat="48.66991" lon="1.72985">
        <ele>148.39999389648</ele>
        <time>2012-03-15T11:58:07.000Z</time>
      </trkpt>
      <trkpt lat="48.66995" lon="1.72994">
        <ele>148.60000610352</ele>
        <time>2012-03-15T11:58:12.000Z</time>
      </trkpt>
      <trkpt lat="48.67001" lon="1.73004">
        <ele>148.80000305176</ele>
        <time>2012-03-15T11:58:18.000Z</time>
      </trkpt>
      <trkpt lat="48.67007" lon="1.73016">
        <ele>148.80000305176</ele>
        <time>2012-03-15T11:58:25.000Z</time>
      </trkpt>
      <trkpt lat="48.67013" lon="1.73025">
        <ele>148.80000305176</ele>
        <time>2012-03-15T11:58:31.000Z</time>
      </trkpt>
      <trkpt lat="48.67021" lon="1.73035">
        <ele>148.80000305176</ele>
        <time>2012-03-15T11:58:38.000Z</time>
      </trkpt>
      <trkpt lat="48.67031" lon="1.73049">
        <ele>149</ele>
        <time>2012-03-15T11:58:47.000Z</time>
      </trkpt>
      <trkpt lat="48.6704" lon="1.73058">
        <ele>149.19999694824</ele>
        <time>2012-03-15T11:58:54.000Z</time>
      </trkpt>
      <trkpt lat="48.67048" lon="1.73066">
        <ele>149.39999389648</ele>
        <time>2012-03-15T11:59:00.000Z</time>
      </trkpt>
      <trkpt lat="48.6705" lon="1.73068">
        <ele>149.39999389648</ele>
        <time>2012-03-15T11:59:03.000Z</time>
      </trkpt>
      <trkpt lat="48.67053" lon="1.7307">
        <ele>149.60000610352</ele>
        <time>2012-03-15T11:59:07.000Z</time>
      </trkpt>
      <trkpt lat="48.67065" lon="1.73081">
        <ele>150</ele>
        <time>2012-03-15T11:59:18.000Z</time>
      </trkpt>
      <trkpt lat="48.67071" lon="1.73091">
        <ele>149.60000610352</ele>
        <time>2012-03-15T11:59:24.000Z</time>
      </trkpt>
      <trkpt lat="48.67072" lon="1.73094">
        <ele>149.60000610352</ele>
        <time>2012-03-15T11:59:26.000Z</time>
      </trkpt>
      <trkpt lat="48.67076" lon="1.73098">
        <ele>149.60000610352</ele>
        <time>2012-03-15T11:59:30.000Z</time>
      </trkpt>
      <trkpt lat="48.67083" lon="1.73106">
        <ele>149.39999389648</ele>
        <time>2012-03-15T11:59:37.000Z</time>
      </trkpt>
      <trkpt lat="48.67086" lon="1.7311">
        <ele>149.39999389648</ele>
        <time>2012-03-15T11:59:40.000Z</time>
      </trkpt>
      <trkpt lat="48.67092" lon="1.73119">
        <ele>149.19999694824</ele>
        <time>2012-03-15T11:59:46.000Z</time>
      </trkpt>
      <trkpt lat="48.67099" lon="1.73128">
        <ele>149.19999694824</ele>
        <time>2012-03-15T11:59:53.000Z</time>
      </trkpt>
      <trkpt lat="48.67109" lon="1.73139">
        <ele>149.19999694824</ele>
        <time>2012-03-15T12:00:01.000Z</time>
      </trkpt>
      <trkpt lat="48.67118" lon="1.73151">
        <ele>149.39999389648</ele>
        <time>2012-03-15T12:00:08.000Z</time>
      </trkpt>
      <trkpt lat="48.67126" lon="1.73163">
        <ele>149.39999389648</ele>
        <time>2012-03-15T12:00:15.000Z</time>
      </trkpt>
      <trkpt lat="48.67133" lon="1.73172">
        <ele>149.60000610352</ele>
        <time>2012-03-15T12:00:22.000Z</time>
      </trkpt>
      <trkpt lat="48.67134" lon="1.73173">
        <ele>149.60000610352</ele>
        <time>2012-03-15T12:00:26.000Z</time>
      </trkpt>
      <trkpt lat="48.67139" lon="1.73182">
        <ele>149.39999389648</ele>
        <time>2012-03-15T12:00:39.000Z</time>
      </trkpt>
      <trkpt lat="48.67141" lon="1.73191">
        <ele>149.19999694824</ele>
        <time>2012-03-15T12:00:42.000Z</time>
      </trkpt>
      <trkpt lat="48.67146" lon="1.73204">
        <ele>148.60000610352</ele>
        <time>2012-03-15T12:00:49.000Z</time>
      </trkpt>
      <trkpt lat="48.6714" lon="1.73219">
        <ele>147.39999389648</ele>
        <time>2012-03-15T12:00:57.000Z</time>
      </trkpt>
      <trkpt lat="48.67131" lon="1.73238">
        <ele>146.19999694824</ele>
        <time>2012-03-15T12:01:07.000Z</time>
      </trkpt>
      <trkpt lat="48.67125" lon="1.73252">
        <ele>145.60000610352</ele>
        <time>2012-03-15T12:01:14.000Z</time>
      </trkpt>
      <trkpt lat="48.67122" lon="1.73257">
        <ele>145.60000610352</ele>
        <time>2012-03-15T12:01:17.000Z</time>
      </trkpt>
      <trkpt lat="48.67118" lon="1.73262">
        <ele>145.60000610352</ele>
        <time>2012-03-15T12:01:21.000Z</time>
      </trkpt>
      <trkpt lat="48.67114" lon="1.73271">
        <ele>145.80000305176</ele>
        <time>2012-03-15T12:01:25.000Z</time>
      </trkpt>
      <trkpt lat="48.6711" lon="1.73278">
        <ele>146</ele>
        <time>2012-03-15T12:01:29.000Z</time>
      </trkpt>
      <trkpt lat="48.67104" lon="1.73299">
        <ele>146.39999389648</ele>
        <time>2012-03-15T12:01:39.000Z</time>
      </trkpt>
      <trkpt lat="48.67099" lon="1.73313">
        <ele>146.80000305176</ele>
        <time>2012-03-15T12:01:46.000Z</time>
      </trkpt>
      <trkpt lat="48.67092" lon="1.73318">
        <ele>147.19999694824</ele>
        <time>2012-03-15T12:01:53.000Z</time>
      </trkpt>
      <trkpt lat="48.67083" lon="1.73319">
        <ele>147.39999389648</ele>
        <time>2012-03-15T12:02:00.000Z</time>
      </trkpt>
      <trkpt lat="48.67081" lon="1.73318">
        <ele>147.39999389648</ele>
        <time>2012-03-15T12:02:02.000Z</time>
      </trkpt>
      <trkpt lat="48.6707" lon="1.73314">
        <ele>146.80000305176</ele>
        <time>2012-03-15T12:02:10.000Z</time>
      </trkpt>
      <trkpt lat="48.67063" lon="1.73316">
        <ele>146.60000610352</ele>
        <time>2012-03-15T12:02:15.000Z</time>
      </trkpt>
      <trkpt lat="48.67057" lon="1.7332">
        <ele>146.60000610352</ele>
        <time>2012-03-15T12:02:20.000Z</time>
      </trkpt>
      <trkpt lat="48.67049" lon="1.73331">
        <ele>146.60000610352</ele>
        <time>2012-03-15T12:02:27.000Z</time>
      </trkpt>
      <trkpt lat="48.67043" lon="1.73342">
        <ele>147.60000610352</ele>
        <time>2012-03-15T12:02:33.000Z</time>
      </trkpt>
      <trkpt lat="48.67035" lon="1.73358">
        <ele>149</ele>
        <time>2012-03-15T12:02:41.000Z</time>
      </trkpt>
      <trkpt lat="48.67025" lon="1.73373">
        <ele>150</ele>
        <time>2012-03-15T12:02:50.000Z</time>
      </trkpt>
      <trkpt lat="48.67019" lon="1.73381">
        <ele>150.39999389648</ele>
        <time>2012-03-15T12:02:56.000Z</time>
      </trkpt>
      <trkpt lat="48.67011" lon="1.7339">
        <ele>150.80000305176</ele>
        <time>2012-03-15T12:03:03.000Z</time>
      </trkpt>
      <trkpt lat="48.67001" lon="1.73395">
        <ele>150.19999694824</ele>
        <time>2012-03-15T12:03:10.000Z</time>
      </trkpt>
      <trkpt lat="48.66996" lon="1.73392">
        <ele>150</ele>
        <time>2012-03-15T12:03:15.000Z</time>
      </trkpt>
      <trkpt lat="48.66988" lon="1.73384">
        <ele>149.39999389648</ele>
        <time>2012-03-15T12:03:22.000Z</time>
      </trkpt>
      <trkpt lat="48.66976" lon="1.73378">
        <ele>149</ele>
        <time>2012-03-15T12:03:30.000Z</time>
      </trkpt>
      <trkpt lat="48.66965" lon="1.7338">
        <ele>149.19999694824</ele>
        <time>2012-03-15T12:03:37.000Z</time>
      </trkpt>
      <trkpt lat="48.66954" lon="1.73383">
        <ele>149.60000610352</ele>
        <time>2012-03-15T12:03:45.000Z</time>
      </trkpt>
      <trkpt lat="48.66953" lon="1.73383">
        <ele>149.60000610352</ele>
        <time>2012-03-15T12:03:46.000Z</time>
      </trkpt>
      <trkpt lat="48.66946" lon="1.73385">
        <ele>149.80000305176</ele>
        <time>2012-03-15T12:03:51.000Z</time>
      </trkpt>
      <trkpt lat="48.66943" lon="1.73384">
        <ele>149.80000305176</ele>
        <time>2012-03-15T12:03:53.000Z</time>
      </trkpt>
      <trkpt lat="48.66936" lon="1.73369">
        <ele>148.80000305176</ele>
        <time>2012-03-15T12:04:01.000Z</time>
      </trkpt>
      <trkpt lat="48.66933" lon="1.73352">
        <ele>147.80000305176</ele>
        <time>2012-03-15T12:04:08.000Z</time>
      </trkpt>
      <trkpt lat="48.66931" lon="1.7334">
        <ele>147</ele>
        <time>2012-03-15T12:04:13.000Z</time>
      </trkpt>
      <trkpt lat="48.66932" lon="1.73331">
        <ele>146.60000610352</ele>
        <time>2012-03-15T12:04:18.000Z</time>
      </trkpt>
      <trkpt lat="48.6693" lon="1.73316">
        <ele>145.60000610352</ele>
        <time>2012-03-15T12:04:26.000Z</time>
      </trkpt>
      <trkpt lat="48.66924" lon="1.73301">
        <ele>144.60000610352</ele>
        <time>2012-03-15T12:04:35.000Z</time>
      </trkpt>
      <trkpt lat="48.66917" lon="1.73289">
        <ele>143.80000305176</ele>
        <time>2012-03-15T12:04:42.000Z</time>
      </trkpt>
      <trkpt lat="48.66908" lon="1.73278">
        <ele>143.19999694824</ele>
        <time>2012-03-15T12:04:51.000Z</time>
      </trkpt>
      <trkpt lat="48.66899" lon="1.7327">
        <ele>143</ele>
        <time>2012-03-15T12:04:59.000Z</time>
      </trkpt>
      <trkpt lat="48.66887" lon="1.73265">
        <ele>143</ele>
        <time>2012-03-15T12:05:09.000Z</time>
      </trkpt>
      <trkpt lat="48.66876" lon="1.73266">
        <ele>143.19999694824</ele>
        <time>2012-03-15T12:05:17.000Z</time>
      </trkpt>
      <trkpt lat="48.66864" lon="1.73269">
        <ele>143.80000305176</ele>
        <time>2012-03-15T12:05:26.000Z</time>
      </trkpt>
      <trkpt lat="48.66854" lon="1.73271">
        <ele>144.19999694824</ele>
        <time>2012-03-15T12:05:34.000Z</time>
      </trkpt>
      <trkpt lat="48.66846" lon="1.73272">
        <ele>144.60000610352</ele>
        <time>2012-03-15T12:05:40.000Z</time>
      </trkpt>
      <trkpt lat="48.66842" lon="1.73271">
        <ele>144.60000610352</ele>
        <time>2012-03-15T12:05:44.000Z</time>
      </trkpt>
      <trkpt lat="48.66837" lon="1.73264">
        <ele>144</ele>
        <time>2012-03-15T12:05:50.000Z</time>
      </trkpt>
      <trkpt lat="48.66834" lon="1.7326">
        <ele>143.80000305176</ele>
        <time>2012-03-15T12:05:53.000Z</time>
      </trkpt>
      <trkpt lat="48.66827" lon="1.7325">
        <ele>143.39999389648</ele>
        <time>2012-03-15T12:06:01.000Z</time>
      </trkpt>
      <trkpt lat="48.66816" lon="1.73237">
        <ele>143.19999694824</ele>
        <time>2012-03-15T12:06:11.000Z</time>
      </trkpt>
      <trkpt lat="48.66809" lon="1.7323">
        <ele>143.19999694824</ele>
        <time>2012-03-15T12:06:17.000Z</time>
      </trkpt>
      <trkpt lat="48.66794" lon="1.73216">
        <ele>143.39999389648</ele>
        <time>2012-03-15T12:06:30.000Z</time>
      </trkpt>
      <trkpt lat="48.66783" lon="1.7321">
        <ele>143.60000610352</ele>
        <time>2012-03-15T12:06:39.000Z</time>
      </trkpt>
      <trkpt lat="48.66773" lon="1.73204">
        <ele>143.80000305176</ele>
        <time>2012-03-15T12:06:47.000Z</time>
      </trkpt>
      <trkpt lat="48.66765" lon="1.73196">
        <ele>143.80000305176</ele>
        <time>2012-03-15T12:06:53.000Z</time>
      </trkpt>
      <trkpt lat="48.66755" lon="1.7319">
        <ele>144</ele>
        <time>2012-03-15T12:06:59.000Z</time>
      </trkpt>
      <trkpt lat="48.66743" lon="1.73184">
        <ele>144.19999694824</ele>
        <time>2012-03-15T12:07:08.000Z</time>
      </trkpt>
      <trkpt lat="48.66732" lon="1.73177">
        <ele>144</ele>
        <time>2012-03-15T12:07:16.000Z</time>
      </trkpt>
      <trkpt lat="48.66731" lon="1.73178">
        <ele>144</ele>
        <time>2012-03-15T12:07:18.000Z</time>
      </trkpt>
      <trkpt lat="48.66728" lon="1.73181">
        <ele>144.19999694824</ele>
        <time>2012-03-15T12:07:24.000Z</time>
      </trkpt>
      <trkpt lat="48.66727" lon="1.73172">
        <ele>143.80000305176</ele>
        <time>2012-03-15T12:07:43.000Z</time>
      </trkpt>
      <trkpt lat="48.66726" lon="1.73163">
        <ele>143.39999389648</ele>
        <time>2012-03-15T12:07:47.000Z</time>
      </trkpt>
      <trkpt lat="48.66723" lon="1.73156">
        <ele>143.39999389648</ele>
        <time>2012-03-15T12:07:51.000Z</time>
      </trkpt>
      <trkpt lat="48.66721" lon="1.73148">
        <ele>143.19999694824</ele>
        <time>2012-03-15T12:07:56.000Z</time>
      </trkpt>
      <trkpt lat="48.66713" lon="1.73141">
        <ele>143</ele>
        <time>2012-03-15T12:08:02.000Z</time>
      </trkpt>
      <trkpt lat="48.66712" lon="1.73141">
        <ele>143.19999694824</ele>
        <time>2012-03-15T12:08:03.000Z</time>
      </trkpt>
      <trkpt lat="48.66705" lon="1.73145">
        <ele>143.39999389648</ele>
        <time>2012-03-15T12:08:09.000Z</time>
      </trkpt>
      <trkpt lat="48.66701" lon="1.73149">
        <ele>143.60000610352</ele>
        <time>2012-03-15T12:08:12.000Z</time>
      </trkpt>
      <trkpt lat="48.66697" lon="1.73157">
        <ele>144</ele>
        <time>2012-03-15T12:08:18.000Z</time>
      </trkpt>
      <trkpt lat="48.66694" lon="1.73168">
        <ele>144.39999389648</ele>
        <time>2012-03-15T12:08:24.000Z</time>
      </trkpt>
      <trkpt lat="48.66689" lon="1.7318">
        <ele>145</ele>
        <time>2012-03-15T12:08:30.000Z</time>
      </trkpt>
      <trkpt lat="48.66687" lon="1.73189">
        <ele>145.19999694824</ele>
        <time>2012-03-15T12:08:36.000Z</time>
      </trkpt>
      <trkpt lat="48.66686" lon="1.73192">
        <ele>145.39999389648</ele>
        <time>2012-03-15T12:08:39.000Z</time>
      </trkpt>
      <trkpt lat="48.66685" lon="1.73193">
        <ele>145.39999389648</ele>
        <time>2012-03-15T12:08:42.000Z</time>
      </trkpt>
      <trkpt lat="48.6668" lon="1.73206">
        <ele>145.80000305176</ele>
        <time>2012-03-15T12:09:08.000Z</time>
      </trkpt>
      <trkpt lat="48.66676" lon="1.73222">
        <ele>146.39999389648</ele>
        <time>2012-03-15T12:09:16.000Z</time>
      </trkpt>
      <trkpt lat="48.66672" lon="1.73237">
        <ele>146.80000305176</ele>
        <time>2012-03-15T12:09:24.000Z</time>
      </trkpt>
      <trkpt lat="48.66672" lon="1.73239">
        <ele>146.80000305176</ele>
        <time>2012-03-15T12:09:25.000Z</time>
      </trkpt>
      <trkpt lat="48.66665" lon="1.73256">
        <ele>147</ele>
        <time>2012-03-15T12:09:33.000Z</time>
      </trkpt>
      <trkpt lat="48.66661" lon="1.73269">
        <ele>146.80000305176</ele>
        <time>2012-03-15T12:09:39.000Z</time>
      </trkpt>
      <trkpt lat="48.66656" lon="1.73283">
        <ele>146.80000305176</ele>
        <time>2012-03-15T12:09:46.000Z</time>
      </trkpt>
      <trkpt lat="48.66652" lon="1.73298">
        <ele>146.80000305176</ele>
        <time>2012-03-15T12:09:53.000Z</time>
      </trkpt>
      <trkpt lat="48.66648" lon="1.73311">
        <ele>146.60000610352</ele>
        <time>2012-03-15T12:09:59.000Z</time>
      </trkpt>
      <trkpt lat="48.66645" lon="1.73325">
        <ele>146.60000610352</ele>
        <time>2012-03-15T12:10:06.000Z</time>
      </trkpt>
      <trkpt lat="48.66639" lon="1.73341">
        <ele>146.39999389648</ele>
        <time>2012-03-15T12:10:13.000Z</time>
      </trkpt>
      <trkpt lat="48.66634" lon="1.73355">
        <ele>146.39999389648</ele>
        <time>2012-03-15T12:10:20.000Z</time>
      </trkpt>
      <trkpt lat="48.66629" lon="1.73366">
        <ele>146.19999694824</ele>
        <time>2012-03-15T12:10:26.000Z</time>
      </trkpt>
      <trkpt lat="48.66626" lon="1.73376">
        <ele>146</ele>
        <time>2012-03-15T12:10:32.000Z</time>
      </trkpt>
      <trkpt lat="48.66623" lon="1.73392">
        <ele>146</ele>
        <time>2012-03-15T12:10:40.000Z</time>
      </trkpt>
      <trkpt lat="48.66618" lon="1.73409">
        <ele>146</ele>
        <time>2012-03-15T12:10:49.000Z</time>
      </trkpt>
      <trkpt lat="48.66613" lon="1.7342">
        <ele>145.80000305176</ele>
        <time>2012-03-15T12:10:56.000Z</time>
      </trkpt>
      <trkpt lat="48.66606" lon="1.73436">
        <ele>145.80000305176</ele>
        <time>2012-03-15T12:11:05.000Z</time>
      </trkpt>
      <trkpt lat="48.66601" lon="1.7345">
        <ele>145.60000610352</ele>
        <time>2012-03-15T12:11:13.000Z</time>
      </trkpt>
      <trkpt lat="48.66596" lon="1.73458">
        <ele>145.39999389648</ele>
        <time>2012-03-15T12:11:18.000Z</time>
      </trkpt>
      <trkpt lat="48.6659" lon="1.73463">
        <ele>145</ele>
        <time>2012-03-15T12:11:24.000Z</time>
      </trkpt>
      <trkpt lat="48.66575" lon="1.73465">
        <ele>145</ele>
        <time>2012-03-15T12:11:34.000Z</time>
      </trkpt>
      <trkpt lat="48.66564" lon="1.73461">
        <ele>145.60000610352</ele>
        <time>2012-03-15T12:11:43.000Z</time>
      </trkpt>
      <trkpt lat="48.66556" lon="1.73446">
        <ele>146</ele>
        <time>2012-03-15T12:11:53.000Z</time>
      </trkpt>
      <trkpt lat="48.66551" lon="1.73429">
        <ele>146.39999389648</ele>
        <time>2012-03-15T12:12:02.000Z</time>
      </trkpt>
      <trkpt lat="48.66544" lon="1.73411">
        <ele>146.80000305176</ele>
        <time>2012-03-15T12:12:12.000Z</time>
      </trkpt>
      <trkpt lat="48.66542" lon="1.73408">
        <ele>147</ele>
        <time>2012-03-15T12:12:14.000Z</time>
      </trkpt>
      <trkpt lat="48.66539" lon="1.73393">
        <ele>147.19999694824</ele>
        <time>2012-03-15T12:12:20.000Z</time>
      </trkpt>
      <trkpt lat="48.66533" lon="1.73374">
        <ele>147.80000305176</ele>
        <time>2012-03-15T12:12:27.000Z</time>
      </trkpt>
      <trkpt lat="48.66529" lon="1.73364">
        <ele>148</ele>
        <time>2012-03-15T12:12:33.000Z</time>
      </trkpt>
      <trkpt lat="48.66526" lon="1.73349">
        <ele>148.39999389648</ele>
        <time>2012-03-15T12:12:40.000Z</time>
      </trkpt>
      <trkpt lat="48.66522" lon="1.73339">
        <ele>148.80000305176</ele>
        <time>2012-03-15T12:12:45.000Z</time>
      </trkpt>
      <trkpt lat="48.66518" lon="1.7333">
        <ele>149.19999694824</ele>
        <time>2012-03-15T12:12:50.000Z</time>
      </trkpt>
      <trkpt lat="48.66515" lon="1.73319">
        <ele>149.19999694824</ele>
        <time>2012-03-15T12:12:56.000Z</time>
      </trkpt>
      <trkpt lat="48.66511" lon="1.73304">
        <ele>149.19999694824</ele>
        <time>2012-03-15T12:13:04.000Z</time>
      </trkpt>
      <trkpt lat="48.66504" lon="1.73286">
        <ele>149.39999389648</ele>
        <time>2012-03-15T12:13:13.000Z</time>
      </trkpt>
      <trkpt lat="48.665" lon="1.73275">
        <ele>149.60000610352</ele>
        <time>2012-03-15T12:13:18.000Z</time>
      </trkpt>
      <trkpt lat="48.66497" lon="1.73266">
        <ele>150</ele>
        <time>2012-03-15T12:13:23.000Z</time>
      </trkpt>
      <trkpt lat="48.66491" lon="1.73254">
        <ele>150.80000305176</ele>
        <time>2012-03-15T12:13:30.000Z</time>
      </trkpt>
      <trkpt lat="48.66486" lon="1.7324">
        <ele>151.19999694824</ele>
        <time>2012-03-15T12:13:38.000Z</time>
      </trkpt>
      <trkpt lat="48.66482" lon="1.73226">
        <ele>151.39999389648</ele>
        <time>2012-03-15T12:13:47.000Z</time>
      </trkpt>
      <trkpt lat="48.66475" lon="1.73207">
        <ele>152</ele>
        <time>2012-03-15T12:13:56.000Z</time>
      </trkpt>
      <trkpt lat="48.66468" lon="1.73192">
        <ele>152.80000305176</ele>
        <time>2012-03-15T12:14:04.000Z</time>
      </trkpt>
      <trkpt lat="48.66461" lon="1.73172">
        <ele>153.60000610352</ele>
        <time>2012-03-15T12:14:13.000Z</time>
      </trkpt>
      <trkpt lat="48.66457" lon="1.73158">
        <ele>154.39999389648</ele>
        <time>2012-03-15T12:14:21.000Z</time>
      </trkpt>
      <trkpt lat="48.66452" lon="1.73144">
        <ele>155</ele>
        <time>2012-03-15T12:14:29.000Z</time>
      </trkpt>
      <trkpt lat="48.66447" lon="1.73128">
        <ele>155.80000305176</ele>
        <time>2012-03-15T12:14:39.000Z</time>
      </trkpt>
      <trkpt lat="48.66442" lon="1.73112">
        <ele>156.19999694824</ele>
        <time>2012-03-15T12:14:48.000Z</time>
      </trkpt>
      <trkpt lat="48.66436" lon="1.73095">
        <ele>156.80000305176</ele>
        <time>2012-03-15T12:14:58.000Z</time>
      </trkpt>
      <trkpt lat="48.66431" lon="1.73077">
        <ele>156.80000305176</ele>
        <time>2012-03-15T12:15:08.000Z</time>
      </trkpt>
      <trkpt lat="48.66427" lon="1.73064">
        <ele>156.60000610352</ele>
        <time>2012-03-15T12:15:15.000Z</time>
      </trkpt>
      <trkpt lat="48.66426" lon="1.7306">
        <ele>156.60000610352</ele>
        <time>2012-03-15T12:15:18.000Z</time>
      </trkpt>
      <trkpt lat="48.66419" lon="1.73048">
        <ele>156.60000610352</ele>
        <time>2012-03-15T12:15:26.000Z</time>
      </trkpt>
      <trkpt lat="48.66413" lon="1.73032">
        <ele>156</ele>
        <time>2012-03-15T12:15:34.000Z</time>
      </trkpt>
      <trkpt lat="48.66408" lon="1.73018">
        <ele>155.39999389648</ele>
        <time>2012-03-15T12:15:41.000Z</time>
      </trkpt>
      <trkpt lat="48.66402" lon="1.73">
        <ele>154.60000610352</ele>
        <time>2012-03-15T12:15:50.000Z</time>
      </trkpt>
      <trkpt lat="48.66397" lon="1.7298">
        <ele>154.19999694824</ele>
        <time>2012-03-15T12:16:00.000Z</time>
      </trkpt>
      <trkpt lat="48.66391" lon="1.72962">
        <ele>154</ele>
        <time>2012-03-15T12:16:09.000Z</time>
      </trkpt>
      <trkpt lat="48.66386" lon="1.72949">
        <ele>153.80000305176</ele>
        <time>2012-03-15T12:16:17.000Z</time>
      </trkpt>
      <trkpt lat="48.66382" lon="1.72935">
        <ele>153.60000610352</ele>
        <time>2012-03-15T12:16:25.000Z</time>
      </trkpt>
      <trkpt lat="48.66376" lon="1.72921">
        <ele>153.60000610352</ele>
        <time>2012-03-15T12:16:31.000Z</time>
      </trkpt>
      <trkpt lat="48.66373" lon="1.72915">
        <ele>153.39999389648</ele>
        <time>2012-03-15T12:16:35.000Z</time>
      </trkpt>
      <trkpt lat="48.6637" lon="1.72904">
        <ele>153.39999389648</ele>
        <time>2012-03-15T12:16:39.000Z</time>
      </trkpt>
      <trkpt lat="48.66366" lon="1.72891">
        <ele>153.19999694824</ele>
        <time>2012-03-15T12:16:45.000Z</time>
      </trkpt>
      <trkpt lat="48.66365" lon="1.72889">
        <ele>153.19999694824</ele>
        <time>2012-03-15T12:16:46.000Z</time>
      </trkpt>
      <trkpt lat="48.66359" lon="1.7287">
        <ele>153.19999694824</ele>
        <time>2012-03-15T12:16:54.000Z</time>
      </trkpt>
      <trkpt lat="48.66353" lon="1.72851">
        <ele>153.39999389648</ele>
        <time>2012-03-15T12:17:03.000Z</time>
      </trkpt>
      <trkpt lat="48.66346" lon="1.72832">
        <ele>153.80000305176</ele>
        <time>2012-03-15T12:17:13.000Z</time>
      </trkpt>
      <trkpt lat="48.66342" lon="1.72824">
        <ele>154.19999694824</ele>
        <time>2012-03-15T12:17:18.000Z</time>
      </trkpt>
      <trkpt lat="48.66337" lon="1.72813">
        <ele>154.60000610352</ele>
        <time>2012-03-15T12:17:25.000Z</time>
      </trkpt>
      <trkpt lat="48.66334" lon="1.728">
        <ele>154.80000305176</ele>
        <time>2012-03-15T12:17:31.000Z</time>
      </trkpt>
      <trkpt lat="48.66331" lon="1.72788">
        <ele>155.19999694824</ele>
        <time>2012-03-15T12:17:36.000Z</time>
      </trkpt>
      <trkpt lat="48.66327" lon="1.72776">
        <ele>155.60000610352</ele>
        <time>2012-03-15T12:17:42.000Z</time>
      </trkpt>
      <trkpt lat="48.66326" lon="1.72767">
        <ele>155.60000610352</ele>
        <time>2012-03-15T12:17:48.000Z</time>
      </trkpt>
      <trkpt lat="48.66323" lon="1.72759">
        <ele>156</ele>
        <time>2012-03-15T12:17:53.000Z</time>
      </trkpt>
      <trkpt lat="48.66319" lon="1.72746">
        <ele>156.39999389648</ele>
        <time>2012-03-15T12:18:00.000Z</time>
      </trkpt>
      <trkpt lat="48.66314" lon="1.72734">
        <ele>157.19999694824</ele>
        <time>2012-03-15T12:18:07.000Z</time>
      </trkpt>
      <trkpt lat="48.66311" lon="1.72724">
        <ele>157.60000610352</ele>
        <time>2012-03-15T12:18:12.000Z</time>
      </trkpt>
      <trkpt lat="48.66305" lon="1.72711">
        <ele>158.39999389648</ele>
        <time>2012-03-15T12:18:20.000Z</time>
      </trkpt>
      <trkpt lat="48.66302" lon="1.72704">
        <ele>158.80000305176</ele>
        <time>2012-03-15T12:18:24.000Z</time>
      </trkpt>
      <trkpt lat="48.66301" lon="1.72696">
        <ele>159</ele>
        <time>2012-03-15T12:18:29.000Z</time>
      </trkpt>
      <trkpt lat="48.66298" lon="1.72686">
        <ele>159.60000610352</ele>
        <time>2012-03-15T12:18:35.000Z</time>
      </trkpt>
      <trkpt lat="48.66292" lon="1.72672">
        <ele>160.39999389648</ele>
        <time>2012-03-15T12:18:43.000Z</time>
      </trkpt>
      <trkpt lat="48.66289" lon="1.7266">
        <ele>160.60000610352</ele>
        <time>2012-03-15T12:18:50.000Z</time>
      </trkpt>
      <trkpt lat="48.66286" lon="1.72651">
        <ele>160.80000305176</ele>
        <time>2012-03-15T12:18:55.000Z</time>
      </trkpt>
      <trkpt lat="48.66281" lon="1.72638">
        <ele>160.80000305176</ele>
        <time>2012-03-15T12:19:02.000Z</time>
      </trkpt>
      <trkpt lat="48.66277" lon="1.72624">
        <ele>160.80000305176</ele>
        <time>2012-03-15T12:19:10.000Z</time>
      </trkpt>
      <trkpt lat="48.66274" lon="1.72614">
        <ele>161</ele>
        <time>2012-03-15T12:19:15.000Z</time>
      </trkpt>
      <trkpt lat="48.66271" lon="1.72605">
        <ele>161</ele>
        <time>2012-03-15T12:19:20.000Z</time>
      </trkpt>
      <trkpt lat="48.66266" lon="1.72593">
        <ele>161</ele>
        <time>2012-03-15T12:19:27.000Z</time>
      </trkpt>
      <trkpt lat="48.66261" lon="1.7258">
        <ele>160.80000305176</ele>
        <time>2012-03-15T12:19:35.000Z</time>
      </trkpt>
      <trkpt lat="48.66256" lon="1.7257">
        <ele>160.39999389648</ele>
        <time>2012-03-15T12:19:41.000Z</time>
      </trkpt>
      <trkpt lat="48.66251" lon="1.72554">
        <ele>159.39999389648</ele>
        <time>2012-03-15T12:19:50.000Z</time>
      </trkpt>
      <trkpt lat="48.66247" lon="1.72542">
        <ele>158.60000610352</ele>
        <time>2012-03-15T12:19:57.000Z</time>
      </trkpt>
      <trkpt lat="48.66246" lon="1.7254">
        <ele>158.60000610352</ele>
        <time>2012-03-15T12:19:58.000Z</time>
      </trkpt>
      <trkpt lat="48.66242" lon="1.72525">
        <ele>157.60000610352</ele>
        <time>2012-03-15T12:20:06.000Z</time>
      </trkpt>
      <trkpt lat="48.6624" lon="1.72518">
        <ele>157</ele>
        <time>2012-03-15T12:20:11.000Z</time>
      </trkpt>
      <trkpt lat="48.66235" lon="1.72503">
        <ele>156</ele>
        <time>2012-03-15T12:20:19.000Z</time>
      </trkpt>
      <trkpt lat="48.66232" lon="1.72488">
        <ele>154.80000305176</ele>
        <time>2012-03-15T12:20:26.000Z</time>
      </trkpt>
      <trkpt lat="48.66228" lon="1.72476">
        <ele>154.19999694824</ele>
        <time>2012-03-15T12:20:32.000Z</time>
      </trkpt>
      <trkpt lat="48.66223" lon="1.72456">
        <ele>152.80000305176</ele>
        <time>2012-03-15T12:20:42.000Z</time>
      </trkpt>
      <trkpt lat="48.66219" lon="1.72445">
        <ele>152.19999694824</ele>
        <time>2012-03-15T12:20:48.000Z</time>
      </trkpt>
      <trkpt lat="48.66218" lon="1.72432">
        <ele>151.19999694824</ele>
        <time>2012-03-15T12:20:54.000Z</time>
      </trkpt>
      <trkpt lat="48.66217" lon="1.72416">
        <ele>150</ele>
        <time>2012-03-15T12:20:59.000Z</time>
      </trkpt>
      <trkpt lat="48.6621" lon="1.72386">
        <ele>149.60000610352</ele>
        <time>2012-03-15T12:21:05.000Z</time>
      </trkpt>
      <trkpt lat="48.66207" lon="1.72366">
        <ele>149.39999389648</ele>
        <time>2012-03-15T12:21:09.000Z</time>
      </trkpt>
      <trkpt lat="48.66205" lon="1.72327">
        <ele>148.60000610352</ele>
        <time>2012-03-15T12:21:17.000Z</time>
      </trkpt>
      <trkpt lat="48.66202" lon="1.72294">
        <ele>147.39999389648</ele>
        <time>2012-03-15T12:21:24.000Z</time>
      </trkpt>
      <trkpt lat="48.662" lon="1.72267">
        <ele>146.60000610352</ele>
        <time>2012-03-15T12:21:30.000Z</time>
      </trkpt>
      <trkpt lat="48.66197" lon="1.7224">
        <ele>146</ele>
        <time>2012-03-15T12:21:36.000Z</time>
      </trkpt>
      <trkpt lat="48.66193" lon="1.72206">
        <ele>145.19999694824</ele>
        <time>2012-03-15T12:21:44.000Z</time>
      </trkpt>
      <trkpt lat="48.6619" lon="1.7218">
        <ele>144.60000610352</ele>
        <time>2012-03-15T12:21:50.000Z</time>
      </trkpt>
      <trkpt lat="48.66188" lon="1.72153">
        <ele>144</ele>
        <time>2012-03-15T12:21:56.000Z</time>
      </trkpt>
      <trkpt lat="48.66186" lon="1.72131">
        <ele>143.80000305176</ele>
        <time>2012-03-15T12:22:01.000Z</time>
      </trkpt>
      <trkpt lat="48.66184" lon="1.72098">
        <ele>143.39999389648</ele>
        <time>2012-03-15T12:22:08.000Z</time>
      </trkpt>
      <trkpt lat="48.6618" lon="1.72066">
        <ele>143.39999389648</ele>
        <time>2012-03-15T12:22:15.000Z</time>
      </trkpt>
      <trkpt lat="48.66175" lon="1.72036">
        <ele>143.60000610352</ele>
        <time>2012-03-15T12:22:21.000Z</time>
      </trkpt>
      <trkpt lat="48.6617" lon="1.72006">
        <ele>143.80000305176</ele>
        <time>2012-03-15T12:22:27.000Z</time>
      </trkpt>
      <trkpt lat="48.66164" lon="1.71977">
        <ele>144.39999389648</ele>
        <time>2012-03-15T12:22:33.000Z</time>
      </trkpt>
      <trkpt lat="48.6616" lon="1.71939">
        <ele>145</ele>
        <time>2012-03-15T12:22:40.000Z</time>
      </trkpt>
      <trkpt lat="48.66158" lon="1.71917">
        <ele>145.19999694824</ele>
        <time>2012-03-15T12:22:45.000Z</time>
      </trkpt>
      <trkpt lat="48.66152" lon="1.71897">
        <ele>145.60000610352</ele>
        <time>2012-03-15T12:22:50.000Z</time>
      </trkpt>
      <trkpt lat="48.66144" lon="1.71876">
        <ele>146</ele>
        <time>2012-03-15T12:22:56.000Z</time>
      </trkpt>
      <trkpt lat="48.66144" lon="1.71875">
        <ele>146.19999694824</ele>
        <time>2012-03-15T12:22:57.000Z</time>
      </trkpt>
      <trkpt lat="48.6614" lon="1.71864">
        <ele>146.39999389648</ele>
        <time>2012-03-15T12:23:03.000Z</time>
      </trkpt>
      <trkpt lat="48.66136" lon="1.71853">
        <ele>146.60000610352</ele>
        <time>2012-03-15T12:23:10.000Z</time>
      </trkpt>
      <trkpt lat="48.66134" lon="1.71846">
        <ele>146.80000305176</ele>
        <time>2012-03-15T12:23:13.000Z</time>
      </trkpt>
      <trkpt lat="48.66132" lon="1.71838">
        <ele>147</ele>
        <time>2012-03-15T12:23:17.000Z</time>
      </trkpt>
      <trkpt lat="48.66128" lon="1.71825">
        <ele>147.19999694824</ele>
        <time>2012-03-15T12:23:23.000Z</time>
      </trkpt>
      <trkpt lat="48.66123" lon="1.71813">
        <ele>147.19999694824</ele>
        <time>2012-03-15T12:23:29.000Z</time>
      </trkpt>
      <trkpt lat="48.66119" lon="1.71799">
        <ele>147</ele>
        <time>2012-03-15T12:23:35.000Z</time>
      </trkpt>
      <trkpt lat="48.66116" lon="1.71788">
        <ele>147</ele>
        <time>2012-03-15T12:23:41.000Z</time>
      </trkpt>
      <trkpt lat="48.66112" lon="1.71774">
        <ele>147</ele>
        <time>2012-03-15T12:23:48.000Z</time>
      </trkpt>
      <trkpt lat="48.66107" lon="1.71761">
        <ele>147.19999694824</ele>
        <time>2012-03-15T12:23:55.000Z</time>
      </trkpt>
      <trkpt lat="48.66102" lon="1.71744">
        <ele>147.19999694824</ele>
        <time>2012-03-15T12:24:04.000Z</time>
      </trkpt>
      <trkpt lat="48.66096" lon="1.71733">
        <ele>147.39999389648</ele>
        <time>2012-03-15T12:24:10.000Z</time>
      </trkpt>
      <trkpt lat="48.66093" lon="1.71725">
        <ele>147.39999389648</ele>
        <time>2012-03-15T12:24:14.000Z</time>
      </trkpt>
      <trkpt lat="48.66087" lon="1.7171">
        <ele>147.39999389648</ele>
        <time>2012-03-15T12:24:22.000Z</time>
      </trkpt>
      <trkpt lat="48.66082" lon="1.71696">
        <ele>147.19999694824</ele>
        <time>2012-03-15T12:24:29.000Z</time>
      </trkpt>
      <trkpt lat="48.66078" lon="1.71682">
        <ele>146.80000305176</ele>
        <time>2012-03-15T12:24:36.000Z</time>
      </trkpt>
      <trkpt lat="48.66071" lon="1.71662">
        <ele>146.60000610352</ele>
        <time>2012-03-15T12:24:46.000Z</time>
      </trkpt>
      <trkpt lat="48.66065" lon="1.71649">
        <ele>146.60000610352</ele>
        <time>2012-03-15T12:24:53.000Z</time>
      </trkpt>
      <trkpt lat="48.66064" lon="1.71647">
        <ele>146.60000610352</ele>
        <time>2012-03-15T12:24:54.000Z</time>
      </trkpt>
      <trkpt lat="48.66061" lon="1.71638">
        <ele>146.60000610352</ele>
        <time>2012-03-15T12:24:59.000Z</time>
      </trkpt>
      <trkpt lat="48.66057" lon="1.71631">
        <ele>146.80000305176</ele>
        <time>2012-03-15T12:25:05.000Z</time>
      </trkpt>
      <trkpt lat="48.66055" lon="1.71627">
        <ele>146.80000305176</ele>
        <time>2012-03-15T12:25:07.000Z</time>
      </trkpt>
      <trkpt lat="48.66052" lon="1.71618">
        <ele>146.60000610352</ele>
        <time>2012-03-15T12:25:13.000Z</time>
      </trkpt>
      <trkpt lat="48.6605" lon="1.71615">
        <ele>146.80000305176</ele>
        <time>2012-03-15T12:25:15.000Z</time>
      </trkpt>
      <trkpt lat="48.66045" lon="1.7161">
        <ele>147</ele>
        <time>2012-03-15T12:25:20.000Z</time>
      </trkpt>
      <trkpt lat="48.66039" lon="1.716">
        <ele>147</ele>
        <time>2012-03-15T12:25:27.000Z</time>
      </trkpt>
      <trkpt lat="48.66036" lon="1.71598">
        <ele>147.19999694824</ele>
        <time>2012-03-15T12:25:29.000Z</time>
      </trkpt>
      <trkpt lat="48.66029" lon="1.71585">
        <ele>147.39999389648</ele>
        <time>2012-03-15T12:25:37.000Z</time>
      </trkpt>
      <trkpt lat="48.66023" lon="1.71568">
        <ele>147.39999389648</ele>
        <time>2012-03-15T12:25:45.000Z</time>
      </trkpt>
      <trkpt lat="48.66021" lon="1.71565">
        <ele>147.60000610352</ele>
        <time>2012-03-15T12:25:47.000Z</time>
      </trkpt>
      <trkpt lat="48.66016" lon="1.71549">
        <ele>147.60000610352</ele>
        <time>2012-03-15T12:25:55.000Z</time>
      </trkpt>
      <trkpt lat="48.66013" lon="1.71538">
        <ele>147.60000610352</ele>
        <time>2012-03-15T12:26:00.000Z</time>
      </trkpt>
      <trkpt lat="48.6601" lon="1.71525">
        <ele>147.60000610352</ele>
        <time>2012-03-15T12:26:06.000Z</time>
      </trkpt>
      <trkpt lat="48.6601" lon="1.71522">
        <ele>147.60000610352</ele>
        <time>2012-03-15T12:26:09.000Z</time>
      </trkpt>
      <trkpt lat="48.66008" lon="1.71512">
        <ele>147.60000610352</ele>
        <time>2012-03-15T12:26:14.000Z</time>
      </trkpt>
      <trkpt lat="48.66007" lon="1.71508">
        <ele>147.60000610352</ele>
        <time>2012-03-15T12:26:16.000Z</time>
      </trkpt>
      <trkpt lat="48.66004" lon="1.71493">
        <ele>147.60000610352</ele>
        <time>2012-03-15T12:26:24.000Z</time>
      </trkpt>
      <trkpt lat="48.66003" lon="1.71479">
        <ele>147.60000610352</ele>
        <time>2012-03-15T12:26:31.000Z</time>
      </trkpt>
      <trkpt lat="48.65999" lon="1.71463">
        <ele>147.60000610352</ele>
        <time>2012-03-15T12:26:40.000Z</time>
      </trkpt>
      <trkpt lat="48.65996" lon="1.71449">
        <ele>147.60000610352</ele>
        <time>2012-03-15T12:26:47.000Z</time>
      </trkpt>
      <trkpt lat="48.65995" lon="1.71438">
        <ele>147.60000610352</ele>
        <time>2012-03-15T12:26:52.000Z</time>
      </trkpt>
      <trkpt lat="48.65992" lon="1.71428">
        <ele>147.60000610352</ele>
        <time>2012-03-15T12:26:58.000Z</time>
      </trkpt>
      <trkpt lat="48.6599" lon="1.71421">
        <ele>147.60000610352</ele>
        <time>2012-03-15T12:27:01.000Z</time>
      </trkpt>
      <trkpt lat="48.65988" lon="1.71419">
        <ele>147.80000305176</ele>
        <time>2012-03-15T12:27:06.000Z</time>
      </trkpt>
      <trkpt lat="48.65965" lon="1.71412">
        <ele>149.19999694824</ele>
        <time>2012-03-15T12:28:23.000Z</time>
      </trkpt>
      <trkpt lat="48.65954" lon="1.71411">
        <ele>149.80000305176</ele>
        <time>2012-03-15T12:28:31.000Z</time>
      </trkpt>
      <trkpt lat="48.65941" lon="1.71412">
        <ele>150.60000610352</ele>
        <time>2012-03-15T12:28:41.000Z</time>
      </trkpt>
      <trkpt lat="48.65939" lon="1.71412">
        <ele>150.60000610352</ele>
        <time>2012-03-15T12:28:43.000Z</time>
      </trkpt>
      <trkpt lat="48.65929" lon="1.71411">
        <ele>151.19999694824</ele>
        <time>2012-03-15T12:28:51.000Z</time>
      </trkpt>
      <trkpt lat="48.65917" lon="1.7141">
        <ele>152</ele>
        <time>2012-03-15T12:29:00.000Z</time>
      </trkpt>
      <trkpt lat="48.65913" lon="1.7141">
        <ele>152.39999389648</ele>
        <time>2012-03-15T12:29:03.000Z</time>
      </trkpt>
      <trkpt lat="48.65907" lon="1.71409">
        <ele>152.80000305176</ele>
        <time>2012-03-15T12:29:07.000Z</time>
      </trkpt>
      <trkpt lat="48.65902" lon="1.71408">
        <ele>153.39999389648</ele>
        <time>2012-03-15T12:29:12.000Z</time>
      </trkpt>
      <trkpt lat="48.65888" lon="1.71407">
        <ele>154.60000610352</ele>
        <time>2012-03-15T12:29:23.000Z</time>
      </trkpt>
      <trkpt lat="48.65887" lon="1.71408">
        <ele>154.60000610352</ele>
        <time>2012-03-15T12:29:26.000Z</time>
      </trkpt>
      <trkpt lat="48.65879" lon="1.71405">
        <ele>155.60000610352</ele>
        <time>2012-03-15T12:29:37.000Z</time>
      </trkpt>
      <trkpt lat="48.6587" lon="1.71402">
        <ele>156.60000610352</ele>
        <time>2012-03-15T12:29:43.000Z</time>
      </trkpt>
      <trkpt lat="48.65861" lon="1.714">
        <ele>157.39999389648</ele>
        <time>2012-03-15T12:29:50.000Z</time>
      </trkpt>
      <trkpt lat="48.6586" lon="1.714">
        <ele>157.60000610352</ele>
        <time>2012-03-15T12:29:51.000Z</time>
      </trkpt>
      <trkpt lat="48.65848" lon="1.71398">
        <ele>159</ele>
        <time>2012-03-15T12:30:00.000Z</time>
      </trkpt>
      <trkpt lat="48.65841" lon="1.71398">
        <ele>159.60000610352</ele>
        <time>2012-03-15T12:30:05.000Z</time>
      </trkpt>
      <trkpt lat="48.65832" lon="1.71399">
        <ele>160.39999389648</ele>
        <time>2012-03-15T12:30:12.000Z</time>
      </trkpt>
      <trkpt lat="48.65823" lon="1.71399">
        <ele>161.19999694824</ele>
        <time>2012-03-15T12:30:18.000Z</time>
      </trkpt>
      <trkpt lat="48.65813" lon="1.71398">
        <ele>162.19999694824</ele>
        <time>2012-03-15T12:30:25.000Z</time>
      </trkpt>
      <trkpt lat="48.65807" lon="1.71395">
        <ele>163</ele>
        <time>2012-03-15T12:30:30.000Z</time>
      </trkpt>
      <trkpt lat="48.65799" lon="1.71393">
        <ele>163.80000305176</ele>
        <time>2012-03-15T12:30:36.000Z</time>
      </trkpt>
      <trkpt lat="48.65789" lon="1.71389">
        <ele>165.19999694824</ele>
        <time>2012-03-15T12:30:44.000Z</time>
      </trkpt>
      <trkpt lat="48.65781" lon="1.71384">
        <ele>166.19999694824</ele>
        <time>2012-03-15T12:30:50.000Z</time>
      </trkpt>
      <trkpt lat="48.65777" lon="1.71381">
        <ele>166.80000305176</ele>
        <time>2012-03-15T12:30:54.000Z</time>
      </trkpt>
      <trkpt lat="48.65775" lon="1.71381">
        <ele>166.80000305176</ele>
        <time>2012-03-15T12:30:55.000Z</time>
      </trkpt>
      <trkpt lat="48.65767" lon="1.7138">
        <ele>167.60000610352</ele>
        <time>2012-03-15T12:31:01.000Z</time>
      </trkpt>
      <trkpt lat="48.65756" lon="1.71375">
        <ele>169</ele>
        <time>2012-03-15T12:31:10.000Z</time>
      </trkpt>
      <trkpt lat="48.65747" lon="1.71373">
        <ele>169.80000305176</ele>
        <time>2012-03-15T12:31:17.000Z</time>
      </trkpt>
      <trkpt lat="48.65741" lon="1.71373">
        <ele>170.19999694824</ele>
        <time>2012-03-15T12:31:23.000Z</time>
      </trkpt>
      <trkpt lat="48.65732" lon="1.71374">
        <ele>170.60000610352</ele>
        <time>2012-03-15T12:31:29.000Z</time>
      </trkpt>
      <trkpt lat="48.65729" lon="1.71373">
        <ele>170.80000305176</ele>
        <time>2012-03-15T12:31:31.000Z</time>
      </trkpt>
      <trkpt lat="48.65722" lon="1.71372">
        <ele>171.19999694824</ele>
        <time>2012-03-15T12:31:36.000Z</time>
      </trkpt>
      <trkpt lat="48.65708" lon="1.7137">
        <ele>172</ele>
        <time>2012-03-15T12:31:47.000Z</time>
      </trkpt>
      <trkpt lat="48.65699" lon="1.71366">
        <ele>172.60000610352</ele>
        <time>2012-03-15T12:31:54.000Z</time>
      </trkpt>
      <trkpt lat="48.65697" lon="1.71365">
        <ele>172.80000305176</ele>
        <time>2012-03-15T12:31:57.000Z</time>
      </trkpt>
      <trkpt lat="48.65687" lon="1.71363">
        <ele>173.39999389648</ele>
        <time>2012-03-15T12:32:04.000Z</time>
      </trkpt>
      <trkpt lat="48.65675" lon="1.71362">
        <ele>174</ele>
        <time>2012-03-15T12:32:12.000Z</time>
      </trkpt>
      <trkpt lat="48.65668" lon="1.71361">
        <ele>174.19999694824</ele>
        <time>2012-03-15T12:32:17.000Z</time>
      </trkpt>
      <trkpt lat="48.65657" lon="1.71361">
        <ele>174.39999389648</ele>
        <time>2012-03-15T12:32:25.000Z</time>
      </trkpt>
      <trkpt lat="48.65648" lon="1.71362">
        <ele>174.60000610352</ele>
        <time>2012-03-15T12:32:32.000Z</time>
      </trkpt>
      <trkpt lat="48.65637" lon="1.71362">
        <ele>174.60000610352</ele>
        <time>2012-03-15T12:32:40.000Z</time>
      </trkpt>
      <trkpt lat="48.65629" lon="1.71361">
        <ele>174.80000305176</ele>
        <time>2012-03-15T12:32:47.000Z</time>
      </trkpt>
      <trkpt lat="48.65621" lon="1.71362">
        <ele>174.80000305176</ele>
        <time>2012-03-15T12:32:53.000Z</time>
      </trkpt>
      <trkpt lat="48.65611" lon="1.71363">
        <ele>175</ele>
        <time>2012-03-15T12:33:00.000Z</time>
      </trkpt>
      <trkpt lat="48.65604" lon="1.71365">
        <ele>175</ele>
        <time>2012-03-15T12:33:07.000Z</time>
      </trkpt>
      <trkpt lat="48.65603" lon="1.71365">
        <ele>175</ele>
        <time>2012-03-15T12:33:11.000Z</time>
      </trkpt>
      <trkpt lat="48.65593" lon="1.71365">
        <ele>175.19999694824</ele>
        <time>2012-03-15T12:33:21.000Z</time>
      </trkpt>
      <trkpt lat="48.6559" lon="1.71366">
        <ele>175.19999694824</ele>
        <time>2012-03-15T12:33:25.000Z</time>
      </trkpt>
      <trkpt lat="48.6559" lon="1.71366">
        <ele>175.19999694824</ele>
        <time>2012-03-15T12:33:26.000Z</time>
      </trkpt>
      <trkpt lat="48.65579" lon="1.71362">
        <ele>175.19999694824</ele>
        <time>2012-03-15T12:34:26.000Z</time>
      </trkpt>
      <trkpt lat="48.65571" lon="1.7136">
        <ele>174.80000305176</ele>
        <time>2012-03-15T12:34:32.000Z</time>
      </trkpt>
      <trkpt lat="48.65567" lon="1.71366">
        <ele>174.60000610352</ele>
        <time>2012-03-15T12:34:42.000Z</time>
      </trkpt>
      <trkpt lat="48.65562" lon="1.71363">
        <ele>174.39999389648</ele>
        <time>2012-03-15T12:34:48.000Z</time>
      </trkpt>
      <trkpt lat="48.65552" lon="1.71358">
        <ele>174</ele>
        <time>2012-03-15T12:34:55.000Z</time>
      </trkpt>
      <trkpt lat="48.65544" lon="1.7135">
        <ele>173.80000305176</ele>
        <time>2012-03-15T12:35:02.000Z</time>
      </trkpt>
      <trkpt lat="48.65537" lon="1.71338">
        <ele>173.80000305176</ele>
        <time>2012-03-15T12:35:10.000Z</time>
      </trkpt>
      <trkpt lat="48.65531" lon="1.71335">
        <ele>173.39999389648</ele>
        <time>2012-03-15T12:35:15.000Z</time>
      </trkpt>
      <trkpt lat="48.65522" lon="1.71331">
        <ele>173</ele>
        <time>2012-03-15T12:35:23.000Z</time>
      </trkpt>
      <trkpt lat="48.65509" lon="1.71326">
        <ele>172.39999389648</ele>
        <time>2012-03-15T12:35:33.000Z</time>
      </trkpt>
      <trkpt lat="48.65507" lon="1.71324">
        <ele>172.39999389648</ele>
        <time>2012-03-15T12:35:35.000Z</time>
      </trkpt>
      <trkpt lat="48.65497" lon="1.71328">
        <ele>171.80000305176</ele>
        <time>2012-03-15T12:35:43.000Z</time>
      </trkpt>
      <trkpt lat="48.65487" lon="1.71337">
        <ele>171.60000610352</ele>
        <time>2012-03-15T12:35:52.000Z</time>
      </trkpt>
      <trkpt lat="48.65481" lon="1.71349">
        <ele>171.19999694824</ele>
        <time>2012-03-15T12:36:00.000Z</time>
      </trkpt>
      <trkpt lat="48.65477" lon="1.71358">
        <ele>171</ele>
        <time>2012-03-15T12:36:07.000Z</time>
      </trkpt>
      <trkpt lat="48.65468" lon="1.71368">
        <ele>170.80000305176</ele>
        <time>2012-03-15T12:36:15.000Z</time>
      </trkpt>
      <trkpt lat="48.6546" lon="1.71376">
        <ele>170.60000610352</ele>
        <time>2012-03-15T12:36:22.000Z</time>
      </trkpt>
      <trkpt lat="48.65455" lon="1.7138">
        <ele>170.39999389648</ele>
        <time>2012-03-15T12:36:26.000Z</time>
      </trkpt>
      <trkpt lat="48.65444" lon="1.71385">
        <ele>170.19999694824</ele>
        <time>2012-03-15T12:36:34.000Z</time>
      </trkpt>
      <trkpt lat="48.65438" lon="1.7139">
        <ele>170.19999694824</ele>
        <time>2012-03-15T12:36:39.000Z</time>
      </trkpt>
      <trkpt lat="48.65433" lon="1.71403">
        <ele>170.19999694824</ele>
        <time>2012-03-15T12:36:47.000Z</time>
      </trkpt>
      <trkpt lat="48.65427" lon="1.71417">
        <ele>170.19999694824</ele>
        <time>2012-03-15T12:36:55.000Z</time>
      </trkpt>
      <trkpt lat="48.65421" lon="1.71422">
        <ele>170</ele>
        <time>2012-03-15T12:37:02.000Z</time>
      </trkpt>
      <trkpt lat="48.65408" lon="1.71424">
        <ele>169.80000305176</ele>
        <time>2012-03-15T12:37:11.000Z</time>
      </trkpt>
      <trkpt lat="48.65398" lon="1.71425">
        <ele>169.39999389648</ele>
        <time>2012-03-15T12:37:19.000Z</time>
      </trkpt>
      <trkpt lat="48.65385" lon="1.71431">
        <ele>169</ele>
        <time>2012-03-15T12:37:29.000Z</time>
      </trkpt>
      <trkpt lat="48.65375" lon="1.71442">
        <ele>168.80000305176</ele>
        <time>2012-03-15T12:37:37.000Z</time>
      </trkpt>
      <trkpt lat="48.6537" lon="1.71456">
        <ele>168.80000305176</ele>
        <time>2012-03-15T12:37:45.000Z</time>
      </trkpt>
      <trkpt lat="48.65374" lon="1.71471">
        <ele>169.19999694824</ele>
        <time>2012-03-15T12:37:53.000Z</time>
      </trkpt>
      <trkpt lat="48.65378" lon="1.71481">
        <ele>169.39999389648</ele>
        <time>2012-03-15T12:37:58.000Z</time>
      </trkpt>
      <trkpt lat="48.65381" lon="1.71493">
        <ele>169.39999389648</ele>
        <time>2012-03-15T12:38:04.000Z</time>
      </trkpt>
      <trkpt lat="48.65386" lon="1.71504">
        <ele>169.60000610352</ele>
        <time>2012-03-15T12:38:10.000Z</time>
      </trkpt>
      <trkpt lat="48.65391" lon="1.71518">
        <ele>169.39999389648</ele>
        <time>2012-03-15T12:38:17.000Z</time>
      </trkpt>
      <trkpt lat="48.65395" lon="1.71533">
        <ele>169.39999389648</ele>
        <time>2012-03-15T12:38:25.000Z</time>
      </trkpt>
      <trkpt lat="48.654" lon="1.71543">
        <ele>169.19999694824</ele>
        <time>2012-03-15T12:38:31.000Z</time>
      </trkpt>
      <trkpt lat="48.65406" lon="1.71555">
        <ele>169.19999694824</ele>
        <time>2012-03-15T12:38:38.000Z</time>
      </trkpt>
      <trkpt lat="48.65414" lon="1.71572">
        <ele>169</ele>
        <time>2012-03-15T12:38:48.000Z</time>
      </trkpt>
      <trkpt lat="48.65417" lon="1.71576">
        <ele>169</ele>
        <time>2012-03-15T12:38:50.000Z</time>
      </trkpt>
      <trkpt lat="48.65428" lon="1.71594">
        <ele>169</ele>
        <time>2012-03-15T12:39:01.000Z</time>
      </trkpt>
      <trkpt lat="48.65437" lon="1.71608">
        <ele>169.19999694824</ele>
        <time>2012-03-15T12:39:10.000Z</time>
      </trkpt>
      <trkpt lat="48.65444" lon="1.71616">
        <ele>169.39999389648</ele>
        <time>2012-03-15T12:39:16.000Z</time>
      </trkpt>
      <trkpt lat="48.65449" lon="1.71625">
        <ele>169.60000610352</ele>
        <time>2012-03-15T12:39:23.000Z</time>
      </trkpt>
      <trkpt lat="48.65451" lon="1.71632">
        <ele>169.80000305176</ele>
        <time>2012-03-15T12:39:28.000Z</time>
      </trkpt>
      <trkpt lat="48.65459" lon="1.71644">
        <ele>170.19999694824</ele>
        <time>2012-03-15T12:39:37.000Z</time>
      </trkpt>
      <trkpt lat="48.65467" lon="1.71658">
        <ele>170.60000610352</ele>
        <time>2012-03-15T12:39:45.000Z</time>
      </trkpt>
      <trkpt lat="48.65473" lon="1.7167">
        <ele>171</ele>
        <time>2012-03-15T12:39:52.000Z</time>
      </trkpt>
      <trkpt lat="48.65481" lon="1.71686">
        <ele>171.19999694824</ele>
        <time>2012-03-15T12:40:01.000Z</time>
      </trkpt>
      <trkpt lat="48.65489" lon="1.71699">
        <ele>171.60000610352</ele>
        <time>2012-03-15T12:40:09.000Z</time>
      </trkpt>
      <trkpt lat="48.65497" lon="1.71715">
        <ele>171.80000305176</ele>
        <time>2012-03-15T12:40:17.000Z</time>
      </trkpt>
      <trkpt lat="48.65504" lon="1.7173">
        <ele>172.19999694824</ele>
        <time>2012-03-15T12:40:25.000Z</time>
      </trkpt>
      <trkpt lat="48.65509" lon="1.71738">
        <ele>172.39999389648</ele>
        <time>2012-03-15T12:40:31.000Z</time>
      </trkpt>
      <trkpt lat="48.65514" lon="1.71749">
        <ele>172.80000305176</ele>
        <time>2012-03-15T12:40:37.000Z</time>
      </trkpt>
      <trkpt lat="48.65517" lon="1.71754">
        <ele>173</ele>
        <time>2012-03-15T12:40:42.000Z</time>
      </trkpt>
      <trkpt lat="48.65522" lon="1.71764">
        <ele>173.19999694824</ele>
        <time>2012-03-15T12:40:51.000Z</time>
      </trkpt>
      <trkpt lat="48.65522" lon="1.71764">
        <ele>173.19999694824</ele>
        <time>2012-03-15T12:40:52.000Z</time>
      </trkpt>
      <trkpt lat="48.65525" lon="1.71769">
        <ele>173.19999694824</ele>
        <time>2012-03-15T12:40:56.000Z</time>
      </trkpt>
      <trkpt lat="48.65528" lon="1.71773">
        <ele>173.39999389648</ele>
        <time>2012-03-15T12:40:57.000Z</time>
      </trkpt>
      <trkpt lat="48.65537" lon="1.71792">
        <ele>173.80000305176</ele>
        <time>2012-03-15T12:41:06.000Z</time>
      </trkpt>
      <trkpt lat="48.65542" lon="1.71801">
        <ele>174.19999694824</ele>
        <time>2012-03-15T12:41:11.000Z</time>
      </trkpt>
      <trkpt lat="48.65548" lon="1.71813">
        <ele>174.60000610352</ele>
        <time>2012-03-15T12:41:17.000Z</time>
      </trkpt>
      <trkpt lat="48.65557" lon="1.71827">
        <ele>175.39999389648</ele>
        <time>2012-03-15T12:41:25.000Z</time>
      </trkpt>
      <trkpt lat="48.65565" lon="1.71834">
        <ele>176.19999694824</ele>
        <time>2012-03-15T12:41:31.000Z</time>
      </trkpt>
      <trkpt lat="48.65576" lon="1.71842">
        <ele>177</ele>
        <time>2012-03-15T12:41:39.000Z</time>
      </trkpt>
      <trkpt lat="48.65585" lon="1.71845">
        <ele>177.80000305176</ele>
        <time>2012-03-15T12:41:45.000Z</time>
      </trkpt>
      <trkpt lat="48.65594" lon="1.71848">
        <ele>177.80000305176</ele>
        <time>2012-03-15T12:41:51.000Z</time>
      </trkpt>
      <trkpt lat="48.65602" lon="1.71849">
        <ele>178</ele>
        <time>2012-03-15T12:41:57.000Z</time>
      </trkpt>
      <trkpt lat="48.65604" lon="1.7185">
        <ele>178</ele>
        <time>2012-03-15T12:41:58.000Z</time>
      </trkpt>
      <trkpt lat="48.65611" lon="1.71854">
        <ele>178</ele>
        <time>2012-03-15T12:42:04.000Z</time>
      </trkpt>
      <trkpt lat="48.65613" lon="1.71856">
        <ele>178.19999694824</ele>
        <time>2012-03-15T12:42:06.000Z</time>
      </trkpt>
      <trkpt lat="48.65621" lon="1.7186">
        <ele>178.19999694824</ele>
        <time>2012-03-15T12:42:13.000Z</time>
      </trkpt>
      <trkpt lat="48.65629" lon="1.71872">
        <ele>178.39999389648</ele>
        <time>2012-03-15T12:42:21.000Z</time>
      </trkpt>
      <trkpt lat="48.65636" lon="1.7188">
        <ele>178.60000610352</ele>
        <time>2012-03-15T12:42:27.000Z</time>
      </trkpt>
      <trkpt lat="48.65639" lon="1.71882">
        <ele>178.60000610352</ele>
        <time>2012-03-15T12:42:29.000Z</time>
      </trkpt>
      <trkpt lat="48.6565" lon="1.71887">
        <ele>179</ele>
        <time>2012-03-15T12:42:36.000Z</time>
      </trkpt>
      <trkpt lat="48.65655" lon="1.7189">
        <ele>179.19999694824</ele>
        <time>2012-03-15T12:42:40.000Z</time>
      </trkpt>
      <trkpt lat="48.65662" lon="1.71896">
        <ele>179.60000610352</ele>
        <time>2012-03-15T12:42:46.000Z</time>
      </trkpt>
      <trkpt lat="48.65672" lon="1.71902">
        <ele>179.19999694824</ele>
        <time>2012-03-15T12:42:54.000Z</time>
      </trkpt>
      <trkpt lat="48.65673" lon="1.71903">
        <ele>179.19999694824</ele>
        <time>2012-03-15T12:42:55.000Z</time>
      </trkpt>
      <trkpt lat="48.65683" lon="1.7191">
        <ele>178.19999694824</ele>
        <time>2012-03-15T12:43:03.000Z</time>
      </trkpt>
      <trkpt lat="48.65686" lon="1.71911">
        <ele>177.80000305176</ele>
        <time>2012-03-15T12:43:05.000Z</time>
      </trkpt>
      <trkpt lat="48.65694" lon="1.71915">
        <ele>177</ele>
        <time>2012-03-15T12:43:11.000Z</time>
      </trkpt>
      <trkpt lat="48.65704" lon="1.71909">
        <ele>175.80000305176</ele>
        <time>2012-03-15T12:43:18.000Z</time>
      </trkpt>
      <trkpt lat="48.65713" lon="1.71905">
        <ele>174.80000305176</ele>
        <time>2012-03-15T12:43:25.000Z</time>
      </trkpt>
      <trkpt lat="48.65724" lon="1.719">
        <ele>173.60000610352</ele>
        <time>2012-03-15T12:43:33.000Z</time>
      </trkpt>
      <trkpt lat="48.65731" lon="1.71896">
        <ele>172.60000610352</ele>
        <time>2012-03-15T12:43:39.000Z</time>
      </trkpt>
      <trkpt lat="48.6574" lon="1.71893">
        <ele>171.60000610352</ele>
        <time>2012-03-15T12:43:45.000Z</time>
      </trkpt>
      <trkpt lat="48.6575" lon="1.71887">
        <ele>170.39999389648</ele>
        <time>2012-03-15T12:43:52.000Z</time>
      </trkpt>
      <trkpt lat="48.65757" lon="1.71883">
        <ele>169.60000610352</ele>
        <time>2012-03-15T12:43:58.000Z</time>
      </trkpt>
      <trkpt lat="48.65766" lon="1.71877">
        <ele>168.60000610352</ele>
        <time>2012-03-15T12:44:05.000Z</time>
      </trkpt>
      <trkpt lat="48.65776" lon="1.71872">
        <ele>167.80000305176</ele>
        <time>2012-03-15T12:44:13.000Z</time>
      </trkpt>
      <trkpt lat="48.65785" lon="1.71868">
        <ele>167</ele>
        <time>2012-03-15T12:44:20.000Z</time>
      </trkpt>
      <trkpt lat="48.65788" lon="1.71866">
        <ele>166.80000305176</ele>
        <time>2012-03-15T12:44:23.000Z</time>
      </trkpt>
      <trkpt lat="48.65801" lon="1.71862">
        <ele>165.80000305176</ele>
        <time>2012-03-15T12:44:31.000Z</time>
      </trkpt>
      <trkpt lat="48.65812" lon="1.71862">
        <ele>165</ele>
        <time>2012-03-15T12:44:38.000Z</time>
      </trkpt>
      <trkpt lat="48.65823" lon="1.71862">
        <ele>164.19999694824</ele>
        <time>2012-03-15T12:44:45.000Z</time>
      </trkpt>
      <trkpt lat="48.6583" lon="1.71861">
        <ele>163.60000610352</ele>
        <time>2012-03-15T12:44:50.000Z</time>
      </trkpt>
      <trkpt lat="48.6584" lon="1.71861">
        <ele>163</ele>
        <time>2012-03-15T12:44:57.000Z</time>
      </trkpt>
      <trkpt lat="48.65849" lon="1.7186">
        <ele>162.60000610352</ele>
        <time>2012-03-15T12:45:03.000Z</time>
      </trkpt>
      <trkpt lat="48.65857" lon="1.7186">
        <ele>162.19999694824</ele>
        <time>2012-03-15T12:45:09.000Z</time>
      </trkpt>
      <trkpt lat="48.6587" lon="1.71857">
        <ele>161.60000610352</ele>
        <time>2012-03-15T12:45:18.000Z</time>
      </trkpt>
      <trkpt lat="48.65878" lon="1.71856">
        <ele>161.19999694824</ele>
        <time>2012-03-15T12:45:23.000Z</time>
      </trkpt>
      <trkpt lat="48.65887" lon="1.71853">
        <ele>160.80000305176</ele>
        <time>2012-03-15T12:45:29.000Z</time>
      </trkpt>
      <trkpt lat="48.65889" lon="1.71853">
        <ele>160.60000610352</ele>
        <time>2012-03-15T12:45:30.000Z</time>
      </trkpt>
      <trkpt lat="48.65896" lon="1.7185">
        <ele>160.39999389648</ele>
        <time>2012-03-15T12:45:34.000Z</time>
      </trkpt>
      <trkpt lat="48.65898" lon="1.7185">
        <ele>160.39999389648</ele>
        <time>2012-03-15T12:45:36.000Z</time>
      </trkpt>
      <trkpt lat="48.65906" lon="1.7185">
        <ele>160</ele>
        <time>2012-03-15T12:45:42.000Z</time>
      </trkpt>
      <trkpt lat="48.65917" lon="1.71845">
        <ele>159.60000610352</ele>
        <time>2012-03-15T12:45:50.000Z</time>
      </trkpt>
      <trkpt lat="48.65928" lon="1.7184">
        <ele>158.80000305176</ele>
        <time>2012-03-15T12:45:57.000Z</time>
      </trkpt>
      <trkpt lat="48.65938" lon="1.71835">
        <ele>158.19999694824</ele>
        <time>2012-03-15T12:46:05.000Z</time>
      </trkpt>
      <trkpt lat="48.65951" lon="1.71831">
        <ele>157.19999694824</ele>
        <time>2012-03-15T12:46:14.000Z</time>
      </trkpt>
      <trkpt lat="48.6596" lon="1.71829">
        <ele>156.39999389648</ele>
        <time>2012-03-15T12:46:20.000Z</time>
      </trkpt>
      <trkpt lat="48.65968" lon="1.71826">
        <ele>155.80000305176</ele>
        <time>2012-03-15T12:46:26.000Z</time>
      </trkpt>
      <trkpt lat="48.65977" lon="1.71828">
        <ele>155</ele>
        <time>2012-03-15T12:46:31.000Z</time>
      </trkpt>
      <trkpt lat="48.65982" lon="1.71828">
        <ele>154.60000610352</ele>
        <time>2012-03-15T12:46:36.000Z</time>
      </trkpt>
      <trkpt lat="48.65993" lon="1.71828">
        <ele>153.60000610352</ele>
        <time>2012-03-15T12:46:43.000Z</time>
      </trkpt>
      <trkpt lat="48.66004" lon="1.71826">
        <ele>152.80000305176</ele>
        <time>2012-03-15T12:46:50.000Z</time>
      </trkpt>
      <trkpt lat="48.66012" lon="1.71826">
        <ele>152.60000610352</ele>
        <time>2012-03-15T12:46:56.000Z</time>
      </trkpt>
      <trkpt lat="48.66025" lon="1.71822">
        <ele>152</ele>
        <time>2012-03-15T12:47:05.000Z</time>
      </trkpt>
      <trkpt lat="48.66037" lon="1.7182">
        <ele>151.60000610352</ele>
        <time>2012-03-15T12:47:13.000Z</time>
      </trkpt>
      <trkpt lat="48.66044" lon="1.7182">
        <ele>151.39999389648</ele>
        <time>2012-03-15T12:47:18.000Z</time>
      </trkpt>
      <trkpt lat="48.66053" lon="1.71821">
        <ele>151</ele>
        <time>2012-03-15T12:47:24.000Z</time>
      </trkpt>
      <trkpt lat="48.6606" lon="1.71823">
        <ele>150.80000305176</ele>
        <time>2012-03-15T12:47:28.000Z</time>
      </trkpt>
      <trkpt lat="48.66068" lon="1.71822">
        <ele>150.39999389648</ele>
        <time>2012-03-15T12:47:34.000Z</time>
      </trkpt>
      <trkpt lat="48.66081" lon="1.71823">
        <ele>150</ele>
        <time>2012-03-15T12:47:41.000Z</time>
      </trkpt>
      <trkpt lat="48.66087" lon="1.71824">
        <ele>149.60000610352</ele>
        <time>2012-03-15T12:47:46.000Z</time>
      </trkpt>
      <trkpt lat="48.66096" lon="1.71823">
        <ele>149.19999694824</ele>
        <time>2012-03-15T12:47:52.000Z</time>
      </trkpt>
      <trkpt lat="48.66097" lon="1.71823">
        <ele>149</ele>
        <time>2012-03-15T12:47:53.000Z</time>
      </trkpt>
      <trkpt lat="48.6611" lon="1.71826">
        <ele>148.19999694824</ele>
        <time>2012-03-15T12:48:02.000Z</time>
      </trkpt>
      <trkpt lat="48.66113" lon="1.71827">
        <ele>148</ele>
        <time>2012-03-15T12:48:04.000Z</time>
      </trkpt>
      <trkpt lat="48.66123" lon="1.71836">
        <ele>147.60000610352</ele>
        <time>2012-03-15T12:48:12.000Z</time>
      </trkpt>
      <trkpt lat="48.66133" lon="1.71844">
        <ele>147</ele>
        <time>2012-03-15T12:48:18.000Z</time>
      </trkpt>
      <trkpt lat="48.66139" lon="1.71851">
        <ele>146.39999389648</ele>
        <time>2012-03-15T12:48:23.000Z</time>
      </trkpt>
      <trkpt lat="48.66147" lon="1.71857">
        <ele>146</ele>
        <time>2012-03-15T12:48:28.000Z</time>
      </trkpt>
      <trkpt lat="48.66153" lon="1.71858">
        <ele>145.80000305176</ele>
        <time>2012-03-15T12:48:32.000Z</time>
      </trkpt>
      <trkpt lat="48.66163" lon="1.71862">
        <ele>145.19999694824</ele>
        <time>2012-03-15T12:48:39.000Z</time>
      </trkpt>
      <trkpt lat="48.66171" lon="1.71863">
        <ele>144.80000305176</ele>
        <time>2012-03-15T12:48:45.000Z</time>
      </trkpt>
      <trkpt lat="48.6618" lon="1.71862">
        <ele>144.60000610352</ele>
        <time>2012-03-15T12:48:52.000Z</time>
      </trkpt>
      <trkpt lat="48.66192" lon="1.71863">
        <ele>144.19999694824</ele>
        <time>2012-03-15T12:48:59.000Z</time>
      </trkpt>
      <trkpt lat="48.662" lon="1.71866">
        <ele>143.80000305176</ele>
        <time>2012-03-15T12:49:05.000Z</time>
      </trkpt>
      <trkpt lat="48.6621" lon="1.71866">
        <ele>143.60000610352</ele>
        <time>2012-03-15T12:49:12.000Z</time>
      </trkpt>
      <trkpt lat="48.66217" lon="1.71865">
        <ele>143.39999389648</ele>
        <time>2012-03-15T12:49:17.000Z</time>
      </trkpt>
      <trkpt lat="48.66225" lon="1.71867">
        <ele>143</ele>
        <time>2012-03-15T12:49:24.000Z</time>
      </trkpt>
      <trkpt lat="48.6623" lon="1.71867">
        <ele>142.80000305176</ele>
        <time>2012-03-15T12:49:27.000Z</time>
      </trkpt>
      <trkpt lat="48.6624" lon="1.71869">
        <ele>142.39999389648</ele>
        <time>2012-03-15T12:49:34.000Z</time>
      </trkpt>
      <trkpt lat="48.6625" lon="1.71869">
        <ele>142.19999694824</ele>
        <time>2012-03-15T12:49:41.000Z</time>
      </trkpt>
      <trkpt lat="48.66253" lon="1.71868">
        <ele>142</ele>
        <time>2012-03-15T12:49:45.000Z</time>
      </trkpt>
      <trkpt lat="48.66285" lon="1.71853">
        <ele>141.39999389648</ele>
        <time>2012-03-15T12:51:05.000Z</time>
      </trkpt>
      <trkpt lat="48.66292" lon="1.7185">
        <ele>141.19999694824</ele>
        <time>2012-03-15T12:51:09.000Z</time>
      </trkpt>
      <trkpt lat="48.66301" lon="1.71846">
        <ele>141</ele>
        <time>2012-03-15T12:51:14.000Z</time>
      </trkpt>
      <trkpt lat="48.6631" lon="1.71843">
        <ele>140.60000610352</ele>
        <time>2012-03-15T12:51:19.000Z</time>
      </trkpt>
      <trkpt lat="48.66321" lon="1.71839">
        <ele>140.39999389648</ele>
        <time>2012-03-15T12:51:26.000Z</time>
      </trkpt>
      <trkpt lat="48.66332" lon="1.71835">
        <ele>140</ele>
        <time>2012-03-15T12:51:34.000Z</time>
      </trkpt>
      <trkpt lat="48.66344" lon="1.71831">
        <ele>139.60000610352</ele>
        <time>2012-03-15T12:51:42.000Z</time>
      </trkpt>
      <trkpt lat="48.66355" lon="1.71826">
        <ele>139.39999389648</ele>
        <time>2012-03-15T12:51:50.000Z</time>
      </trkpt>
      <trkpt lat="48.66364" lon="1.71824">
        <ele>139</ele>
        <time>2012-03-15T12:51:57.000Z</time>
      </trkpt>
      <trkpt lat="48.66375" lon="1.71819">
        <ele>138.60000610352</ele>
        <time>2012-03-15T12:52:05.000Z</time>
      </trkpt>
      <trkpt lat="48.66389" lon="1.71814">
        <ele>138.19999694824</ele>
        <time>2012-03-15T12:52:14.000Z</time>
      </trkpt>
      <trkpt lat="48.66402" lon="1.7181">
        <ele>137.80000305176</ele>
        <time>2012-03-15T12:52:23.000Z</time>
      </trkpt>
      <trkpt lat="48.66417" lon="1.71803">
        <ele>137.19999694824</ele>
        <time>2012-03-15T12:52:33.000Z</time>
      </trkpt>
      <trkpt lat="48.66427" lon="1.71798">
        <ele>137.19999694824</ele>
        <time>2012-03-15T12:52:40.000Z</time>
      </trkpt>
      <trkpt lat="48.66436" lon="1.71792">
        <ele>137.19999694824</ele>
        <time>2012-03-15T12:52:46.000Z</time>
      </trkpt>
      <trkpt lat="48.66447" lon="1.71787">
        <ele>137</ele>
        <time>2012-03-15T12:52:53.000Z</time>
      </trkpt>
      <trkpt lat="48.66458" lon="1.7178">
        <ele>137</ele>
        <time>2012-03-15T12:52:59.000Z</time>
      </trkpt>
      <trkpt lat="48.6647" lon="1.71774">
        <ele>137</ele>
        <time>2012-03-15T12:53:07.000Z</time>
      </trkpt>
      <trkpt lat="48.66481" lon="1.71769">
        <ele>137</ele>
        <time>2012-03-15T12:53:12.000Z</time>
      </trkpt>
      <trkpt lat="48.66486" lon="1.71766">
        <ele>137</ele>
        <time>2012-03-15T12:53:16.000Z</time>
      </trkpt>
      <trkpt lat="48.66497" lon="1.71762">
        <ele>137.19999694824</ele>
        <time>2012-03-15T12:53:23.000Z</time>
      </trkpt>
      <trkpt lat="48.66508" lon="1.71758">
        <ele>137</ele>
        <time>2012-03-15T12:53:30.000Z</time>
      </trkpt>
      <trkpt lat="48.66518" lon="1.71752">
        <ele>136.80000305176</ele>
        <time>2012-03-15T12:53:37.000Z</time>
      </trkpt>
      <trkpt lat="48.66528" lon="1.71747">
        <ele>136.60000610352</ele>
        <time>2012-03-15T12:53:43.000Z</time>
      </trkpt>
      <trkpt lat="48.66541" lon="1.71741">
        <ele>136.60000610352</ele>
        <time>2012-03-15T12:53:51.000Z</time>
      </trkpt>
      <trkpt lat="48.66555" lon="1.71736">
        <ele>136.39999389648</ele>
        <time>2012-03-15T12:53:59.000Z</time>
      </trkpt>
      <trkpt lat="48.6657" lon="1.71731">
        <ele>136.19999694824</ele>
        <time>2012-03-15T12:54:08.000Z</time>
      </trkpt>
      <trkpt lat="48.66579" lon="1.71726">
        <ele>136</ele>
        <time>2012-03-15T12:54:14.000Z</time>
      </trkpt>
      <trkpt lat="48.66593" lon="1.71719">
        <ele>136.80000305176</ele>
        <time>2012-03-15T12:54:23.000Z</time>
      </trkpt>
      <trkpt lat="48.66602" lon="1.71716">
        <ele>137.39999389648</ele>
        <time>2012-03-15T12:54:29.000Z</time>
      </trkpt>
      <trkpt lat="48.66611" lon="1.71712">
        <ele>138</ele>
        <time>2012-03-15T12:54:37.000Z</time>
      </trkpt>
      <trkpt lat="48.6662" lon="1.7171">
        <ele>138.60000610352</ele>
        <time>2012-03-15T12:54:43.000Z</time>
      </trkpt>
      <trkpt lat="48.66629" lon="1.71712">
        <ele>139.39999389648</ele>
        <time>2012-03-15T12:54:50.000Z</time>
      </trkpt>
      <trkpt lat="48.66634" lon="1.71708">
        <ele>139.60000610352</ele>
        <time>2012-03-15T12:54:56.000Z</time>
      </trkpt>
      <trkpt lat="48.66635" lon="1.71707">
        <ele>139.60000610352</ele>
        <time>2012-03-15T12:54:59.000Z</time>
      </trkpt>
      <trkpt lat="48.6664" lon="1.71703">
        <ele>140</ele>
        <time>2012-03-15T12:55:13.000Z</time>
      </trkpt>
      <trkpt lat="48.66648" lon="1.71702">
        <ele>140.60000610352</ele>
        <time>2012-03-15T12:55:18.000Z</time>
      </trkpt>
      <trkpt lat="48.66654" lon="1.71707">
        <ele>141</ele>
        <time>2012-03-15T12:55:22.000Z</time>
      </trkpt>
      <trkpt lat="48.66658" lon="1.71705">
        <ele>141.19999694824</ele>
        <time>2012-03-15T12:55:28.000Z</time>
      </trkpt>
      <trkpt lat="48.66661" lon="1.71701">
        <ele>141.39999389648</ele>
        <time>2012-03-15T12:55:35.000Z</time>
      </trkpt>
      <trkpt lat="48.66661" lon="1.71701">
        <ele>141.39999389648</ele>
        <time>2012-03-15T12:55:36.000Z</time>
      </trkpt>
      <trkpt lat="48.66675" lon="1.71697">
        <ele>142.80000305176</ele>
        <time>2012-03-15T12:56:07.000Z</time>
      </trkpt>
      <trkpt lat="48.66681" lon="1.71693">
        <ele>143.39999389648</ele>
        <time>2012-03-15T12:56:11.000Z</time>
      </trkpt>
      <trkpt lat="48.66683" lon="1.71691">
        <ele>143.60000610352</ele>
        <time>2012-03-15T12:56:13.000Z</time>
      </trkpt>
      <trkpt lat="48.66685" lon="1.71691">
        <ele>143.80000305176</ele>
        <time>2012-03-15T12:56:17.000Z</time>
      </trkpt>
      <trkpt lat="48.66688" lon="1.71673">
        <ele>143.80000305176</ele>
        <time>2012-03-15T12:56:43.000Z</time>
      </trkpt>
      <trkpt lat="48.66691" lon="1.71672">
        <ele>144.39999389648</ele>
        <time>2012-03-15T12:56:48.000Z</time>
      </trkpt>
      <trkpt lat="48.66692" lon="1.71672">
        <ele>144.39999389648</ele>
        <time>2012-03-15T12:56:50.000Z</time>
      </trkpt>
      <trkpt lat="48.66697" lon="1.71675">
        <ele>145.19999694824</ele>
        <time>2012-03-15T12:56:57.000Z</time>
      </trkpt>
      <trkpt lat="48.667" lon="1.71677">
        <ele>145.60000610352</ele>
        <time>2012-03-15T12:57:01.000Z</time>
      </trkpt>
      <trkpt lat="48.66708" lon="1.71672">
        <ele>146.60000610352</ele>
        <time>2012-03-15T12:58:01.000Z</time>
      </trkpt>
      <trkpt lat="48.66713" lon="1.71668">
        <ele>147.19999694824</ele>
        <time>2012-03-15T12:58:03.000Z</time>
      </trkpt>
      <trkpt lat="48.66723" lon="1.71664">
        <ele>148.39999389648</ele>
        <time>2012-03-15T12:58:10.000Z</time>
      </trkpt>
      <trkpt lat="48.66734" lon="1.7166">
        <ele>149.60000610352</ele>
        <time>2012-03-15T12:58:17.000Z</time>
      </trkpt>
      <trkpt lat="48.6675" lon="1.71653">
        <ele>151.39999389648</ele>
        <time>2012-03-15T12:58:23.000Z</time>
      </trkpt>
      <trkpt lat="48.66769" lon="1.71645">
        <ele>151.60000610352</ele>
        <time>2012-03-15T12:58:29.000Z</time>
      </trkpt>
      <trkpt lat="48.66782" lon="1.71639">
        <ele>151.80000305176</ele>
        <time>2012-03-15T12:58:35.000Z</time>
      </trkpt>
      <trkpt lat="48.66794" lon="1.71634">
        <ele>152</ele>
        <time>2012-03-15T12:58:43.000Z</time>
      </trkpt>
      <trkpt lat="48.66797" lon="1.71634">
        <ele>152</ele>
        <time>2012-03-15T12:58:45.000Z</time>
      </trkpt>
      <trkpt lat="48.66806" lon="1.71628">
        <ele>152</ele>
        <time>2012-03-15T12:58:52.000Z</time>
      </trkpt>
      <trkpt lat="48.66816" lon="1.71624">
        <ele>151.80000305176</ele>
        <time>2012-03-15T12:58:59.000Z</time>
      </trkpt>
      <trkpt lat="48.66824" lon="1.71619">
        <ele>151.80000305176</ele>
        <time>2012-03-15T12:59:06.000Z</time>
      </trkpt>
      <trkpt lat="48.66832" lon="1.71612">
        <ele>151.39999389648</ele>
        <time>2012-03-15T12:59:14.000Z</time>
      </trkpt>
      <trkpt lat="48.66836" lon="1.7161">
        <ele>151.19999694824</ele>
        <time>2012-03-15T12:59:17.000Z</time>
      </trkpt>
      <trkpt lat="48.6684" lon="1.71611">
        <ele>151.39999389648</ele>
        <time>2012-03-15T12:59:20.000Z</time>
      </trkpt>
      <trkpt lat="48.66848" lon="1.71608">
        <ele>151</ele>
        <time>2012-03-15T12:59:26.000Z</time>
      </trkpt>
      <trkpt lat="48.66857" lon="1.71602">
        <ele>150.60000610352</ele>
        <time>2012-03-15T12:59:32.000Z</time>
      </trkpt>
      <trkpt lat="48.66868" lon="1.71596">
        <ele>150.19999694824</ele>
        <time>2012-03-15T12:59:40.000Z</time>
      </trkpt>
      <trkpt lat="48.66878" lon="1.71587">
        <ele>149.80000305176</ele>
        <time>2012-03-15T12:59:48.000Z</time>
      </trkpt>
      <trkpt lat="48.66886" lon="1.71581">
        <ele>149.60000610352</ele>
        <time>2012-03-15T12:59:54.000Z</time>
      </trkpt>
      <trkpt lat="48.66894" lon="1.71576">
        <ele>149.60000610352</ele>
        <time>2012-03-15T13:00:00.000Z</time>
      </trkpt>
      <trkpt lat="48.66903" lon="1.71567">
        <ele>149.60000610352</ele>
        <time>2012-03-15T13:00:07.000Z</time>
      </trkpt>
      <trkpt lat="48.66913" lon="1.7156">
        <ele>149.60000610352</ele>
        <time>2012-03-15T13:00:14.000Z</time>
      </trkpt>
      <trkpt lat="48.66926" lon="1.71554">
        <ele>149.60000610352</ele>
        <time>2012-03-15T13:00:22.000Z</time>
      </trkpt>
      <trkpt lat="48.66939" lon="1.71547">
        <ele>149.60000610352</ele>
        <time>2012-03-15T13:00:30.000Z</time>
      </trkpt>
      <trkpt lat="48.66949" lon="1.71542">
        <ele>149.60000610352</ele>
        <time>2012-03-15T13:00:36.000Z</time>
      </trkpt>
      <trkpt lat="48.6696" lon="1.71533">
        <ele>150</ele>
        <time>2012-03-15T13:00:43.000Z</time>
      </trkpt>
      <trkpt lat="48.66961" lon="1.71532">
        <ele>150</ele>
        <time>2012-03-15T13:00:44.000Z</time>
      </trkpt>
      <trkpt lat="48.66971" lon="1.71526">
        <ele>150.19999694824</ele>
        <time>2012-03-15T13:00:51.000Z</time>
      </trkpt>
      <trkpt lat="48.66979" lon="1.71522">
        <ele>150.60000610352</ele>
        <time>2012-03-15T13:00:56.000Z</time>
      </trkpt>
      <trkpt lat="48.66987" lon="1.71516">
        <ele>150.80000305176</ele>
        <time>2012-03-15T13:01:02.000Z</time>
      </trkpt>
      <trkpt lat="48.67003" lon="1.71509">
        <ele>151.60000610352</ele>
        <time>2012-03-15T13:01:12.000Z</time>
      </trkpt>
      <trkpt lat="48.67011" lon="1.71505">
        <ele>152</ele>
        <time>2012-03-15T13:01:17.000Z</time>
      </trkpt>
      <trkpt lat="48.67023" lon="1.71496">
        <ele>152.60000610352</ele>
        <time>2012-03-15T13:01:25.000Z</time>
      </trkpt>
      <trkpt lat="48.67034" lon="1.7149">
        <ele>153</ele>
        <time>2012-03-15T13:01:32.000Z</time>
      </trkpt>
      <trkpt lat="48.67044" lon="1.71483">
        <ele>153.60000610352</ele>
        <time>2012-03-15T13:01:39.000Z</time>
      </trkpt>
      <trkpt lat="48.67053" lon="1.71475">
        <ele>154.19999694824</ele>
        <time>2012-03-15T13:01:46.000Z</time>
      </trkpt>
      <trkpt lat="48.67059" lon="1.71471">
        <ele>154.60000610352</ele>
        <time>2012-03-15T13:01:50.000Z</time>
      </trkpt>
      <trkpt lat="48.67069" lon="1.71465">
        <ele>155.19999694824</ele>
        <time>2012-03-15T13:01:57.000Z</time>
      </trkpt>
      <trkpt lat="48.67073" lon="1.71462">
        <ele>155.39999389648</ele>
        <time>2012-03-15T13:02:00.000Z</time>
      </trkpt>
      <trkpt lat="48.67081" lon="1.71455">
        <ele>156</ele>
        <time>2012-03-15T13:02:06.000Z</time>
      </trkpt>
      <trkpt lat="48.67088" lon="1.7145">
        <ele>156.60000610352</ele>
        <time>2012-03-15T13:02:11.000Z</time>
      </trkpt>
      <trkpt lat="48.67097" lon="1.71445">
        <ele>157.39999389648</ele>
        <time>2012-03-15T13:02:17.000Z</time>
      </trkpt>
      <trkpt lat="48.67105" lon="1.71438">
        <ele>158</ele>
        <time>2012-03-15T13:02:22.000Z</time>
      </trkpt>
      <trkpt lat="48.67118" lon="1.71433">
        <ele>158.60000610352</ele>
        <time>2012-03-15T13:02:30.000Z</time>
      </trkpt>
      <trkpt lat="48.67128" lon="1.71427">
        <ele>159.19999694824</ele>
        <time>2012-03-15T13:02:38.000Z</time>
      </trkpt>
      <trkpt lat="48.67137" lon="1.71426">
        <ele>159.80000305176</ele>
        <time>2012-03-15T13:02:46.000Z</time>
      </trkpt>
      <trkpt lat="48.67141" lon="1.71427">
        <ele>159.80000305176</ele>
        <time>2012-03-15T13:02:48.000Z</time>
      </trkpt>
      <trkpt lat="48.67147" lon="1.71431">
        <ele>160</ele>
        <time>2012-03-15T13:02:53.000Z</time>
      </trkpt>
      <trkpt lat="48.67156" lon="1.71442">
        <ele>160.19999694824</ele>
        <time>2012-03-15T13:03:01.000Z</time>
      </trkpt>
      <trkpt lat="48.67165" lon="1.71455">
        <ele>160.39999389648</ele>
        <time>2012-03-15T13:03:08.000Z</time>
      </trkpt>
      <trkpt lat="48.67172" lon="1.71464">
        <ele>160.80000305176</ele>
        <time>2012-03-15T13:03:14.000Z</time>
      </trkpt>
      <trkpt lat="48.67179" lon="1.71471">
        <ele>161.39999389648</ele>
        <time>2012-03-15T13:03:20.000Z</time>
      </trkpt>
      <trkpt lat="48.67188" lon="1.71484">
        <ele>162.19999694824</ele>
        <time>2012-03-15T13:03:28.000Z</time>
      </trkpt>
      <trkpt lat="48.67198" lon="1.71499">
        <ele>163</ele>
        <time>2012-03-15T13:03:36.000Z</time>
      </trkpt>
      <trkpt lat="48.67204" lon="1.7151">
        <ele>163.39999389648</ele>
        <time>2012-03-15T13:03:40.000Z</time>
      </trkpt>
      <trkpt lat="48.67219" lon="1.71531">
        <ele>164.19999694824</ele>
        <time>2012-03-15T13:03:46.000Z</time>
      </trkpt>
      <trkpt lat="48.67233" lon="1.71548">
        <ele>165.19999694824</ele>
        <time>2012-03-15T13:03:51.000Z</time>
      </trkpt>
      <trkpt lat="48.67249" lon="1.71563">
        <ele>166.39999389648</ele>
        <time>2012-03-15T13:03:56.000Z</time>
      </trkpt>
      <trkpt lat="48.67261" lon="1.71577">
        <ele>167</ele>
        <time>2012-03-15T13:04:00.000Z</time>
      </trkpt>
      <trkpt lat="48.67277" lon="1.71599">
        <ele>167.19999694824</ele>
        <time>2012-03-15T13:04:06.000Z</time>
      </trkpt>
      <trkpt lat="48.67289" lon="1.71613">
        <ele>167.39999389648</ele>
        <time>2012-03-15T13:04:10.000Z</time>
      </trkpt>
      <trkpt lat="48.67303" lon="1.71629">
        <ele>167.80000305176</ele>
        <time>2012-03-15T13:04:15.000Z</time>
      </trkpt>
      <trkpt lat="48.67316" lon="1.71646">
        <ele>168.19999694824</ele>
        <time>2012-03-15T13:04:20.000Z</time>
      </trkpt>
      <trkpt lat="48.67331" lon="1.71666">
        <ele>168.80000305176</ele>
        <time>2012-03-15T13:04:26.000Z</time>
      </trkpt>
      <trkpt lat="48.67342" lon="1.71679">
        <ele>168.39999389648</ele>
        <time>2012-03-15T13:04:31.000Z</time>
      </trkpt>
      <trkpt lat="48.67353" lon="1.7169">
        <ele>168</ele>
        <time>2012-03-15T13:04:35.000Z</time>
      </trkpt>
      <trkpt lat="48.67365" lon="1.71707">
        <ele>167</ele>
        <time>2012-03-15T13:04:40.000Z</time>
      </trkpt>
      <trkpt lat="48.67377" lon="1.71723">
        <ele>166.19999694824</ele>
        <time>2012-03-15T13:04:45.000Z</time>
      </trkpt>
      <trkpt lat="48.67395" lon="1.71746">
        <ele>164.80000305176</ele>
        <time>2012-03-15T13:04:52.000Z</time>
      </trkpt>
      <trkpt lat="48.67408" lon="1.71758">
        <ele>164.39999389648</ele>
        <time>2012-03-15T13:04:56.000Z</time>
      </trkpt>
      <trkpt lat="48.67416" lon="1.71771">
        <ele>164</ele>
        <time>2012-03-15T13:05:00.000Z</time>
      </trkpt>
      <trkpt lat="48.6743" lon="1.71788">
        <ele>162.60000610352</ele>
        <time>2012-03-15T13:05:05.000Z</time>
      </trkpt>
      <trkpt lat="48.67449" lon="1.71807">
        <ele>161.19999694824</ele>
        <time>2012-03-15T13:05:11.000Z</time>
      </trkpt>
      <trkpt lat="48.67465" lon="1.71826">
        <ele>160</ele>
        <time>2012-03-15T13:05:17.000Z</time>
      </trkpt>
      <trkpt lat="48.67479" lon="1.71843">
        <ele>159.39999389648</ele>
        <time>2012-03-15T13:05:22.000Z</time>
      </trkpt>
      <trkpt lat="48.67493" lon="1.7186">
        <ele>158.80000305176</ele>
        <time>2012-03-15T13:05:27.000Z</time>
      </trkpt>
      <trkpt lat="48.67513" lon="1.7188">
        <ele>158.80000305176</ele>
        <time>2012-03-15T13:05:33.000Z</time>
      </trkpt>
      <trkpt lat="48.67529" lon="1.71896">
        <ele>159</ele>
        <time>2012-03-15T13:05:39.000Z</time>
      </trkpt>
      <trkpt lat="48.67546" lon="1.71908">
        <ele>159.60000610352</ele>
        <time>2012-03-15T13:05:45.000Z</time>
      </trkpt>
      <trkpt lat="48.67564" lon="1.71923">
        <ele>160.39999389648</ele>
        <time>2012-03-15T13:05:50.000Z</time>
      </trkpt>
      <trkpt lat="48.67578" lon="1.71937">
        <ele>161.19999694824</ele>
        <time>2012-03-15T13:05:54.000Z</time>
      </trkpt>
      <trkpt lat="48.676" lon="1.7196">
        <ele>163.60000610352</ele>
        <time>2012-03-15T13:06:01.000Z</time>
      </trkpt>
      <trkpt lat="48.67617" lon="1.71979">
        <ele>165.39999389648</ele>
        <time>2012-03-15T13:06:07.000Z</time>
      </trkpt>
      <trkpt lat="48.67634" lon="1.71997">
        <ele>167.19999694824</ele>
        <time>2012-03-15T13:06:13.000Z</time>
      </trkpt>
      <trkpt lat="48.67648" lon="1.72015">
        <ele>168.60000610352</ele>
        <time>2012-03-15T13:06:18.000Z</time>
      </trkpt>
      <trkpt lat="48.67657" lon="1.72025">
        <ele>169.19999694824</ele>
        <time>2012-03-15T13:06:21.000Z</time>
      </trkpt>
      <trkpt lat="48.67669" lon="1.72045">
        <ele>170.19999694824</ele>
        <time>2012-03-15T13:06:26.000Z</time>
      </trkpt>
      <trkpt lat="48.67678" lon="1.72063">
        <ele>170.80000305176</ele>
        <time>2012-03-15T13:06:30.000Z</time>
      </trkpt>
      <trkpt lat="48.67687" lon="1.72078">
        <ele>171.39999389648</ele>
        <time>2012-03-15T13:06:34.000Z</time>
      </trkpt>
      <trkpt lat="48.6769" lon="1.72082">
        <ele>171.60000610352</ele>
        <time>2012-03-15T13:06:35.000Z</time>
      </trkpt>
      <trkpt lat="48.67706" lon="1.72103">
        <ele>172.39999389648</ele>
        <time>2012-03-15T13:06:41.000Z</time>
      </trkpt>
      <trkpt lat="48.67721" lon="1.72121">
        <ele>173</ele>
        <time>2012-03-15T13:06:46.000Z</time>
      </trkpt>
      <trkpt lat="48.67744" lon="1.72136">
        <ele>174.39999389648</ele>
        <time>2012-03-15T13:06:53.000Z</time>
      </trkpt>
      <trkpt lat="48.67765" lon="1.72147">
        <ele>175.19999694824</ele>
        <time>2012-03-15T13:06:59.000Z</time>
      </trkpt>
      <trkpt lat="48.67795" lon="1.72163">
        <ele>176.19999694824</ele>
        <time>2012-03-15T13:07:08.000Z</time>
      </trkpt>
      <trkpt lat="48.67822" lon="1.72178">
        <ele>177</ele>
        <time>2012-03-15T13:07:16.000Z</time>
      </trkpt>
      <trkpt lat="48.67846" lon="1.72191">
        <ele>177.19999694824</ele>
        <time>2012-03-15T13:07:23.000Z</time>
      </trkpt>
      <trkpt lat="48.67877" lon="1.72208">
        <ele>177</ele>
        <time>2012-03-15T13:07:32.000Z</time>
      </trkpt>
      <trkpt lat="48.67908" lon="1.72224">
        <ele>176.80000305176</ele>
        <time>2012-03-15T13:07:41.000Z</time>
      </trkpt>
      <trkpt lat="48.67936" lon="1.7224">
        <ele>176.19999694824</ele>
        <time>2012-03-15T13:07:49.000Z</time>
      </trkpt>
      <trkpt lat="48.67963" lon="1.72256">
        <ele>175.39999389648</ele>
        <time>2012-03-15T13:07:57.000Z</time>
      </trkpt>
      <trkpt lat="48.67998" lon="1.72275">
        <ele>175</ele>
        <time>2012-03-15T13:08:07.000Z</time>
      </trkpt>
      <trkpt lat="48.68026" lon="1.7229">
        <ele>175.80000305176</ele>
        <time>2012-03-15T13:08:15.000Z</time>
      </trkpt>
      <trkpt lat="48.68059" lon="1.72307">
        <ele>177.19999694824</ele>
        <time>2012-03-15T13:08:24.000Z</time>
      </trkpt>
      <trkpt lat="48.68094" lon="1.72327">
        <ele>178.80000305176</ele>
        <time>2012-03-15T13:08:34.000Z</time>
      </trkpt>
      <trkpt lat="48.6812" lon="1.7234">
        <ele>179.19999694824</ele>
        <time>2012-03-15T13:08:41.000Z</time>
      </trkpt>
      <trkpt lat="48.68137" lon="1.72346">
        <ele>179.19999694824</ele>
        <time>2012-03-15T13:08:46.000Z</time>
      </trkpt>
      <trkpt lat="48.68153" lon="1.72356">
        <ele>179</ele>
        <time>2012-03-15T13:08:51.000Z</time>
      </trkpt>
      <trkpt lat="48.68179" lon="1.7237">
        <ele>178.39999389648</ele>
        <time>2012-03-15T13:08:58.000Z</time>
      </trkpt>
      <trkpt lat="48.68202" lon="1.72382">
        <ele>178</ele>
        <time>2012-03-15T13:09:04.000Z</time>
      </trkpt>
      <trkpt lat="48.68228" lon="1.72395">
        <ele>177.19999694824</ele>
        <time>2012-03-15T13:09:11.000Z</time>
      </trkpt>
      <trkpt lat="48.68249" lon="1.72407">
        <ele>176.39999389648</ele>
        <time>2012-03-15T13:09:17.000Z</time>
      </trkpt>
      <trkpt lat="48.68274" lon="1.72421">
        <ele>176.60000610352</ele>
        <time>2012-03-15T13:09:24.000Z</time>
      </trkpt>
      <trkpt lat="48.68294" lon="1.7243">
        <ele>176.80000305176</ele>
        <time>2012-03-15T13:09:29.000Z</time>
      </trkpt>
      <trkpt lat="48.68312" lon="1.72438">
        <ele>176.80000305176</ele>
        <time>2012-03-15T13:09:34.000Z</time>
      </trkpt>
      <trkpt lat="48.68336" lon="1.72446">
        <ele>176.60000610352</ele>
        <time>2012-03-15T13:09:40.000Z</time>
      </trkpt>
      <trkpt lat="48.68365" lon="1.72454">
        <ele>176</ele>
        <time>2012-03-15T13:09:47.000Z</time>
      </trkpt>
      <trkpt lat="48.68393" lon="1.72459">
        <ele>175.60000610352</ele>
        <time>2012-03-15T13:09:54.000Z</time>
      </trkpt>
      <trkpt lat="48.68419" lon="1.72463">
        <ele>175.19999694824</ele>
        <time>2012-03-15T13:10:01.000Z</time>
      </trkpt>
      <trkpt lat="48.6844" lon="1.72469">
        <ele>175.39999389648</ele>
        <time>2012-03-15T13:10:08.000Z</time>
      </trkpt>
      <trkpt lat="48.68454" lon="1.72472">
        <ele>175.60000610352</ele>
        <time>2012-03-15T13:10:15.000Z</time>
      </trkpt>
      <trkpt lat="48.6846" lon="1.72475">
        <ele>175.60000610352</ele>
        <time>2012-03-15T13:10:19.000Z</time>
      </trkpt>
      <trkpt lat="48.68472" lon="1.72478">
        <ele>175.80000305176</ele>
        <time>2012-03-15T13:10:28.000Z</time>
      </trkpt>
      <trkpt lat="48.68478" lon="1.72479">
        <ele>176</ele>
        <time>2012-03-15T13:10:33.000Z</time>
      </trkpt>
      <trkpt lat="48.68484" lon="1.72487">
        <ele>175.80000305176</ele>
        <time>2012-03-15T13:10:39.000Z</time>
      </trkpt>
      <trkpt lat="48.68491" lon="1.72505">
        <ele>175.60000610352</ele>
        <time>2012-03-15T13:10:47.000Z</time>
      </trkpt>
      <trkpt lat="48.68493" lon="1.72523">
        <ele>175.80000305176</ele>
        <time>2012-03-15T13:10:55.000Z</time>
      </trkpt>
      <trkpt lat="48.68494" lon="1.72531">
        <ele>175.80000305176</ele>
        <time>2012-03-15T13:10:59.000Z</time>
      </trkpt>
      <trkpt lat="48.68496" lon="1.72543">
        <ele>175.80000305176</ele>
        <time>2012-03-15T13:11:04.000Z</time>
      </trkpt>
      <trkpt lat="48.68497" lon="1.72549">
        <ele>176</ele>
        <time>2012-03-15T13:11:07.000Z</time>
      </trkpt>
      <trkpt lat="48.68499" lon="1.72564">
        <ele>176</ele>
        <time>2012-03-15T13:11:14.000Z</time>
      </trkpt>
      <trkpt lat="48.68501" lon="1.72577">
        <ele>176</ele>
        <time>2012-03-15T13:11:20.000Z</time>
      </trkpt>
      <trkpt lat="48.68501" lon="1.72591">
        <ele>175.80000305176</ele>
        <time>2012-03-15T13:11:26.000Z</time>
      </trkpt>
      <trkpt lat="48.68502" lon="1.726">
        <ele>175.80000305176</ele>
        <time>2012-03-15T13:11:30.000Z</time>
      </trkpt>
      <trkpt lat="48.68501" lon="1.72616">
        <ele>175.60000610352</ele>
        <time>2012-03-15T13:11:37.000Z</time>
      </trkpt>
      <trkpt lat="48.685" lon="1.72626">
        <ele>175.39999389648</ele>
        <time>2012-03-15T13:11:42.000Z</time>
      </trkpt>
      <trkpt lat="48.685" lon="1.7264">
        <ele>175.39999389648</ele>
        <time>2012-03-15T13:11:48.000Z</time>
      </trkpt>
      <trkpt lat="48.685" lon="1.72649">
        <ele>175.19999694824</ele>
        <time>2012-03-15T13:11:52.000Z</time>
      </trkpt>
      <trkpt lat="48.685" lon="1.72659">
        <ele>175</ele>
        <time>2012-03-15T13:11:57.000Z</time>
      </trkpt>
      <trkpt lat="48.68502" lon="1.7267">
        <ele>175</ele>
        <time>2012-03-15T13:12:02.000Z</time>
      </trkpt>
      <trkpt lat="48.68504" lon="1.72685">
        <ele>174.60000610352</ele>
        <time>2012-03-15T13:12:09.000Z</time>
      </trkpt>
      <trkpt lat="48.68505" lon="1.72697">
        <ele>174.60000610352</ele>
        <time>2012-03-15T13:12:15.000Z</time>
      </trkpt>
      <trkpt lat="48.68506" lon="1.72699">
        <ele>174.39999389648</ele>
        <time>2012-03-15T13:12:16.000Z</time>
      </trkpt>
      <trkpt lat="48.68509" lon="1.72709">
        <ele>174.39999389648</ele>
        <time>2012-03-15T13:12:21.000Z</time>
      </trkpt>
      <trkpt lat="48.6851" lon="1.72718">
        <ele>174.19999694824</ele>
        <time>2012-03-15T13:12:26.000Z</time>
      </trkpt>
      <trkpt lat="48.68506" lon="1.72732">
        <ele>174.19999694824</ele>
        <time>2012-03-15T13:12:33.000Z</time>
      </trkpt>
      <trkpt lat="48.68505" lon="1.72736">
        <ele>174</ele>
        <time>2012-03-15T13:12:35.000Z</time>
      </trkpt>
      <trkpt lat="48.68501" lon="1.7275">
        <ele>174</ele>
        <time>2012-03-15T13:12:42.000Z</time>
      </trkpt>
      <trkpt lat="48.68507" lon="1.72764">
        <ele>174</ele>
        <time>2012-03-15T13:12:50.000Z</time>
      </trkpt>
      <trkpt lat="48.68509" lon="1.7277">
        <ele>173.80000305176</ele>
        <time>2012-03-15T13:12:53.000Z</time>
      </trkpt>
      <trkpt lat="48.68506" lon="1.72784">
        <ele>173.80000305176</ele>
        <time>2012-03-15T13:13:00.000Z</time>
      </trkpt>
      <trkpt lat="48.68504" lon="1.72787">
        <ele>174</ele>
        <time>2012-03-15T13:13:02.000Z</time>
      </trkpt>
      <trkpt lat="48.68502" lon="1.72792">
        <ele>174</ele>
        <time>2012-03-15T13:13:09.000Z</time>
      </trkpt>
      <trkpt lat="48.68501" lon="1.72797">
        <ele>174</ele>
        <time>2012-03-15T13:13:22.000Z</time>
      </trkpt>
      <trkpt lat="48.68498" lon="1.72802">
        <ele>174</ele>
        <time>2012-03-15T13:13:27.000Z</time>
      </trkpt>
      <trkpt lat="48.68495" lon="1.72806">
        <ele>174</ele>
        <time>2012-03-15T13:14:04.000Z</time>
      </trkpt>
      <trkpt lat="48.68503" lon="1.72803">
        <ele>174</ele>
        <time>2012-03-15T13:14:07.000Z</time>
      </trkpt>
      <trkpt lat="48.68509" lon="1.728">
        <ele>173.80000305176</ele>
        <time>2012-03-15T13:14:11.000Z</time>
      </trkpt>
      <trkpt lat="48.68513" lon="1.72806">
        <ele>173.80000305176</ele>
        <time>2012-03-15T13:14:15.000Z</time>
      </trkpt>
      <trkpt lat="48.68516" lon="1.72821">
        <ele>173.60000610352</ele>
        <time>2012-03-15T13:14:23.000Z</time>
      </trkpt>
      <trkpt lat="48.68516" lon="1.72834">
        <ele>173.60000610352</ele>
        <time>2012-03-15T13:14:30.000Z</time>
      </trkpt>
      <trkpt lat="48.68516" lon="1.7285">
        <ele>173.19999694824</ele>
        <time>2012-03-15T13:14:38.000Z</time>
      </trkpt>
      <trkpt lat="48.68516" lon="1.72867">
        <ele>172.60000610352</ele>
        <time>2012-03-15T13:14:46.000Z</time>
      </trkpt>
      <trkpt lat="48.68515" lon="1.72883">
        <ele>172.19999694824</ele>
        <time>2012-03-15T13:14:53.000Z</time>
      </trkpt>
      <trkpt lat="48.68515" lon="1.72897">
        <ele>171.80000305176</ele>
        <time>2012-03-15T13:15:00.000Z</time>
      </trkpt>
      <trkpt lat="48.68517" lon="1.72915">
        <ele>171.19999694824</ele>
        <time>2012-03-15T13:15:08.000Z</time>
      </trkpt>
      <trkpt lat="48.68518" lon="1.72939">
        <ele>170.80000305176</ele>
        <time>2012-03-15T13:15:18.000Z</time>
      </trkpt>
      <trkpt lat="48.68519" lon="1.72953">
        <ele>170.39999389648</ele>
        <time>2012-03-15T13:15:24.000Z</time>
      </trkpt>
      <trkpt lat="48.6852" lon="1.72972">
        <ele>170</ele>
        <time>2012-03-15T13:15:32.000Z</time>
      </trkpt>
      <trkpt lat="48.68523" lon="1.72992">
        <ele>169.80000305176</ele>
        <time>2012-03-15T13:15:41.000Z</time>
      </trkpt>
      <trkpt lat="48.68526" lon="1.73009">
        <ele>169.39999389648</ele>
        <time>2012-03-15T13:15:49.000Z</time>
      </trkpt>
      <trkpt lat="48.68528" lon="1.73021">
        <ele>169.19999694824</ele>
        <time>2012-03-15T13:15:54.000Z</time>
      </trkpt>
      <trkpt lat="48.68532" lon="1.73042">
        <ele>168.80000305176</ele>
        <time>2012-03-15T13:16:04.000Z</time>
      </trkpt>
      <trkpt lat="48.68534" lon="1.73058">
        <ele>168.39999389648</ele>
        <time>2012-03-15T13:16:11.000Z</time>
      </trkpt>
      <trkpt lat="48.68538" lon="1.73084">
        <ele>168</ele>
        <time>2012-03-15T13:16:22.000Z</time>
      </trkpt>
      <trkpt lat="48.68541" lon="1.7311">
        <ele>168</ele>
        <time>2012-03-15T13:16:33.000Z</time>
      </trkpt>
      <trkpt lat="48.68545" lon="1.73134">
        <ele>168.19999694824</ele>
        <time>2012-03-15T13:16:43.000Z</time>
      </trkpt>
      <trkpt lat="48.68549" lon="1.73154">
        <ele>168.39999389648</ele>
        <time>2012-03-15T13:16:52.000Z</time>
      </trkpt>
      <trkpt lat="48.68555" lon="1.73164">
        <ele>168.60000610352</ele>
        <time>2012-03-15T13:16:58.000Z</time>
      </trkpt>
      <trkpt lat="48.68563" lon="1.73166">
        <ele>169</ele>
        <time>2012-03-15T13:17:04.000Z</time>
      </trkpt>
      <trkpt lat="48.68563" lon="1.73168">
        <ele>169</ele>
        <time>2012-03-15T13:17:05.000Z</time>
      </trkpt>
      <trkpt lat="48.68559" lon="1.73178">
        <ele>168.39999389648</ele>
        <time>2012-03-15T13:17:12.000Z</time>
      </trkpt>
      <trkpt lat="48.68557" lon="1.73191">
        <ele>168</ele>
        <time>2012-03-15T13:17:17.000Z</time>
      </trkpt>
      <trkpt lat="48.68558" lon="1.73202">
        <ele>167.80000305176</ele>
        <time>2012-03-15T13:17:21.000Z</time>
      </trkpt>
      <trkpt lat="48.68559" lon="1.73224">
        <ele>167</ele>
        <time>2012-03-15T13:17:29.000Z</time>
      </trkpt>
      <trkpt lat="48.68559" lon="1.73239">
        <ele>166.60000610352</ele>
        <time>2012-03-15T13:17:35.000Z</time>
      </trkpt>
      <trkpt lat="48.68559" lon="1.73248">
        <ele>166.39999389648</ele>
        <time>2012-03-15T13:17:39.000Z</time>
      </trkpt>
      <trkpt lat="48.68562" lon="1.73268">
        <ele>166.60000610352</ele>
        <time>2012-03-15T13:17:47.000Z</time>
      </trkpt>
      <trkpt lat="48.68565" lon="1.73287">
        <ele>166.80000305176</ele>
        <time>2012-03-15T13:17:55.000Z</time>
      </trkpt>
      <trkpt lat="48.68567" lon="1.73308">
        <ele>167</ele>
        <time>2012-03-15T13:18:04.000Z</time>
      </trkpt>
      <trkpt lat="48.6857" lon="1.73323">
        <ele>167.19999694824</ele>
        <time>2012-03-15T13:18:10.000Z</time>
      </trkpt>
      <trkpt lat="48.68574" lon="1.73337">
        <ele>167.19999694824</ele>
        <time>2012-03-15T13:18:16.000Z</time>
      </trkpt>
      <trkpt lat="48.68578" lon="1.73354">
        <ele>167.19999694824</ele>
        <time>2012-03-15T13:18:23.000Z</time>
      </trkpt>
      <trkpt lat="48.68581" lon="1.73368">
        <ele>167</ele>
        <time>2012-03-15T13:18:29.000Z</time>
      </trkpt>
      <trkpt lat="48.68584" lon="1.73384">
        <ele>167</ele>
        <time>2012-03-15T13:18:36.000Z</time>
      </trkpt>
      <trkpt lat="48.68585" lon="1.73396">
        <ele>167</ele>
        <time>2012-03-15T13:18:41.000Z</time>
      </trkpt>
      <trkpt lat="48.68586" lon="1.73411">
        <ele>166.80000305176</ele>
        <time>2012-03-15T13:18:47.000Z</time>
      </trkpt>
      <trkpt lat="48.68587" lon="1.73413">
        <ele>166.80000305176</ele>
        <time>2012-03-15T13:18:48.000Z</time>
      </trkpt>
      <trkpt lat="48.68589" lon="1.73428">
        <ele>166.39999389648</ele>
        <time>2012-03-15T13:18:55.000Z</time>
      </trkpt>
      <trkpt lat="48.68592" lon="1.73442">
        <ele>165.80000305176</ele>
        <time>2012-03-15T13:19:01.000Z</time>
      </trkpt>
      <trkpt lat="48.68592" lon="1.73443">
        <ele>165.60000610352</ele>
        <time>2012-03-15T13:19:02.000Z</time>
      </trkpt>
      <trkpt lat="48.68595" lon="1.73446">
        <ele>165.39999389648</ele>
        <time>2012-03-15T13:19:09.000Z</time>
      </trkpt>
      <trkpt lat="48.68596" lon="1.73456">
        <ele>165.19999694824</ele>
        <time>2012-03-15T13:19:17.000Z</time>
      </trkpt>
      <trkpt lat="48.68598" lon="1.73466">
        <ele>164.80000305176</ele>
        <time>2012-03-15T13:19:21.000Z</time>
      </trkpt>
      <trkpt lat="48.68601" lon="1.73483">
        <ele>164.39999389648</ele>
        <time>2012-03-15T13:19:28.000Z</time>
      </trkpt>
      <trkpt lat="48.68602" lon="1.73484">
        <ele>164.39999389648</ele>
        <time>2012-03-15T13:19:29.000Z</time>
      </trkpt>
      <trkpt lat="48.68606" lon="1.73504">
        <ele>164</ele>
        <time>2012-03-15T13:19:37.000Z</time>
      </trkpt>
      <trkpt lat="48.68606" lon="1.73519">
        <ele>163.80000305176</ele>
        <time>2012-03-15T13:19:43.000Z</time>
      </trkpt>
      <trkpt lat="48.68606" lon="1.73538">
        <ele>163.60000610352</ele>
        <time>2012-03-15T13:19:51.000Z</time>
      </trkpt>
      <trkpt lat="48.68609" lon="1.73555">
        <ele>163.39999389648</ele>
        <time>2012-03-15T13:19:58.000Z</time>
      </trkpt>
      <trkpt lat="48.68609" lon="1.73563">
        <ele>163.39999389648</ele>
        <time>2012-03-15T13:20:02.000Z</time>
      </trkpt>
      <trkpt lat="48.68611" lon="1.73577">
        <ele>163.39999389648</ele>
        <time>2012-03-15T13:20:07.000Z</time>
      </trkpt>
      <trkpt lat="48.68612" lon="1.73591">
        <ele>163.60000610352</ele>
        <time>2012-03-15T13:20:13.000Z</time>
      </trkpt>
      <trkpt lat="48.68613" lon="1.73601">
        <ele>163.80000305176</ele>
        <time>2012-03-15T13:20:18.000Z</time>
      </trkpt>
      <trkpt lat="48.68614" lon="1.73605">
        <ele>163.80000305176</ele>
        <time>2012-03-15T13:20:20.000Z</time>
      </trkpt>
      <trkpt lat="48.68617" lon="1.73619">
        <ele>164.39999389648</ele>
        <time>2012-03-15T13:20:28.000Z</time>
      </trkpt>
      <trkpt lat="48.68619" lon="1.73634">
        <ele>164.80000305176</ele>
        <time>2012-03-15T13:20:35.000Z</time>
      </trkpt>
      <trkpt lat="48.68621" lon="1.73648">
        <ele>165.19999694824</ele>
        <time>2012-03-15T13:20:42.000Z</time>
      </trkpt>
      <trkpt lat="48.68622" lon="1.7366">
        <ele>165.60000610352</ele>
        <time>2012-03-15T13:20:48.000Z</time>
      </trkpt>
      <trkpt lat="48.68624" lon="1.73671">
        <ele>166.19999694824</ele>
        <time>2012-03-15T13:20:53.000Z</time>
      </trkpt>
      <trkpt lat="48.68624" lon="1.7368">
        <ele>166.39999389648</ele>
        <time>2012-03-15T13:20:57.000Z</time>
      </trkpt>
      <trkpt lat="48.68629" lon="1.73696">
        <ele>167.60000610352</ele>
        <time>2012-03-15T13:21:06.000Z</time>
      </trkpt>
      <trkpt lat="48.6863" lon="1.73698">
        <ele>167.60000610352</ele>
        <time>2012-03-15T13:21:07.000Z</time>
      </trkpt>
      <trkpt lat="48.6863" lon="1.73703">
        <ele>168</ele>
        <time>2012-03-15T13:21:10.000Z</time>
      </trkpt>
      <trkpt lat="48.68637" lon="1.73708">
        <ele>168.60000610352</ele>
        <time>2012-03-15T13:21:15.000Z</time>
      </trkpt>
      <trkpt lat="48.6864" lon="1.73708">
        <ele>169</ele>
        <time>2012-03-15T13:21:18.000Z</time>
      </trkpt>
      <trkpt lat="48.68648" lon="1.73702">
        <ele>169.39999389648</ele>
        <time>2012-03-15T13:21:24.000Z</time>
      </trkpt>
      <trkpt lat="48.68656" lon="1.73702">
        <ele>170</ele>
        <time>2012-03-15T13:21:30.000Z</time>
      </trkpt>
      <trkpt lat="48.68665" lon="1.73702">
        <ele>170.80000305176</ele>
        <time>2012-03-15T13:21:37.000Z</time>
      </trkpt>
      <trkpt lat="48.68673" lon="1.73705">
        <ele>170.80000305176</ele>
        <time>2012-03-15T13:21:42.000Z</time>
      </trkpt>
      <trkpt lat="48.68681" lon="1.7371">
        <ele>170.80000305176</ele>
        <time>2012-03-15T13:21:49.000Z</time>
      </trkpt>
      <trkpt lat="48.68686" lon="1.73704">
        <ele>170.60000610352</ele>
        <time>2012-03-15T13:21:54.000Z</time>
      </trkpt>
      <trkpt lat="48.68691" lon="1.73693">
        <ele>170.39999389648</ele>
        <time>2012-03-15T13:22:00.000Z</time>
      </trkpt>
      <trkpt lat="48.68695" lon="1.73685">
        <ele>170.19999694824</ele>
        <time>2012-03-15T13:22:05.000Z</time>
      </trkpt>
      <trkpt lat="48.68701" lon="1.73672">
        <ele>170</ele>
        <time>2012-03-15T13:22:13.000Z</time>
      </trkpt>
      <trkpt lat="48.68707" lon="1.7366">
        <ele>169.80000305176</ele>
        <time>2012-03-15T13:22:20.000Z</time>
      </trkpt>
      <trkpt lat="48.68712" lon="1.73649">
        <ele>169.60000610352</ele>
        <time>2012-03-15T13:22:27.000Z</time>
      </trkpt>
      <trkpt lat="48.68719" lon="1.73634">
        <ele>169.39999389648</ele>
        <time>2012-03-15T13:22:36.000Z</time>
      </trkpt>
      <trkpt lat="48.68724" lon="1.73621">
        <ele>169.39999389648</ele>
        <time>2012-03-15T13:22:43.000Z</time>
      </trkpt>
      <trkpt lat="48.68728" lon="1.73604">
        <ele>169.19999694824</ele>
        <time>2012-03-15T13:22:51.000Z</time>
      </trkpt>
      <trkpt lat="48.68733" lon="1.73592">
        <ele>169.19999694824</ele>
        <time>2012-03-15T13:22:58.000Z</time>
      </trkpt>
      <trkpt lat="48.68739" lon="1.7358">
        <ele>169.39999389648</ele>
        <time>2012-03-15T13:23:05.000Z</time>
      </trkpt>
      <trkpt lat="48.68748" lon="1.73574">
        <ele>169.80000305176</ele>
        <time>2012-03-15T13:23:10.000Z</time>
      </trkpt>
      <trkpt lat="48.68752" lon="1.73574">
        <ele>169.80000305176</ele>
        <time>2012-03-15T13:23:12.000Z</time>
      </trkpt>
      <trkpt lat="48.68764" lon="1.73574">
        <ele>170</ele>
        <time>2012-03-15T13:23:18.000Z</time>
      </trkpt>
      <trkpt lat="48.68774" lon="1.73575">
        <ele>170</ele>
        <time>2012-03-15T13:23:25.000Z</time>
      </trkpt>
      <trkpt lat="48.68785" lon="1.73576">
        <ele>170</ele>
        <time>2012-03-15T13:23:32.000Z</time>
      </trkpt>
      <trkpt lat="48.68793" lon="1.73578">
        <ele>170</ele>
        <time>2012-03-15T13:23:38.000Z</time>
      </trkpt>
      <trkpt lat="48.68798" lon="1.73575">
        <ele>170</ele>
        <time>2012-03-15T13:23:43.000Z</time>
      </trkpt>
      <trkpt lat="48.688" lon="1.73575">
        <ele>170</ele>
        <time>2012-03-15T13:23:47.000Z</time>
      </trkpt>
      <trkpt lat="48.68809" lon="1.73577">
        <ele>170</ele>
        <time>2012-03-15T13:24:01.000Z</time>
      </trkpt>
      <trkpt lat="48.6882" lon="1.73577">
        <ele>170.19999694824</ele>
        <time>2012-03-15T13:24:07.000Z</time>
      </trkpt>
      <trkpt lat="48.68827" lon="1.73577">
        <ele>170.19999694824</ele>
        <time>2012-03-15T13:24:12.000Z</time>
      </trkpt>
      <trkpt lat="48.68829" lon="1.73577">
        <ele>170.19999694824</ele>
        <time>2012-03-15T13:24:14.000Z</time>
      </trkpt>
      <trkpt lat="48.68838" lon="1.73579">
        <ele>170</ele>
        <time>2012-03-15T13:24:22.000Z</time>
      </trkpt>
      <trkpt lat="48.68841" lon="1.7358">
        <ele>170</ele>
        <time>2012-03-15T13:24:24.000Z</time>
      </trkpt>
      <trkpt lat="48.6885" lon="1.73581">
        <ele>169.80000305176</ele>
        <time>2012-03-15T13:24:30.000Z</time>
      </trkpt>
      <trkpt lat="48.6886" lon="1.73581">
        <ele>169.80000305176</ele>
        <time>2012-03-15T13:24:37.000Z</time>
      </trkpt>
      <trkpt lat="48.68869" lon="1.73583">
        <ele>169.60000610352</ele>
        <time>2012-03-15T13:24:43.000Z</time>
      </trkpt>
      <trkpt lat="48.68877" lon="1.73585">
        <ele>169.39999389648</ele>
        <time>2012-03-15T13:24:49.000Z</time>
      </trkpt>
      <trkpt lat="48.68887" lon="1.73588">
        <ele>169.39999389648</ele>
        <time>2012-03-15T13:24:57.000Z</time>
      </trkpt>
      <trkpt lat="48.68901" lon="1.73589">
        <ele>169.39999389648</ele>
        <time>2012-03-15T13:25:07.000Z</time>
      </trkpt>
      <trkpt lat="48.68911" lon="1.73591">
        <ele>169.19999694824</ele>
        <time>2012-03-15T13:25:14.000Z</time>
      </trkpt>
      <trkpt lat="48.68922" lon="1.73589">
        <ele>169.19999694824</ele>
        <time>2012-03-15T13:25:21.000Z</time>
      </trkpt>
      <trkpt lat="48.68936" lon="1.73589">
        <ele>169.60000610352</ele>
        <time>2012-03-15T13:25:30.000Z</time>
      </trkpt>
      <trkpt lat="48.68947" lon="1.7359">
        <ele>169.80000305176</ele>
        <time>2012-03-15T13:25:38.000Z</time>
      </trkpt>
      <trkpt lat="48.68963" lon="1.73592">
        <ele>170.39999389648</ele>
        <time>2012-03-15T13:25:49.000Z</time>
      </trkpt>
      <trkpt lat="48.68977" lon="1.73595">
        <ele>170.80000305176</ele>
        <time>2012-03-15T13:25:59.000Z</time>
      </trkpt>
      <trkpt lat="48.68988" lon="1.73594">
        <ele>171</ele>
        <time>2012-03-15T13:26:07.000Z</time>
      </trkpt>
      <trkpt lat="48.69" lon="1.73593">
        <ele>171.19999694824</ele>
        <time>2012-03-15T13:26:15.000Z</time>
      </trkpt>
      <trkpt lat="48.6901" lon="1.73596">
        <ele>171.80000305176</ele>
        <time>2012-03-15T13:26:23.000Z</time>
      </trkpt>
      <trkpt lat="48.69023" lon="1.73598">
        <ele>172.60000610352</ele>
        <time>2012-03-15T13:26:33.000Z</time>
      </trkpt>
      <trkpt lat="48.69034" lon="1.736">
        <ele>173.19999694824</ele>
        <time>2012-03-15T13:26:40.000Z</time>
      </trkpt>
      <trkpt lat="48.69049" lon="1.73602">
        <ele>174</ele>
        <time>2012-03-15T13:26:49.000Z</time>
      </trkpt>
      <trkpt lat="48.69057" lon="1.73601">
        <ele>174.39999389648</ele>
        <time>2012-03-15T13:26:56.000Z</time>
      </trkpt>
      <trkpt lat="48.69066" lon="1.73604">
        <ele>174.80000305176</ele>
        <time>2012-03-15T13:27:03.000Z</time>
      </trkpt>
      <trkpt lat="48.69075" lon="1.73604">
        <ele>175.39999389648</ele>
        <time>2012-03-15T13:27:10.000Z</time>
      </trkpt>
      <trkpt lat="48.69076" lon="1.73612">
        <ele>175.39999389648</ele>
        <time>2012-03-15T13:27:16.000Z</time>
      </trkpt>
      <trkpt lat="48.69076" lon="1.73614">
        <ele>175.19999694824</ele>
        <time>2012-03-15T13:27:18.000Z</time>
      </trkpt>
      <trkpt lat="48.69073" lon="1.73623">
        <ele>175</ele>
        <time>2012-03-15T13:27:26.000Z</time>
      </trkpt>
      <trkpt lat="48.69074" lon="1.7363">
        <ele>175</ele>
        <time>2012-03-15T13:27:31.000Z</time>
      </trkpt>
      <trkpt lat="48.69072" lon="1.73633">
        <ele>175</ele>
        <time>2012-03-15T13:27:36.000Z</time>
      </trkpt>
      <trkpt lat="48.69072" lon="1.73633">
        <ele>175</ele>
        <time>2012-03-15T13:27:37.000Z</time>
      </trkpt>
      <trkpt lat="48.69066" lon="1.73627">
        <ele>174.80000305176</ele>
        <time>2012-03-15T13:27:45.000Z</time>
      </trkpt>
      <trkpt lat="48.69062" lon="1.73625">
        <ele>174.60000610352</ele>
        <time>2012-03-15T13:27:50.000Z</time>
      </trkpt>
      <trkpt lat="48.69055" lon="1.73632">
        <ele>174.39999389648</ele>
        <time>2012-03-15T13:28:02.000Z</time>
      </trkpt>
      <trkpt lat="48.69053" lon="1.73638">
        <ele>174.19999694824</ele>
        <time>2012-03-15T13:28:05.000Z</time>
      </trkpt>
      <trkpt lat="48.69047" lon="1.73646">
        <ele>174</ele>
        <time>2012-03-15T13:28:11.000Z</time>
      </trkpt>
      <trkpt lat="48.69044" lon="1.73654">
        <ele>174</ele>
        <time>2012-03-15T13:28:16.000Z</time>
      </trkpt>
      <trkpt lat="48.69037" lon="1.73665">
        <ele>173.80000305176</ele>
        <time>2012-03-15T13:28:23.000Z</time>
      </trkpt>
      <trkpt lat="48.6903" lon="1.73673">
        <ele>173.80000305176</ele>
        <time>2012-03-15T13:28:29.000Z</time>
      </trkpt>
      <trkpt lat="48.69023" lon="1.73684">
        <ele>174</ele>
        <time>2012-03-15T13:28:36.000Z</time>
      </trkpt>
      <trkpt lat="48.69022" lon="1.73687">
        <ele>174</ele>
        <time>2012-03-15T13:28:38.000Z</time>
      </trkpt>
      <trkpt lat="48.69015" lon="1.73696">
        <ele>174</ele>
        <time>2012-03-15T13:28:45.000Z</time>
      </trkpt>
      <trkpt lat="48.69007" lon="1.73708">
        <ele>174.19999694824</ele>
        <time>2012-03-15T13:28:52.000Z</time>
      </trkpt>
      <trkpt lat="48.69001" lon="1.73718">
        <ele>174.19999694824</ele>
        <time>2012-03-15T13:28:58.000Z</time>
      </trkpt>
      <trkpt lat="48.68994" lon="1.73732">
        <ele>174.39999389648</ele>
        <time>2012-03-15T13:29:07.000Z</time>
      </trkpt>
      <trkpt lat="48.68988" lon="1.73742">
        <ele>174.19999694824</ele>
        <time>2012-03-15T13:29:13.000Z</time>
      </trkpt>
      <trkpt lat="48.68981" lon="1.73753">
        <ele>174</ele>
        <time>2012-03-15T13:29:21.000Z</time>
      </trkpt>
      <trkpt lat="48.68976" lon="1.73762">
        <ele>173.80000305176</ele>
        <time>2012-03-15T13:29:27.000Z</time>
      </trkpt>
      <trkpt lat="48.68968" lon="1.73774">
        <ele>173.39999389648</ele>
        <time>2012-03-15T13:29:34.000Z</time>
      </trkpt>
      <trkpt lat="48.68966" lon="1.73777">
        <ele>173.39999389648</ele>
        <time>2012-03-15T13:29:36.000Z</time>
      </trkpt>
      <trkpt lat="48.6896" lon="1.73788">
        <ele>173</ele>
        <time>2012-03-15T13:29:42.000Z</time>
      </trkpt>
      <trkpt lat="48.68959" lon="1.73789">
        <ele>173</ele>
        <time>2012-03-15T13:29:43.000Z</time>
      </trkpt>
      <trkpt lat="48.68951" lon="1.73803">
        <ele>172.60000610352</ele>
        <time>2012-03-15T13:29:51.000Z</time>
      </trkpt>
      <trkpt lat="48.68944" lon="1.73814">
        <ele>172.19999694824</ele>
        <time>2012-03-15T13:29:58.000Z</time>
      </trkpt>
      <trkpt lat="48.68936" lon="1.73826">
        <ele>172</ele>
        <time>2012-03-15T13:30:05.000Z</time>
      </trkpt>
      <trkpt lat="48.6893" lon="1.73835">
        <ele>171.60000610352</ele>
        <time>2012-03-15T13:30:11.000Z</time>
      </trkpt>
      <trkpt lat="48.68924" lon="1.73847">
        <ele>171.39999389648</ele>
        <time>2012-03-15T13:30:18.000Z</time>
      </trkpt>
      <trkpt lat="48.68916" lon="1.73861">
        <ele>171.19999694824</ele>
        <time>2012-03-15T13:30:26.000Z</time>
      </trkpt>
      <trkpt lat="48.6891" lon="1.73869">
        <ele>171</ele>
        <time>2012-03-15T13:30:32.000Z</time>
      </trkpt>
      <trkpt lat="48.68906" lon="1.73877">
        <ele>171</ele>
        <time>2012-03-15T13:30:38.000Z</time>
      </trkpt>
      <trkpt lat="48.689" lon="1.73885">
        <ele>170.60000610352</ele>
        <time>2012-03-15T13:30:44.000Z</time>
      </trkpt>
      <trkpt lat="48.68894" lon="1.73895">
        <ele>170.39999389648</ele>
        <time>2012-03-15T13:30:51.000Z</time>
      </trkpt>
      <trkpt lat="48.68889" lon="1.73904">
        <ele>170.19999694824</ele>
        <time>2012-03-15T13:30:56.000Z</time>
      </trkpt>
      <trkpt lat="48.68886" lon="1.73909">
        <ele>170</ele>
        <time>2012-03-15T13:30:59.000Z</time>
      </trkpt>
      <trkpt lat="48.68882" lon="1.73915">
        <ele>169.80000305176</ele>
        <time>2012-03-15T13:31:03.000Z</time>
      </trkpt>
      <trkpt lat="48.6888" lon="1.73918">
        <ele>169.80000305176</ele>
        <time>2012-03-15T13:31:06.000Z</time>
      </trkpt>
      <trkpt lat="48.68872" lon="1.73931">
        <ele>169</ele>
        <time>2012-03-15T13:31:14.000Z</time>
      </trkpt>
      <trkpt lat="48.68867" lon="1.73937">
        <ele>168.60000610352</ele>
        <time>2012-03-15T13:31:18.000Z</time>
      </trkpt>
      <trkpt lat="48.68862" lon="1.73946">
        <ele>168</ele>
        <time>2012-03-15T13:31:25.000Z</time>
      </trkpt>
      <trkpt lat="48.6886" lon="1.73949">
        <ele>167.80000305176</ele>
        <time>2012-03-15T13:31:27.000Z</time>
      </trkpt>
      <trkpt lat="48.68856" lon="1.73954">
        <ele>167.39999389648</ele>
        <time>2012-03-15T13:31:31.000Z</time>
      </trkpt>
      <trkpt lat="48.6885" lon="1.7396">
        <ele>167</ele>
        <time>2012-03-15T13:31:38.000Z</time>
      </trkpt>
      <trkpt lat="48.68845" lon="1.73969">
        <ele>166.39999389648</ele>
        <time>2012-03-15T13:31:45.000Z</time>
      </trkpt>
      <trkpt lat="48.68839" lon="1.73977">
        <ele>166</ele>
        <time>2012-03-15T13:31:52.000Z</time>
      </trkpt>
      <trkpt lat="48.68833" lon="1.73987">
        <ele>165.39999389648</ele>
        <time>2012-03-15T13:32:00.000Z</time>
      </trkpt>
      <trkpt lat="48.68827" lon="1.73996">
        <ele>165</ele>
        <time>2012-03-15T13:32:07.000Z</time>
      </trkpt>
      <trkpt lat="48.68821" lon="1.74005">
        <ele>164.39999389648</ele>
        <time>2012-03-15T13:32:14.000Z</time>
      </trkpt>
      <trkpt lat="48.68814" lon="1.74016">
        <ele>163.60000610352</ele>
        <time>2012-03-15T13:32:20.000Z</time>
      </trkpt>
      <trkpt lat="48.68809" lon="1.74023">
        <ele>163</ele>
        <time>2012-03-15T13:32:25.000Z</time>
      </trkpt>
      <trkpt lat="48.68802" lon="1.74038">
        <ele>162</ele>
        <time>2012-03-15T13:32:33.000Z</time>
      </trkpt>
      <trkpt lat="48.68798" lon="1.74045">
        <ele>161.39999389648</ele>
        <time>2012-03-15T13:32:36.000Z</time>
      </trkpt>
      <trkpt lat="48.68786" lon="1.74065">
        <ele>160</ele>
        <time>2012-03-15T13:32:45.000Z</time>
      </trkpt>
      <trkpt lat="48.68777" lon="1.74078">
        <ele>159</ele>
        <time>2012-03-15T13:32:53.000Z</time>
      </trkpt>
      <trkpt lat="48.68768" lon="1.74092">
        <ele>158.19999694824</ele>
        <time>2012-03-15T13:33:01.000Z</time>
      </trkpt>
      <trkpt lat="48.68761" lon="1.741">
        <ele>157.60000610352</ele>
        <time>2012-03-15T13:33:08.000Z</time>
      </trkpt>
      <trkpt lat="48.68756" lon="1.74107">
        <ele>157.19999694824</ele>
        <time>2012-03-15T13:33:13.000Z</time>
      </trkpt>
      <trkpt lat="48.68749" lon="1.7412">
        <ele>156.80000305176</ele>
        <time>2012-03-15T13:33:21.000Z</time>
      </trkpt>
      <trkpt lat="48.68741" lon="1.74134">
        <ele>156.60000610352</ele>
        <time>2012-03-15T13:33:29.000Z</time>
      </trkpt>
      <trkpt lat="48.68733" lon="1.74144">
        <ele>156.60000610352</ele>
        <time>2012-03-15T13:33:37.000Z</time>
      </trkpt>
      <trkpt lat="48.68725" lon="1.74157">
        <ele>156.39999389648</ele>
        <time>2012-03-15T13:33:45.000Z</time>
      </trkpt>
      <trkpt lat="48.68717" lon="1.74169">
        <ele>156.19999694824</ele>
        <time>2012-03-15T13:33:53.000Z</time>
      </trkpt>
      <trkpt lat="48.68711" lon="1.74181">
        <ele>156.60000610352</ele>
        <time>2012-03-15T13:34:00.000Z</time>
      </trkpt>
      <trkpt lat="48.68708" lon="1.74187">
        <ele>156.60000610352</ele>
        <time>2012-03-15T13:34:02.000Z</time>
      </trkpt>
      <trkpt lat="48.68705" lon="1.74203">
        <ele>156.80000305176</ele>
        <time>2012-03-15T13:34:10.000Z</time>
      </trkpt>
      <trkpt lat="48.68706" lon="1.74218">
        <ele>156.80000305176</ele>
        <time>2012-03-15T13:34:17.000Z</time>
      </trkpt>
      <trkpt lat="48.68708" lon="1.7423">
        <ele>156.80000305176</ele>
        <time>2012-03-15T13:34:23.000Z</time>
      </trkpt>
      <trkpt lat="48.68715" lon="1.74232">
        <ele>156.80000305176</ele>
        <time>2012-03-15T13:34:28.000Z</time>
      </trkpt>
      <trkpt lat="48.68731" lon="1.7423">
        <ele>156.60000610352</ele>
        <time>2012-03-15T13:34:37.000Z</time>
      </trkpt>
      <trkpt lat="48.68748" lon="1.74226">
        <ele>156.39999389648</ele>
        <time>2012-03-15T13:34:42.000Z</time>
      </trkpt>
      <trkpt lat="48.68768" lon="1.74226">
        <ele>156</ele>
        <time>2012-03-15T13:34:48.000Z</time>
      </trkpt>
      <trkpt lat="48.68787" lon="1.74231">
        <ele>155.80000305176</ele>
        <time>2012-03-15T13:34:53.000Z</time>
      </trkpt>
      <trkpt lat="48.68801" lon="1.74235">
        <ele>155.39999389648</ele>
        <time>2012-03-15T13:34:57.000Z</time>
      </trkpt>
      <trkpt lat="48.68821" lon="1.74251">
        <ele>154.39999389648</ele>
        <time>2012-03-15T13:35:03.000Z</time>
      </trkpt>
      <trkpt lat="48.68828" lon="1.74276">
        <ele>154.60000610352</ele>
        <time>2012-03-15T13:35:08.000Z</time>
      </trkpt>
      <trkpt lat="48.68831" lon="1.74302">
        <ele>154.80000305176</ele>
        <time>2012-03-15T13:35:13.000Z</time>
      </trkpt>
      <trkpt lat="48.68833" lon="1.74324">
        <ele>155</ele>
        <time>2012-03-15T13:35:17.000Z</time>
      </trkpt>
      <trkpt lat="48.68835" lon="1.7436">
        <ele>156</ele>
        <time>2012-03-15T13:35:23.000Z</time>
      </trkpt>
      <trkpt lat="48.68836" lon="1.74396">
        <ele>157.19999694824</ele>
        <time>2012-03-15T13:35:29.000Z</time>
      </trkpt>
      <trkpt lat="48.68835" lon="1.74437">
        <ele>157.60000610352</ele>
        <time>2012-03-15T13:35:36.000Z</time>
      </trkpt>
      <trkpt lat="48.68838" lon="1.74465">
        <ele>156.80000305176</ele>
        <time>2012-03-15T13:35:41.000Z</time>
      </trkpt>
      <trkpt lat="48.68839" lon="1.74492">
        <ele>156.39999389648</ele>
        <time>2012-03-15T13:35:46.000Z</time>
      </trkpt>
      <trkpt lat="48.6884" lon="1.74514">
        <ele>156.19999694824</ele>
        <time>2012-03-15T13:35:50.000Z</time>
      </trkpt>
      <trkpt lat="48.68843" lon="1.74544">
        <ele>156.19999694824</ele>
        <time>2012-03-15T13:35:55.000Z</time>
      </trkpt>
      <trkpt lat="48.68844" lon="1.74583">
        <ele>156.19999694824</ele>
        <time>2012-03-15T13:36:01.000Z</time>
      </trkpt>
      <trkpt lat="48.68845" lon="1.74596">
        <ele>156.39999389648</ele>
        <time>2012-03-15T13:36:03.000Z</time>
      </trkpt>
      <trkpt lat="48.68846" lon="1.74624">
        <ele>157</ele>
        <time>2012-03-15T13:36:07.000Z</time>
      </trkpt>
      <trkpt lat="48.68848" lon="1.74655">
        <ele>157.60000610352</ele>
        <time>2012-03-15T13:36:11.000Z</time>
      </trkpt>
      <trkpt lat="48.68849" lon="1.74663">
        <ele>157.60000610352</ele>
        <time>2012-03-15T13:36:12.000Z</time>
      </trkpt>
      <trkpt lat="48.68851" lon="1.74694">
        <ele>157.60000610352</ele>
        <time>2012-03-15T13:36:16.000Z</time>
      </trkpt>
      <trkpt lat="48.68853" lon="1.74708">
        <ele>157.60000610352</ele>
        <time>2012-03-15T13:36:18.000Z</time>
      </trkpt>
      <trkpt lat="48.68858" lon="1.74729">
        <ele>157.80000305176</ele>
        <time>2012-03-15T13:36:21.000Z</time>
      </trkpt>
      <trkpt lat="48.68862" lon="1.74762">
        <ele>158</ele>
        <time>2012-03-15T13:36:25.000Z</time>
      </trkpt>
      <trkpt lat="48.68863" lon="1.74771">
        <ele>157.80000305176</ele>
        <time>2012-03-15T13:36:26.000Z</time>
      </trkpt>
      <trkpt lat="48.68867" lon="1.74797">
        <ele>157.80000305176</ele>
        <time>2012-03-15T13:36:29.000Z</time>
      </trkpt>
      <trkpt lat="48.68872" lon="1.74829">
        <ele>157.39999389648</ele>
        <time>2012-03-15T13:36:33.000Z</time>
      </trkpt>
      <trkpt lat="48.68879" lon="1.74876">
        <ele>157</ele>
        <time>2012-03-15T13:36:39.000Z</time>
      </trkpt>
      <trkpt lat="48.68885" lon="1.74898">
        <ele>157</ele>
        <time>2012-03-15T13:36:42.000Z</time>
      </trkpt>
      <trkpt lat="48.68893" lon="1.7494">
        <ele>156</ele>
        <time>2012-03-15T13:36:47.000Z</time>
      </trkpt>
      <trkpt lat="48.68894" lon="1.74957">
        <ele>155.60000610352</ele>
        <time>2012-03-15T13:36:49.000Z</time>
      </trkpt>
      <trkpt lat="48.68896" lon="1.74973">
        <ele>155</ele>
        <time>2012-03-15T13:36:51.000Z</time>
      </trkpt>
      <trkpt lat="48.68898" lon="1.74989">
        <ele>154.60000610352</ele>
        <time>2012-03-15T13:36:53.000Z</time>
      </trkpt>
      <trkpt lat="48.68904" lon="1.75034">
        <ele>154.19999694824</ele>
        <time>2012-03-15T13:36:59.000Z</time>
      </trkpt>
      <trkpt lat="48.68906" lon="1.75043">
        <ele>154.19999694824</ele>
        <time>2012-03-15T13:37:00.000Z</time>
      </trkpt>
      <trkpt lat="48.68907" lon="1.75059">
        <ele>154.19999694824</ele>
        <time>2012-03-15T13:37:02.000Z</time>
      </trkpt>
      <trkpt lat="48.6891" lon="1.75076">
        <ele>154</ele>
        <time>2012-03-15T13:37:04.000Z</time>
      </trkpt>
      <trkpt lat="48.68914" lon="1.75101">
        <ele>153.80000305176</ele>
        <time>2012-03-15T13:37:07.000Z</time>
      </trkpt>
      <trkpt lat="48.6892" lon="1.75126">
        <ele>153.39999389648</ele>
        <time>2012-03-15T13:37:11.000Z</time>
      </trkpt>
      <trkpt lat="48.68926" lon="1.75151">
        <ele>153.19999694824</ele>
        <time>2012-03-15T13:37:17.000Z</time>
      </trkpt>
      <trkpt lat="48.68932" lon="1.75182">
        <ele>153.19999694824</ele>
        <time>2012-03-15T13:37:23.000Z</time>
      </trkpt>
      <trkpt lat="48.68936" lon="1.75213">
        <ele>153.39999389648</ele>
        <time>2012-03-15T13:37:29.000Z</time>
      </trkpt>
      <trkpt lat="48.68943" lon="1.75238">
        <ele>153.60000610352</ele>
        <time>2012-03-15T13:37:34.000Z</time>
      </trkpt>
      <trkpt lat="48.68946" lon="1.75259">
        <ele>153.80000305176</ele>
        <time>2012-03-15T13:37:38.000Z</time>
      </trkpt>
      <trkpt lat="48.68944" lon="1.75286">
        <ele>154.19999694824</ele>
        <time>2012-03-15T13:37:44.000Z</time>
      </trkpt>
      <trkpt lat="48.68943" lon="1.7529">
        <ele>154.19999694824</ele>
        <time>2012-03-15T13:37:47.000Z</time>
      </trkpt>
      <trkpt lat="48.68944" lon="1.75289">
        <ele>154.19999694824</ele>
        <time>2012-03-15T13:37:51.000Z</time>
      </trkpt>
      <trkpt lat="48.68947" lon="1.75278">
        <ele>154.19999694824</ele>
        <time>2012-03-15T13:37:56.000Z</time>
      </trkpt>
      <trkpt lat="48.68947" lon="1.75274">
        <ele>154.19999694824</ele>
        <time>2012-03-15T13:37:58.000Z</time>
      </trkpt>
      <trkpt lat="48.68953" lon="1.75274">
        <ele>154.19999694824</ele>
        <time>2012-03-15T13:38:03.000Z</time>
      </trkpt>
      <trkpt lat="48.68963" lon="1.75281">
        <ele>154.80000305176</ele>
        <time>2012-03-15T13:38:09.000Z</time>
      </trkpt>
      <trkpt lat="48.68969" lon="1.75295">
        <ele>155.19999694824</ele>
        <time>2012-03-15T13:38:14.000Z</time>
      </trkpt>
      <trkpt lat="48.68974" lon="1.75305">
        <ele>155.39999389648</ele>
        <time>2012-03-15T13:38:19.000Z</time>
      </trkpt>
      <trkpt lat="48.68982" lon="1.75321">
        <ele>156</ele>
        <time>2012-03-15T13:38:27.000Z</time>
      </trkpt>
      <trkpt lat="48.68989" lon="1.75331">
        <ele>156.60000610352</ele>
        <time>2012-03-15T13:38:33.000Z</time>
      </trkpt>
      <trkpt lat="48.68992" lon="1.75335">
        <ele>156.80000305176</ele>
        <time>2012-03-15T13:38:35.000Z</time>
      </trkpt>
      <trkpt lat="48.68998" lon="1.75349">
        <ele>157.19999694824</ele>
        <time>2012-03-15T13:38:42.000Z</time>
      </trkpt>
      <trkpt lat="48.69004" lon="1.7536">
        <ele>157.39999389648</ele>
        <time>2012-03-15T13:38:48.000Z</time>
      </trkpt>
      <trkpt lat="48.69009" lon="1.75369">
        <ele>157.39999389648</ele>
        <time>2012-03-15T13:38:53.000Z</time>
      </trkpt>
      <trkpt lat="48.6901" lon="1.75371">
        <ele>157.39999389648</ele>
        <time>2012-03-15T13:38:54.000Z</time>
      </trkpt>
      <trkpt lat="48.69014" lon="1.7538">
        <ele>157.60000610352</ele>
        <time>2012-03-15T13:38:59.000Z</time>
      </trkpt>
      <trkpt lat="48.69018" lon="1.75386">
        <ele>157.60000610352</ele>
        <time>2012-03-15T13:39:02.000Z</time>
      </trkpt>
      <trkpt lat="48.69027" lon="1.75398">
        <ele>157.39999389648</ele>
        <time>2012-03-15T13:39:08.000Z</time>
      </trkpt>
      <trkpt lat="48.69032" lon="1.75406">
        <ele>157.39999389648</ele>
        <time>2012-03-15T13:39:12.000Z</time>
      </trkpt>
      <trkpt lat="48.69035" lon="1.75413">
        <ele>157.19999694824</ele>
        <time>2012-03-15T13:39:16.000Z</time>
      </trkpt>
      <trkpt lat="48.69043" lon="1.75424">
        <ele>157.19999694824</ele>
        <time>2012-03-15T13:39:22.000Z</time>
      </trkpt>
      <trkpt lat="48.69047" lon="1.75433">
        <ele>157.19999694824</ele>
        <time>2012-03-15T13:39:27.000Z</time>
      </trkpt>
      <trkpt lat="48.69049" lon="1.75437">
        <ele>157.19999694824</ele>
        <time>2012-03-15T13:39:29.000Z</time>
      </trkpt>
      <trkpt lat="48.69059" lon="1.75452">
        <ele>157.19999694824</ele>
        <time>2012-03-15T13:39:37.000Z</time>
      </trkpt>
      <trkpt lat="48.69067" lon="1.75465">
        <ele>157.19999694824</ele>
        <time>2012-03-15T13:39:44.000Z</time>
      </trkpt>
      <trkpt lat="48.69074" lon="1.75478">
        <ele>157.19999694824</ele>
        <time>2012-03-15T13:39:51.000Z</time>
      </trkpt>
      <trkpt lat="48.69084" lon="1.75497">
        <ele>157</ele>
        <time>2012-03-15T13:39:58.000Z</time>
      </trkpt>
      <trkpt lat="48.691" lon="1.75522">
        <ele>157.80000305176</ele>
        <time>2012-03-15T13:40:05.000Z</time>
      </trkpt>
      <trkpt lat="48.69114" lon="1.75548">
        <ele>158.19999694824</ele>
        <time>2012-03-15T13:40:11.000Z</time>
      </trkpt>
      <trkpt lat="48.69125" lon="1.75564">
        <ele>158.19999694824</ele>
        <time>2012-03-15T13:40:15.000Z</time>
      </trkpt>
      <trkpt lat="48.69141" lon="1.7559">
        <ele>158</ele>
        <time>2012-03-15T13:40:21.000Z</time>
      </trkpt>
      <trkpt lat="48.69154" lon="1.75614">
        <ele>158.80000305176</ele>
        <time>2012-03-15T13:40:26.000Z</time>
      </trkpt>
      <trkpt lat="48.69166" lon="1.75636">
        <ele>159.80000305176</ele>
        <time>2012-03-15T13:40:31.000Z</time>
      </trkpt>
      <trkpt lat="48.6918" lon="1.75658">
        <ele>161</ele>
        <time>2012-03-15T13:40:36.000Z</time>
      </trkpt>
      <trkpt lat="48.69191" lon="1.75677">
        <ele>161.39999389648</ele>
        <time>2012-03-15T13:40:40.000Z</time>
      </trkpt>
      <trkpt lat="48.69198" lon="1.75686">
        <ele>161.60000610352</ele>
        <time>2012-03-15T13:40:42.000Z</time>
      </trkpt>
      <trkpt lat="48.69203" lon="1.75695">
        <ele>161.60000610352</ele>
        <time>2012-03-15T13:40:44.000Z</time>
      </trkpt>
      <trkpt lat="48.69215" lon="1.75717">
        <ele>161.80000305176</ele>
        <time>2012-03-15T13:40:49.000Z</time>
      </trkpt>
      <trkpt lat="48.69222" lon="1.75732">
        <ele>161.80000305176</ele>
        <time>2012-03-15T13:40:52.000Z</time>
      </trkpt>
      <trkpt lat="48.69236" lon="1.75755">
        <ele>161.80000305176</ele>
        <time>2012-03-15T13:40:57.000Z</time>
      </trkpt>
      <trkpt lat="48.6925" lon="1.75775">
        <ele>161.80000305176</ele>
        <time>2012-03-15T13:41:02.000Z</time>
      </trkpt>
      <trkpt lat="48.69254" lon="1.75779">
        <ele>162.19999694824</ele>
        <time>2012-03-15T13:41:03.000Z</time>
      </trkpt>
      <trkpt lat="48.69273" lon="1.75812">
        <ele>163.60000610352</ele>
        <time>2012-03-15T13:41:10.000Z</time>
      </trkpt>
      <trkpt lat="48.69291" lon="1.75823">
        <ele>164.19999694824</ele>
        <time>2012-03-15T13:41:15.000Z</time>
      </trkpt>
      <trkpt lat="48.69306" lon="1.75822">
        <ele>164.39999389648</ele>
        <time>2012-03-15T13:41:19.000Z</time>
      </trkpt>
      <trkpt lat="48.69315" lon="1.75823">
        <ele>164.60000610352</ele>
        <time>2012-03-15T13:41:21.000Z</time>
      </trkpt>
      <trkpt lat="48.69323" lon="1.75824">
        <ele>164.80000305176</ele>
        <time>2012-03-15T13:41:23.000Z</time>
      </trkpt>
      <trkpt lat="48.69349" lon="1.75827">
        <ele>165.19999694824</ele>
        <time>2012-03-15T13:41:29.000Z</time>
      </trkpt>
      <trkpt lat="48.69374" lon="1.75832">
        <ele>165.39999389648</ele>
        <time>2012-03-15T13:41:35.000Z</time>
      </trkpt>
      <trkpt lat="48.69387" lon="1.75834">
        <ele>165.60000610352</ele>
        <time>2012-03-15T13:41:38.000Z</time>
      </trkpt>
      <trkpt lat="48.69406" lon="1.7584">
        <ele>166.19999694824</ele>
        <time>2012-03-15T13:41:43.000Z</time>
      </trkpt>
      <trkpt lat="48.69426" lon="1.7585">
        <ele>166.39999389648</ele>
        <time>2012-03-15T13:41:48.000Z</time>
      </trkpt>
      <trkpt lat="48.69452" lon="1.75854">
        <ele>166.19999694824</ele>
        <time>2012-03-15T13:41:55.000Z</time>
      </trkpt>
      <trkpt lat="48.69472" lon="1.75853">
        <ele>166</ele>
        <time>2012-03-15T13:42:00.000Z</time>
      </trkpt>
      <trkpt lat="48.69497" lon="1.75851">
        <ele>165.60000610352</ele>
        <time>2012-03-15T13:42:06.000Z</time>
      </trkpt>
      <trkpt lat="48.69515" lon="1.75852">
        <ele>165.80000305176</ele>
        <time>2012-03-15T13:42:11.000Z</time>
      </trkpt>
      <trkpt lat="48.69537" lon="1.75854">
        <ele>166.19999694824</ele>
        <time>2012-03-15T13:42:17.000Z</time>
      </trkpt>
      <trkpt lat="48.69555" lon="1.75852">
        <ele>166.19999694824</ele>
        <time>2012-03-15T13:42:22.000Z</time>
      </trkpt>
      <trkpt lat="48.69574" lon="1.75852">
        <ele>166.60000610352</ele>
        <time>2012-03-15T13:42:27.000Z</time>
      </trkpt>
      <trkpt lat="48.69598" lon="1.75857">
        <ele>166.19999694824</ele>
        <time>2012-03-15T13:42:33.000Z</time>
      </trkpt>
      <trkpt lat="48.69622" lon="1.75868">
        <ele>165.60000610352</ele>
        <time>2012-03-15T13:42:39.000Z</time>
      </trkpt>
      <trkpt lat="48.69643" lon="1.75878">
        <ele>165.19999694824</ele>
        <time>2012-03-15T13:42:45.000Z</time>
      </trkpt>
      <trkpt lat="48.69652" lon="1.75886">
        <ele>165.39999389648</ele>
        <time>2012-03-15T13:42:48.000Z</time>
      </trkpt>
      <trkpt lat="48.69661" lon="1.75895">
        <ele>165.60000610352</ele>
        <time>2012-03-15T13:42:51.000Z</time>
      </trkpt>
      <trkpt lat="48.69687" lon="1.75905">
        <ele>166</ele>
        <time>2012-03-15T13:42:57.000Z</time>
      </trkpt>
      <trkpt lat="48.697" lon="1.75912">
        <ele>166.39999389648</ele>
        <time>2012-03-15T13:43:00.000Z</time>
      </trkpt>
      <trkpt lat="48.69727" lon="1.75932">
        <ele>167.19999694824</ele>
        <time>2012-03-15T13:43:07.000Z</time>
      </trkpt>
      <trkpt lat="48.69743" lon="1.75938">
        <ele>167.39999389648</ele>
        <time>2012-03-15T13:43:11.000Z</time>
      </trkpt>
      <trkpt lat="48.69765" lon="1.75948">
        <ele>167.60000610352</ele>
        <time>2012-03-15T13:43:17.000Z</time>
      </trkpt>
      <trkpt lat="48.69789" lon="1.75967">
        <ele>167.80000305176</ele>
        <time>2012-03-15T13:43:24.000Z</time>
      </trkpt>
      <trkpt lat="48.698" lon="1.75976">
        <ele>167.80000305176</ele>
        <time>2012-03-15T13:43:29.000Z</time>
      </trkpt>
      <trkpt lat="48.69808" lon="1.75978">
        <ele>167.60000610352</ele>
        <time>2012-03-15T13:43:33.000Z</time>
      </trkpt>
      <trkpt lat="48.69814" lon="1.75981">
        <ele>167.39999389648</ele>
        <time>2012-03-15T13:43:37.000Z</time>
      </trkpt>
      <trkpt lat="48.69823" lon="1.75985">
        <ele>167.19999694824</ele>
        <time>2012-03-15T13:43:43.000Z</time>
      </trkpt>
      <trkpt lat="48.69825" lon="1.75987">
        <ele>167.19999694824</ele>
        <time>2012-03-15T13:43:47.000Z</time>
      </trkpt>
      <trkpt lat="48.69826" lon="1.75988">
        <ele>167.19999694824</ele>
        <time>2012-03-15T13:43:48.000Z</time>
      </trkpt>
      <trkpt lat="48.69831" lon="1.75991">
        <ele>167</ele>
        <time>2012-03-15T13:43:52.000Z</time>
      </trkpt>
      <trkpt lat="48.69838" lon="1.75998">
        <ele>167</ele>
        <time>2012-03-15T13:43:57.000Z</time>
      </trkpt>
      <trkpt lat="48.69847" lon="1.76004">
        <ele>167</ele>
        <time>2012-03-15T13:44:03.000Z</time>
      </trkpt>
      <trkpt lat="48.69857" lon="1.76011">
        <ele>167.19999694824</ele>
        <time>2012-03-15T13:44:09.000Z</time>
      </trkpt>
      <trkpt lat="48.69865" lon="1.76017">
        <ele>167.19999694824</ele>
        <time>2012-03-15T13:44:13.000Z</time>
      </trkpt>
      <trkpt lat="48.69884" lon="1.76031">
        <ele>167.19999694824</ele>
        <time>2012-03-15T13:44:19.000Z</time>
      </trkpt>
      <trkpt lat="48.69897" lon="1.76048">
        <ele>167</ele>
        <time>2012-03-15T13:44:24.000Z</time>
      </trkpt>
      <trkpt lat="48.69907" lon="1.76061">
        <ele>166.60000610352</ele>
        <time>2012-03-15T13:44:28.000Z</time>
      </trkpt>
      <trkpt lat="48.69917" lon="1.76072">
        <ele>166</ele>
        <time>2012-03-15T13:44:32.000Z</time>
      </trkpt>
      <trkpt lat="48.69942" lon="1.76092">
        <ele>166</ele>
        <time>2012-03-15T13:44:38.000Z</time>
      </trkpt>
      <trkpt lat="48.69957" lon="1.76107">
        <ele>166.19999694824</ele>
        <time>2012-03-15T13:44:42.000Z</time>
      </trkpt>
      <trkpt lat="48.69978" lon="1.76133">
        <ele>166.39999389648</ele>
        <time>2012-03-15T13:44:48.000Z</time>
      </trkpt>
      <trkpt lat="48.69987" lon="1.76146">
        <ele>166.19999694824</ele>
        <time>2012-03-15T13:44:51.000Z</time>
      </trkpt>
      <trkpt lat="48.69998" lon="1.76166">
        <ele>166.19999694824</ele>
        <time>2012-03-15T13:44:55.000Z</time>
      </trkpt>
      <trkpt lat="48.70005" lon="1.76174">
        <ele>166.19999694824</ele>
        <time>2012-03-15T13:44:57.000Z</time>
      </trkpt>
      <trkpt lat="48.70021" lon="1.76191">
        <ele>166.60000610352</ele>
        <time>2012-03-15T13:45:01.000Z</time>
      </trkpt>
      <trkpt lat="48.70039" lon="1.76207">
        <ele>167</ele>
        <time>2012-03-15T13:45:06.000Z</time>
      </trkpt>
      <trkpt lat="48.70061" lon="1.76225">
        <ele>167.39999389648</ele>
        <time>2012-03-15T13:45:13.000Z</time>
      </trkpt>
      <trkpt lat="48.70076" lon="1.76239">
        <ele>167.80000305176</ele>
        <time>2012-03-15T13:45:18.000Z</time>
      </trkpt>
      <trkpt lat="48.70093" lon="1.76263">
        <ele>168.19999694824</ele>
        <time>2012-03-15T13:45:24.000Z</time>
      </trkpt>
      <trkpt lat="48.70106" lon="1.76292">
        <ele>168.60000610352</ele>
        <time>2012-03-15T13:45:30.000Z</time>
      </trkpt>
      <trkpt lat="48.7012" lon="1.76311">
        <ele>169</ele>
        <time>2012-03-15T13:45:35.000Z</time>
      </trkpt>
      <trkpt lat="48.70132" lon="1.76323">
        <ele>169.39999389648</ele>
        <time>2012-03-15T13:45:39.000Z</time>
      </trkpt>
      <trkpt lat="48.7015" lon="1.76329">
        <ele>169.80000305176</ele>
        <time>2012-03-15T13:45:44.000Z</time>
      </trkpt>
      <trkpt lat="48.7017" lon="1.76337">
        <ele>170.19999694824</ele>
        <time>2012-03-15T13:45:49.000Z</time>
      </trkpt>
      <trkpt lat="48.70183" lon="1.76341">
        <ele>170.60000610352</ele>
        <time>2012-03-15T13:45:52.000Z</time>
      </trkpt>
      <trkpt lat="48.70203" lon="1.76348">
        <ele>171.19999694824</ele>
        <time>2012-03-15T13:45:57.000Z</time>
      </trkpt>
      <trkpt lat="48.70211" lon="1.76353">
        <ele>171.39999389648</ele>
        <time>2012-03-15T13:45:59.000Z</time>
      </trkpt>
      <trkpt lat="48.70221" lon="1.76362">
        <ele>171.80000305176</ele>
        <time>2012-03-15T13:46:02.000Z</time>
      </trkpt>
      <trkpt lat="48.70236" lon="1.76383">
        <ele>172.39999389648</ele>
        <time>2012-03-15T13:46:07.000Z</time>
      </trkpt>
      <trkpt lat="48.70254" lon="1.76404">
        <ele>173</ele>
        <time>2012-03-15T13:46:12.000Z</time>
      </trkpt>
      <trkpt lat="48.70259" lon="1.7641">
        <ele>173.19999694824</ele>
        <time>2012-03-15T13:46:14.000Z</time>
      </trkpt>
      <trkpt lat="48.70275" lon="1.76422">
        <ele>174</ele>
        <time>2012-03-15T13:46:20.000Z</time>
      </trkpt>
      <trkpt lat="48.70283" lon="1.76425">
        <ele>174.39999389648</ele>
        <time>2012-03-15T13:46:24.000Z</time>
      </trkpt>
      <trkpt lat="48.70297" lon="1.76428">
        <ele>175</ele>
        <time>2012-03-15T13:46:32.000Z</time>
      </trkpt>
      <trkpt lat="48.70305" lon="1.7643">
        <ele>175.39999389648</ele>
        <time>2012-03-15T13:46:37.000Z</time>
      </trkpt>
      <trkpt lat="48.70308" lon="1.7643">
        <ele>175.39999389648</ele>
        <time>2012-03-15T13:46:39.000Z</time>
      </trkpt>
      <trkpt lat="48.70314" lon="1.76432">
        <ele>175.80000305176</ele>
        <time>2012-03-15T13:46:43.000Z</time>
      </trkpt>
      <trkpt lat="48.70321" lon="1.76428">
        <ele>175.80000305176</ele>
        <time>2012-03-15T13:46:50.000Z</time>
      </trkpt>
      <trkpt lat="48.70323" lon="1.76426">
        <ele>175.80000305176</ele>
        <time>2012-03-15T13:46:51.000Z</time>
      </trkpt>
      <trkpt lat="48.70332" lon="1.7642">
        <ele>176</ele>
        <time>2012-03-15T13:46:58.000Z</time>
      </trkpt>
      <trkpt lat="48.70342" lon="1.76414">
        <ele>176</ele>
        <time>2012-03-15T13:47:06.000Z</time>
      </trkpt>
      <trkpt lat="48.70351" lon="1.76412">
        <ele>176.19999694824</ele>
        <time>2012-03-15T13:47:12.000Z</time>
      </trkpt>
      <trkpt lat="48.70364" lon="1.76412">
        <ele>176.39999389648</ele>
        <time>2012-03-15T13:47:20.000Z</time>
      </trkpt>
      <trkpt lat="48.70376" lon="1.76412">
        <ele>176.80000305176</ele>
        <time>2012-03-15T13:47:28.000Z</time>
      </trkpt>
      <trkpt lat="48.70386" lon="1.76408">
        <ele>176.80000305176</ele>
        <time>2012-03-15T13:47:35.000Z</time>
      </trkpt>
      <trkpt lat="48.70396" lon="1.76401">
        <ele>176.80000305176</ele>
        <time>2012-03-15T13:47:42.000Z</time>
      </trkpt>
      <trkpt lat="48.70404" lon="1.76399">
        <ele>176.80000305176</ele>
        <time>2012-03-15T13:47:48.000Z</time>
      </trkpt>
      <trkpt lat="48.70411" lon="1.76393">
        <ele>176.80000305176</ele>
        <time>2012-03-15T13:47:54.000Z</time>
      </trkpt>
      <trkpt lat="48.70414" lon="1.76393">
        <ele>176.80000305176</ele>
        <time>2012-03-15T13:47:56.000Z</time>
      </trkpt>
      <trkpt lat="48.70425" lon="1.76386">
        <ele>176.19999694824</ele>
        <time>2012-03-15T13:48:04.000Z</time>
      </trkpt>
      <trkpt lat="48.70434" lon="1.76382">
        <ele>175.80000305176</ele>
        <time>2012-03-15T13:48:10.000Z</time>
      </trkpt>
      <trkpt lat="48.70443" lon="1.76377">
        <ele>175.19999694824</ele>
        <time>2012-03-15T13:48:16.000Z</time>
      </trkpt>
      <trkpt lat="48.70447" lon="1.76373">
        <ele>174.80000305176</ele>
        <time>2012-03-15T13:48:19.000Z</time>
      </trkpt>
      <trkpt lat="48.70448" lon="1.7636">
        <ele>174.19999694824</ele>
        <time>2012-03-15T13:48:26.000Z</time>
      </trkpt>
      <trkpt lat="48.70448" lon="1.76358">
        <ele>174</ele>
        <time>2012-03-15T13:48:27.000Z</time>
      </trkpt>
      <trkpt lat="48.70448" lon="1.76342">
        <ele>173.19999694824</ele>
        <time>2012-03-15T13:48:35.000Z</time>
      </trkpt>
      <trkpt lat="48.70447" lon="1.76326">
        <ele>172.80000305176</ele>
        <time>2012-03-15T13:48:42.000Z</time>
      </trkpt>
      <trkpt lat="48.70447" lon="1.76308">
        <ele>172.80000305176</ele>
        <time>2012-03-15T13:48:50.000Z</time>
      </trkpt>
      <trkpt lat="48.70449" lon="1.76294">
        <ele>172.60000610352</ele>
        <time>2012-03-15T13:48:57.000Z</time>
      </trkpt>
      <trkpt lat="48.7045" lon="1.76287">
        <ele>172.60000610352</ele>
        <time>2012-03-15T13:49:00.000Z</time>
      </trkpt>
      <trkpt lat="48.70453" lon="1.76261">
        <ele>172.39999389648</ele>
        <time>2012-03-15T13:49:10.000Z</time>
      </trkpt>
      <trkpt lat="48.70455" lon="1.7625">
        <ele>172.19999694824</ele>
        <time>2012-03-15T13:49:15.000Z</time>
      </trkpt>
      <trkpt lat="48.70458" lon="1.76236">
        <ele>172.39999389648</ele>
        <time>2012-03-15T13:49:22.000Z</time>
      </trkpt>
      <trkpt lat="48.7046" lon="1.76226">
        <ele>172.39999389648</ele>
        <time>2012-03-15T13:49:27.000Z</time>
      </trkpt>
      <trkpt lat="48.70461" lon="1.76217">
        <ele>172.60000610352</ele>
        <time>2012-03-15T13:49:31.000Z</time>
      </trkpt>
      <trkpt lat="48.7046" lon="1.762">
        <ele>173.19999694824</ele>
        <time>2012-03-15T13:49:37.000Z</time>
      </trkpt>
      <trkpt lat="48.70459" lon="1.76188">
        <ele>173.39999389648</ele>
        <time>2012-03-15T13:49:43.000Z</time>
      </trkpt>
      <trkpt lat="48.70455" lon="1.7617">
        <ele>174</ele>
        <time>2012-03-15T13:49:51.000Z</time>
      </trkpt>
      <trkpt lat="48.70454" lon="1.76154">
        <ele>174.39999389648</ele>
        <time>2012-03-15T13:49:58.000Z</time>
      </trkpt>
      <trkpt lat="48.70454" lon="1.7615">
        <ele>174.39999389648</ele>
        <time>2012-03-15T13:50:00.000Z</time>
      </trkpt>
      <trkpt lat="48.70456" lon="1.76142">
        <ele>174.39999389648</ele>
        <time>2012-03-15T13:50:04.000Z</time>
      </trkpt>
      <trkpt lat="48.70457" lon="1.7613">
        <ele>174.60000610352</ele>
        <time>2012-03-15T13:50:10.000Z</time>
      </trkpt>
      <trkpt lat="48.7046" lon="1.76113">
        <ele>174.60000610352</ele>
        <time>2012-03-15T13:50:17.000Z</time>
      </trkpt>
      <trkpt lat="48.70464" lon="1.76102">
        <ele>174.60000610352</ele>
        <time>2012-03-15T13:50:23.000Z</time>
      </trkpt>
      <trkpt lat="48.70468" lon="1.76086">
        <ele>174.39999389648</ele>
        <time>2012-03-15T13:50:32.000Z</time>
      </trkpt>
      <trkpt lat="48.70473" lon="1.7607">
        <ele>175</ele>
        <time>2012-03-15T13:50:40.000Z</time>
      </trkpt>
      <trkpt lat="48.70473" lon="1.76066">
        <ele>175.19999694824</ele>
        <time>2012-03-15T13:50:42.000Z</time>
      </trkpt>
      <trkpt lat="48.70477" lon="1.76055">
        <ele>175.80000305176</ele>
        <time>2012-03-15T13:50:48.000Z</time>
      </trkpt>
      <trkpt lat="48.70479" lon="1.76039">
        <ele>176.60000610352</ele>
        <time>2012-03-15T13:50:56.000Z</time>
      </trkpt>
      <trkpt lat="48.70481" lon="1.76031">
        <ele>177</ele>
        <time>2012-03-15T13:51:00.000Z</time>
      </trkpt>
      <trkpt lat="48.70483" lon="1.76022">
        <ele>177.39999389648</ele>
        <time>2012-03-15T13:51:04.000Z</time>
      </trkpt>
      <trkpt lat="48.70487" lon="1.76005">
        <ele>178.19999694824</ele>
        <time>2012-03-15T13:51:12.000Z</time>
      </trkpt>
      <trkpt lat="48.70489" lon="1.76001">
        <ele>178.39999389648</ele>
        <time>2012-03-15T13:51:14.000Z</time>
      </trkpt>
      <trkpt lat="48.70489" lon="1.75994">
        <ele>178.60000610352</ele>
        <time>2012-03-15T13:51:16.000Z</time>
      </trkpt>
      <trkpt lat="48.70495" lon="1.75977">
        <ele>179.19999694824</ele>
        <time>2012-03-15T13:51:24.000Z</time>
      </trkpt>
      <trkpt lat="48.70496" lon="1.75975">
        <ele>179.39999389648</ele>
        <time>2012-03-15T13:51:25.000Z</time>
      </trkpt>
      <trkpt lat="48.705" lon="1.75966">
        <ele>179.60000610352</ele>
        <time>2012-03-15T13:51:30.000Z</time>
      </trkpt>
      <trkpt lat="48.70505" lon="1.75954">
        <ele>179.80000305176</ele>
        <time>2012-03-15T13:51:37.000Z</time>
      </trkpt>
      <trkpt lat="48.70512" lon="1.75946">
        <ele>179.80000305176</ele>
        <time>2012-03-15T13:51:43.000Z</time>
      </trkpt>
      <trkpt lat="48.70513" lon="1.75945">
        <ele>179.80000305176</ele>
        <time>2012-03-15T13:51:44.000Z</time>
      </trkpt>
      <trkpt lat="48.7052" lon="1.75934">
        <ele>179.80000305176</ele>
        <time>2012-03-15T13:51:51.000Z</time>
      </trkpt>
      <trkpt lat="48.70521" lon="1.75932">
        <ele>179.80000305176</ele>
        <time>2012-03-15T13:51:52.000Z</time>
      </trkpt>
      <trkpt lat="48.7053" lon="1.7592">
        <ele>179.80000305176</ele>
        <time>2012-03-15T13:52:00.000Z</time>
      </trkpt>
      <trkpt lat="48.70536" lon="1.7591">
        <ele>179.60000610352</ele>
        <time>2012-03-15T13:52:06.000Z</time>
      </trkpt>
      <trkpt lat="48.70541" lon="1.75899">
        <ele>179.19999694824</ele>
        <time>2012-03-15T13:52:12.000Z</time>
      </trkpt>
      <trkpt lat="48.70546" lon="1.75885">
        <ele>179</ele>
        <time>2012-03-15T13:52:19.000Z</time>
      </trkpt>
      <trkpt lat="48.70551" lon="1.75872">
        <ele>178.80000305176</ele>
        <time>2012-03-15T13:52:26.000Z</time>
      </trkpt>
      <trkpt lat="48.70555" lon="1.75861">
        <ele>178.60000610352</ele>
        <time>2012-03-15T13:52:32.000Z</time>
      </trkpt>
      <trkpt lat="48.7056" lon="1.75846">
        <ele>178.19999694824</ele>
        <time>2012-03-15T13:52:40.000Z</time>
      </trkpt>
      <trkpt lat="48.70565" lon="1.75832">
        <ele>177.80000305176</ele>
        <time>2012-03-15T13:52:47.000Z</time>
      </trkpt>
      <trkpt lat="48.70572" lon="1.75816">
        <ele>177.60000610352</ele>
        <time>2012-03-15T13:52:56.000Z</time>
      </trkpt>
      <trkpt lat="48.70579" lon="1.75803">
        <ele>177.39999389648</ele>
        <time>2012-03-15T13:53:03.000Z</time>
      </trkpt>
      <trkpt lat="48.70586" lon="1.75792">
        <ele>177.39999389648</ele>
        <time>2012-03-15T13:53:10.000Z</time>
      </trkpt>
      <trkpt lat="48.70594" lon="1.75781">
        <ele>177.19999694824</ele>
        <time>2012-03-15T13:53:17.000Z</time>
      </trkpt>
      <trkpt lat="48.70599" lon="1.75774">
        <ele>177.19999694824</ele>
        <time>2012-03-15T13:53:21.000Z</time>
      </trkpt>
      <trkpt lat="48.70606" lon="1.75764">
        <ele>177.19999694824</ele>
        <time>2012-03-15T13:53:28.000Z</time>
      </trkpt>
      <trkpt lat="48.70607" lon="1.75763">
        <ele>177.19999694824</ele>
        <time>2012-03-15T13:53:29.000Z</time>
      </trkpt>
      <trkpt lat="48.70614" lon="1.75751">
        <ele>177.19999694824</ele>
        <time>2012-03-15T13:53:36.000Z</time>
      </trkpt>
      <trkpt lat="48.70621" lon="1.75738">
        <ele>177.19999694824</ele>
        <time>2012-03-15T13:53:44.000Z</time>
      </trkpt>
      <trkpt lat="48.70627" lon="1.75727">
        <ele>177.39999389648</ele>
        <time>2012-03-15T13:53:51.000Z</time>
      </trkpt>
      <trkpt lat="48.70628" lon="1.75726">
        <ele>177.39999389648</ele>
        <time>2012-03-15T13:53:52.000Z</time>
      </trkpt>
      <trkpt lat="48.7063" lon="1.75722">
        <ele>177.19999694824</ele>
        <time>2012-03-15T13:53:58.000Z</time>
      </trkpt>
      <trkpt lat="48.70643" lon="1.75652">
        <ele>177.80000305176</ele>
        <time>2012-03-15T13:56:17.000Z</time>
      </trkpt>
      <trkpt lat="48.70643" lon="1.75641">
        <ele>177.60000610352</ele>
        <time>2012-03-15T13:56:21.000Z</time>
      </trkpt>
      <trkpt lat="48.70643" lon="1.75623">
        <ele>177.39999389648</ele>
        <time>2012-03-15T13:56:30.000Z</time>
      </trkpt>
      <trkpt lat="48.70647" lon="1.75613">
        <ele>177.19999694824</ele>
        <time>2012-03-15T13:56:36.000Z</time>
      </trkpt>
      <trkpt lat="48.70647" lon="1.75609">
        <ele>177</ele>
        <time>2012-03-15T13:56:43.000Z</time>
      </trkpt>
      <trkpt lat="48.70672" lon="1.7556">
        <ele>174.19999694824</ele>
        <time>2012-03-15T13:57:31.000Z</time>
      </trkpt>
      <trkpt lat="48.70674" lon="1.75555">
        <ele>174</ele>
        <time>2012-03-15T13:57:36.000Z</time>
      </trkpt>
      <trkpt lat="48.70688" lon="1.75526">
        <ele>173</ele>
        <time>2012-03-15T13:58:13.000Z</time>
      </trkpt>
      <trkpt lat="48.70692" lon="1.75518">
        <ele>172.80000305176</ele>
        <time>2012-03-15T13:58:18.000Z</time>
      </trkpt>
      <trkpt lat="48.70694" lon="1.75513">
        <ele>172.60000610352</ele>
        <time>2012-03-15T13:58:21.000Z</time>
      </trkpt>
      <trkpt lat="48.70696" lon="1.75506">
        <ele>172.39999389648</ele>
        <time>2012-03-15T13:58:25.000Z</time>
      </trkpt>
      <trkpt lat="48.70698" lon="1.75497">
        <ele>172.19999694824</ele>
        <time>2012-03-15T13:58:30.000Z</time>
      </trkpt>
      <trkpt lat="48.707" lon="1.75488">
        <ele>172</ele>
        <time>2012-03-15T13:58:36.000Z</time>
      </trkpt>
      <trkpt lat="48.707" lon="1.75482">
        <ele>172</ele>
        <time>2012-03-15T13:58:42.000Z</time>
      </trkpt>
      <trkpt lat="48.70702" lon="1.75472">
        <ele>172</ele>
        <time>2012-03-15T13:59:20.000Z</time>
      </trkpt>
      <trkpt lat="48.70705" lon="1.75461">
        <ele>171.80000305176</ele>
        <time>2012-03-15T13:59:26.000Z</time>
      </trkpt>
      <trkpt lat="48.70706" lon="1.75459">
        <ele>171.80000305176</ele>
        <time>2012-03-15T13:59:28.000Z</time>
      </trkpt>
      <trkpt lat="48.70707" lon="1.75458">
        <ele>171.80000305176</ele>
        <time>2012-03-15T13:59:31.000Z</time>
      </trkpt>
      <trkpt lat="48.70708" lon="1.75462">
        <ele>171.80000305176</ele>
        <time>2012-03-15T14:00:57.000Z</time>
      </trkpt>
      <trkpt lat="48.70703" lon="1.75464">
        <ele>171.80000305176</ele>
        <time>2012-03-15T14:01:00.000Z</time>
      </trkpt>
      <trkpt lat="48.70697" lon="1.75462">
        <ele>171.80000305176</ele>
        <time>2012-03-15T14:01:04.000Z</time>
      </trkpt>
      <trkpt lat="48.70693" lon="1.75459">
        <ele>171.80000305176</ele>
        <time>2012-03-15T14:01:08.000Z</time>
      </trkpt>
      <trkpt lat="48.70688" lon="1.75452">
        <ele>171.80000305176</ele>
        <time>2012-03-15T14:01:13.000Z</time>
      </trkpt>
      <trkpt lat="48.70687" lon="1.75452">
        <ele>171.80000305176</ele>
        <time>2012-03-15T14:01:14.000Z</time>
      </trkpt>
      <trkpt lat="48.7068" lon="1.75448">
        <ele>171.80000305176</ele>
        <time>2012-03-15T14:01:20.000Z</time>
      </trkpt>
      <trkpt lat="48.70673" lon="1.75446">
        <ele>171.80000305176</ele>
        <time>2012-03-15T14:01:25.000Z</time>
      </trkpt>
      <trkpt lat="48.70667" lon="1.75446">
        <ele>171.60000610352</ele>
        <time>2012-03-15T14:01:30.000Z</time>
      </trkpt>
      <trkpt lat="48.70662" lon="1.75444">
        <ele>171.80000305176</ele>
        <time>2012-03-15T14:01:34.000Z</time>
      </trkpt>
      <trkpt lat="48.70656" lon="1.75443">
        <ele>171.80000305176</ele>
        <time>2012-03-15T14:01:40.000Z</time>
      </trkpt>
      <trkpt lat="48.70651" lon="1.75444">
        <ele>171.80000305176</ele>
        <time>2012-03-15T14:01:44.000Z</time>
      </trkpt>
      <trkpt lat="48.70651" lon="1.75445">
        <ele>171.80000305176</ele>
        <time>2012-03-15T14:01:48.000Z</time>
      </trkpt>
      <trkpt lat="48.70651" lon="1.75441">
        <ele>171.80000305176</ele>
        <time>2012-03-15T14:01:52.000Z</time>
      </trkpt>
      <trkpt lat="48.70651" lon="1.75439">
        <ele>171.80000305176</ele>
        <time>2012-03-15T14:01:56.000Z</time>
      </trkpt>
      <trkpt lat="48.70655" lon="1.75439">
        <ele>171.60000610352</ele>
        <time>2012-03-15T14:02:01.000Z</time>
      </trkpt>
      <trkpt lat="48.70655" lon="1.75439">
        <ele>171.60000610352</ele>
        <time>2012-03-15T14:02:04.000Z</time>
      </trkpt>
    </trkseg>
  </trk>
</gpx>